GEFSCGP_prec_meanprecacc_120.txt.gz
Total_Precipitation_Accumulation
0.00 0.00 0.00 0.00 0.00 0.00 0.00 0.00 0.00 0.00 0.00 0.00 0.00 0.00 0.00 0.00 0.00 0.00 0.00 0.00 0.00 0.00 0.00 0.00 0.00 0.00 0.00 0.00 0.00 0.00 0.00 0.00 0.00 0.00 0.00 0.00 0.00 0.00 0.00 0.00 0.00 0.00 0.00 0.00
0.00 0.00 0.00 0.00 0.00 0.00 0.00 0.00 0.00 0.00 0.00 0.00 0.00 0.00 0.00 0.00 0.00 0.00 0.00 0.00 0.00 0.00 0.00 0.00 0.00 0.00 0.00 0.00 0.00 0.00 0.00 0.00 0.00 0.00 0.00 0.00 0.00 0.00 0.00 0.00 0.00 0.00 0.00 0.00
0.00 0.00 0.00 0.00 0.00 0.00 0.00 0.00 0.00 0.00 0.00 0.00 0.00 0.00 0.00 0.00 0.00 0.00 0.00 0.00 0.00 0.00 0.00 0.00 0.00 0.00 0.00 0.00 0.00 0.00 0.00 0.00 0.00 0.00 0.00 0.00 0.00 0.00 0.00 0.00 0.00 0.00 0.00 0.00
0.00 0.00 0.00 0.00 0.00 0.00 0.00 0.00 0.00 0.00 0.00 0.00 0.00 0.00 0.00 0.00 0.00 0.00 0.00 0.00 0.00 0.00 0.00 0.00 0.00 0.00 0.00 0.00 0.00 0.00 0.00 0.00 0.00 0.00 0.00 0.00 0.00 0.00 0.00 0.00 0.00 0.00 0.00 0.00
0.00 0.00 0.00 0.00 0.00 0.00 0.00 0.00 0.00 0.00 0.00 0.00 0.00 0.00 0.00 0.00 0.00 0.00 0.00 0.00 0.00 0.00 0.00 0.00 0.00 0.00 0.00 0.00 0.00 0.00 0.00 0.00 0.00 0.00 0.00 0.00 0.00 0.00 0.00 0.00 0.00 0.00 0.00 0.00
0.00 0.00 0.00 0.00 0.00 0.00 0.00 0.00 0.00 0.00 0.00 0.00 0.00 0.00 0.00 0.00 0.00 0.00 0.00 0.00 0.00 0.00 0.00 0.00 0.00 0.00 0.00 0.00 0.00 0.00 0.00 0.00 0.00 0.00 0.00 0.00 0.00 0.00 0.00 0.00 0.00 0.00 0.00 0.00
0.00 0.00 0.00 0.00 0.00 0.00 0.00 0.00 0.00 0.00 0.00 0.00 0.00 0.00 0.00 0.00 0.00 0.00 0.00 0.00 0.00 0.00 0.00 0.00 0.00 0.00 0.00 0.00 0.00 0.00 0.00 0.00 0.00 0.00 0.00 0.00 0.00 0.00 0.00 0.00 0.00 0.00 0.00 0.01
0.00 0.00 0.00 0.00 0.00 0.00 0.00 0.00 0.00 0.00 0.00 0.00 0.00 0.00 0.00 0.00 0.00 0.00 0.00 0.00 0.00 0.00 0.00 0.00 0.00 0.00 0.00 0.00 0.00 0.00 0.00 0.00 0.00 0.00 0.00 0.00 0.00 0.01 0.00 0.00 0.00 0.01 0.01 0.01
0.00 0.00 0.00 0.00 0.00 0.00 0.00 0.00 0.00 0.00 0.00 0.00 0.00 0.00 0.00 0.00 0.00 0.00 0.00 0.00 0.00 0.00 0.00 0.00 0.00 0.00 0.00 0.00 0.00 0.00 0.00 0.00 0.00 0.00 0.00 0.00 0.00 0.00 0.00 0.00 0.01 0.01 0.02 0.03
0.00 0.00 0.00 0.00 0.00 0.00 0.00 0.00 0.00 0.00 0.00 0.00 0.00 0.00 0.00 0.00 0.00 0.00 0.00 0.00 0.00 0.00 0.00 0.00 0.00 0.00 0.00 0.00 0.00 0.00 0.00 0.00 0.01 0.00 0.01 0.01 0.01 0.01 0.01 0.01 0.02 0.03 0.04 0.05
0.00 0.00 0.00 0.00 0.00 0.00 0.00 0.00 0.00 0.00 0.00 0.00 0.00 0.00 0.00 0.00 0.00 0.00 0.00 0.00 0.00 0.00 0.00 0.00 0.00 0.00 0.00 0.00 0.00 0.00 0.01 0.01 0.01 0.01 0.01 0.02 0.02 0.03 0.03 0.04 0.05 0.07 0.08 0.09
0.00 0.00 0.00 0.00 0.00 0.00 0.00 0.00 0.00 0.00 0.00 0.00 0.01 0.00 0.00 0.00 0.00 0.00 0.00 0.00 0.00 0.00 0.00 0.00 0.00 0.00 0.00 0.00 0.00 0.01 0.02 0.03 0.04 0.03 0.03 0.04 0.04 0.06 0.09 0.11 0.12 0.13 0.14 0.14
0.00 0.00 0.00 0.00 0.00 0.00 0.00 0.00 0.00 0.01 0.03 0.02 0.02 0.01 0.00 0.00 0.00 0.00 0.00 0.00 0.00 0.00 0.00 0.00 0.00 0.00 0.00 0.01 0.01 0.02 0.03 0.05 0.04 0.04 0.05 0.06 0.09 0.12 0.16 0.19 0.20 0.20 0.20 0.20
0.00 0.00 0.00 0.00 0.00 0.00 0.00 0.00 0.01 0.02 0.03 0.01 0.01 0.00 0.00 0.00 0.00 0.00 0.00 0.00 0.00 0.00 0.00 0.00 0.00 0.00 0.01 0.01 0.02 0.03 0.05 0.06 0.07 0.09 0.11 0.14 0.18 0.22 0.25 0.26 0.25 0.23 0.23 0.24
0.00 0.00 0.00 0.00 0.00 0.00 0.00 0.00 0.00 0.00 0.00 0.01 0.01 0.01 0.02 0.01 0.00 0.00 0.00 0.00 0.00 0.00 0.00 0.01 0.01 0.01 0.02 0.02 0.03 0.06 0.09 0.12 0.16 0.20 0.23 0.23 0.22 0.22 0.22 0.22 0.22 0.23 0.25 0.27
0.00 0.00 0.00 0.00 0.00 0.00 0.00 0.00 0.00 0.00 0.00 0.00 0.01 0.01 0.01 0.00 0.00 0.00 0.00 0.00 0.01 0.01 0.01 0.01 0.02 0.03 0.04 0.06 0.09 0.14 0.20 0.23 0.25 0.27 0.27 0.25 0.22 0.21 0.21 0.22 0.22 0.23 0.23 0.21
0.00 0.00 0.00 0.00 0.00 0.00 0.00 0.00 0.00 0.00 0.00 0.00 0.00 0.00 0.00 0.00 0.00 0.00 0.00 0.01 0.02 0.02 0.03 0.04 0.05 0.07 0.09 0.13 0.18 0.22 0.24 0.24 0.26 0.28 0.28 0.26 0.24 0.23 0.21 0.20 0.18 0.18 0.16 0.13
0.00 0.00 0.00 0.00 0.00 0.00 0.00 0.00 0.00 0.00 0.00 0.00 0.00 0.00 0.00 0.00 0.00 0.00 0.01 0.02 0.04 0.05 0.07 0.09 0.11 0.12 0.15 0.20 0.24 0.27 0.26 0.26 0.26 0.25 0.23 0.19 0.16 0.15 0.14 0.14 0.13 0.11 0.10 0.08
0.00 0.00 0.00 0.00 0.00 0.00 0.00 0.00 0.00 0.00 0.00 0.00 0.00 0.00 0.00 0.00 0.00 0.01 0.04 0.04 0.05 0.07 0.07 0.08 0.08 0.09 0.13 0.19 0.22 0.23 0.21 0.20 0.17 0.15 0.12 0.09 0.07 0.07 0.08 0.08 0.07 0.06 0.05 0.04
0.00 0.00 0.00 0.00 0.00 0.00 0.00 0.00 0.00 0.00 0.00 0.00 0.00 0.00 0.01 0.05 0.17 0.08 0.09 0.06 0.05 0.04 0.04 0.04 0.04 0.04 0.07 0.10 0.12 0.12 0.12 0.10 0.09 0.07 0.05 0.03 0.02 0.03 0.04 0.04 0.03 0.03 0.02 0.03
0.00 0.00 0.00 0.00 0.00 0.00 0.00 0.00 0.00 0.00 0.00 0.00 0.00 0.01 0.06 0.14 0.20 0.12 0.08 0.06 0.04 0.03 0.03 0.02 0.02 0.04 0.07 0.10 0.11 0.10 0.08 0.05 0.03 0.02 0.01 0.01 0.00 0.01 0.01 0.02 0.02 0.02 0.03 0.03
0.00 0.00 0.00 0.00 0.00 0.00 0.00 0.00 0.00 0.00 0.00 0.00 0.03 0.06 0.11 0.09 0.04 0.03 0.04 0.05 0.03 0.02 0.02 0.02 0.03 0.05 0.10 0.12 0.10 0.06 0.04 0.01 0.00 0.00 0.00 0.00 0.00 0.01 0.01 0.02 0.02 0.03 0.03 0.04
0.00 0.00 0.00 0.00 0.00 0.00 0.00 0.00 0.00 0.00 0.02 0.06 0.14 0.15 0.14 0.12 0.08 0.06 0.05 0.04 0.02 0.02 0.02 0.04 0.05 0.08 0.11 0.09 0.05 0.02 0.01 0.00 0.00 0.00 0.00 0.01 0.01 0.01 0.02 0.02 0.03 0.04 0.04 0.07
0.00 0.00 0.00 0.00 0.00 0.00 0.00 0.00 0.00 0.01 0.05 0.09 0.12 0.13 0.14 0.16 0.12 0.08 0.05 0.03 0.03 0.04 0.05 0.06 0.07 0.09 0.10 0.06 0.02 0.00 0.00 0.00 0.00 0.01 0.01 0.01 0.01 0.02 0.02 0.03 0.04 0.05 0.08 0.18
0.00 0.00 0.00 0.00 0.00 0.00 0.00 0.00 0.01 0.03 0.04 0.03 0.02 0.05 0.11 0.16 0.12 0.07 0.05 0.05 0.06 0.07 0.07 0.08 0.09 0.09 0.07 0.03 0.01 0.00 0.00 0.00 0.01 0.01 0.02 0.02 0.02 0.03 0.03 0.03 0.04 0.07 0.09 0.25
0.00 0.00 0.00 0.00 0.00 0.00 0.00 0.00 0.02 0.05 0.04 0.05 0.07 0.07 0.07 0.09 0.08 0.06 0.08 0.09 0.09 0.10 0.11 0.11 0.09 0.05 0.02 0.01 0.00 0.00 0.00 0.01 0.02 0.03 0.03 0.04 0.04 0.04 0.04 0.05 0.05 0.05 0.07 0.14

GEFSCGP_prec_meanprecacc_126.txt.gz
Total_Precipitation_Accumulation
0.00 0.00 0.00 0.00 0.00 0.00 0.00 0.00 0.00 0.00 0.00 0.00 0.00 0.00 0.00 0.00 0.00 0.00 0.00 0.00 0.00 0.00 0.00 0.00 0.00 0.00 0.00 0.00 0.00 0.00 0.00 0.00 0.00 0.00 0.00 0.00 0.00 0.00 0.00 0.01 0.01 0.01 0.01 0.00
0.00 0.00 0.00 0.00 0.00 0.00 0.00 0.00 0.00 0.00 0.00 0.00 0.00 0.00 0.00 0.00 0.00 0.00 0.00 0.00 0.00 0.00 0.00 0.00 0.00 0.00 0.00 0.00 0.00 0.00 0.00 0.00 0.00 0.00 0.00 0.00 0.00 0.00 0.00 0.00 0.00 0.01 0.01 0.00
0.00 0.00 0.00 0.00 0.00 0.00 0.00 0.00 0.00 0.00 0.00 0.00 0.00 0.00 0.00 0.00 0.00 0.00 0.00 0.00 0.00 0.00 0.00 0.00 0.00 0.00 0.00 0.00 0.00 0.00 0.00 0.00 0.00 0.00 0.00 0.00 0.00 0.00 0.00 0.00 0.00 0.00 0.00 0.00
0.00 0.00 0.00 0.00 0.00 0.00 0.00 0.00 0.00 0.00 0.00 0.00 0.00 0.00 0.00 0.00 0.00 0.00 0.00 0.00 0.00 0.00 0.00 0.00 0.00 0.00 0.00 0.00 0.00 0.00 0.00 0.00 0.00 0.00 0.00 0.00 0.00 0.00 0.00 0.00 0.00 0.00 0.00 0.00
0.00 0.00 0.00 0.00 0.00 0.00 0.00 0.00 0.00 0.00 0.00 0.00 0.00 0.00 0.00 0.00 0.00 0.00 0.00 0.00 0.00 0.00 0.00 0.00 0.00 0.00 0.00 0.00 0.00 0.00 0.00 0.00 0.00 0.00 0.00 0.00 0.00 0.00 0.00 0.00 0.00 0.00 0.00 0.00
0.00 0.00 0.00 0.00 0.00 0.00 0.00 0.00 0.00 0.00 0.00 0.00 0.00 0.00 0.00 0.00 0.00 0.00 0.00 0.00 0.00 0.00 0.00 0.00 0.00 0.00 0.00 0.00 0.00 0.00 0.00 0.00 0.00 0.00 0.00 0.00 0.00 0.00 0.00 0.00 0.00 0.00 0.00 0.00
0.00 0.00 0.00 0.00 0.00 0.00 0.00 0.00 0.00 0.00 0.00 0.00 0.00 0.00 0.00 0.00 0.00 0.00 0.00 0.00 0.00 0.00 0.00 0.00 0.00 0.00 0.00 0.00 0.00 0.00 0.00 0.00 0.00 0.00 0.00 0.00 0.00 0.00 0.00 0.00 0.00 0.00 0.00 0.01
0.00 0.00 0.00 0.00 0.00 0.00 0.00 0.00 0.00 0.00 0.00 0.00 0.00 0.00 0.00 0.00 0.00 0.00 0.00 0.00 0.00 0.00 0.00 0.00 0.00 0.00 0.00 0.00 0.00 0.00 0.00 0.00 0.00 0.00 0.00 0.00 0.00 0.01 0.00 0.00 0.00 0.01 0.01 0.01
0.00 0.00 0.00 0.00 0.00 0.00 0.00 0.00 0.00 0.00 0.00 0.00 0.00 0.00 0.00 0.00 0.00 0.00 0.00 0.00 0.00 0.00 0.00 0.00 0.00 0.00 0.00 0.00 0.00 0.00 0.00 0.00 0.00 0.00 0.00 0.00 0.00 0.00 0.00 0.00 0.01 0.01 0.02 0.03
0.00 0.00 0.00 0.00 0.00 0.00 0.00 0.00 0.00 0.00 0.00 0.00 0.00 0.00 0.00 0.00 0.00 0.00 0.00 0.00 0.00 0.00 0.00 0.00 0.00 0.00 0.00 0.00 0.00 0.00 0.00 0.00 0.01 0.00 0.01 0.01 0.01 0.01 0.01 0.01 0.02 0.03 0.04 0.05
0.00 0.00 0.00 0.00 0.00 0.00 0.00 0.00 0.00 0.00 0.00 0.00 0.00 0.00 0.00 0.00 0.00 0.00 0.00 0.00 0.00 0.00 0.00 0.00 0.00 0.00 0.00 0.00 0.00 0.00 0.01 0.01 0.01 0.01 0.01 0.02 0.02 0.03 0.03 0.04 0.05 0.07 0.08 0.09
0.00 0.00 0.00 0.00 0.00 0.00 0.00 0.00 0.00 0.00 0.00 0.00 0.01 0.00 0.00 0.00 0.00 0.00 0.00 0.00 0.00 0.00 0.00 0.00 0.00 0.00 0.00 0.00 0.00 0.01 0.02 0.03 0.04 0.03 0.03 0.04 0.04 0.06 0.09 0.11 0.12 0.13 0.14 0.14
0.00 0.00 0.00 0.00 0.00 0.00 0.00 0.00 0.00 0.01 0.03 0.02 0.02 0.01 0.00 0.00 0.00 0.00 0.00 0.00 0.00 0.00 0.00 0.00 0.00 0.00 0.00 0.01 0.01 0.02 0.03 0.05 0.04 0.04 0.05 0.06 0.09 0.12 0.16 0.19 0.20 0.20 0.20 0.20
0.00 0.00 0.00 0.00 0.00 0.00 0.00 0.00 0.01 0.02 0.03 0.01 0.01 0.00 0.00 0.00 0.00 0.00 0.00 0.00 0.00 0.00 0.00 0.00 0.00 0.00 0.01 0.01 0.02 0.03 0.05 0.06 0.07 0.09 0.11 0.14 0.18 0.22 0.25 0.26 0.25 0.23 0.23 0.24
0.00 0.00 0.00 0.00 0.00 0.00 0.00 0.00 0.00 0.00 0.00 0.01 0.01 0.01 0.02 0.01 0.00 0.00 0.00 0.00 0.00 0.00 0.00 0.01 0.01 0.01 0.02 0.02 0.03 0.06 0.09 0.12 0.16 0.20 0.23 0.23 0.22 0.22 0.22 0.22 0.22 0.23 0.25 0.27
0.00 0.00 0.00 0.00 0.00 0.00 0.00 0.00 0.00 0.00 0.00 0.00 0.01 0.01 0.01 0.00 0.00 0.00 0.00 0.00 0.01 0.01 0.01 0.01 0.02 0.03 0.04 0.06 0.09 0.14 0.20 0.23 0.25 0.27 0.27 0.25 0.22 0.21 0.21 0.22 0.22 0.23 0.23 0.21
0.00 0.00 0.00 0.00 0.00 0.00 0.00 0.00 0.00 0.00 0.00 0.00 0.00 0.00 0.00 0.00 0.00 0.00 0.00 0.01 0.02 0.02 0.03 0.04 0.05 0.07 0.09 0.13 0.18 0.22 0.24 0.24 0.26 0.28 0.28 0.26 0.24 0.23 0.21 0.20 0.18 0.18 0.16 0.13
0.00 0.00 0.00 0.00 0.00 0.00 0.00 0.00 0.00 0.00 0.00 0.00 0.00 0.00 0.00 0.00 0.00 0.00 0.01 0.02 0.04 0.05 0.07 0.09 0.11 0.12 0.15 0.20 0.24 0.27 0.26 0.26 0.26 0.25 0.23 0.19 0.16 0.15 0.14 0.14 0.13 0.11 0.10 0.08
0.00 0.00 0.00 0.00 0.00 0.00 0.00 0.00 0.00 0.00 0.00 0.00 0.00 0.00 0.00 0.00 0.00 0.01 0.04 0.04 0.05 0.07 0.07 0.08 0.08 0.09 0.13 0.19 0.22 0.23 0.21 0.20 0.17 0.15 0.12 0.09 0.07 0.07 0.08 0.08 0.07 0.06 0.05 0.04
0.00 0.00 0.00 0.00 0.00 0.00 0.00 0.00 0.00 0.00 0.00 0.00 0.00 0.00 0.01 0.05 0.17 0.08 0.09 0.06 0.05 0.04 0.04 0.04 0.04 0.04 0.07 0.10 0.12 0.12 0.12 0.10 0.09 0.07 0.05 0.03 0.02 0.03 0.04 0.04 0.03 0.03 0.02 0.03
0.00 0.00 0.00 0.00 0.00 0.00 0.00 0.00 0.00 0.00 0.00 0.00 0.00 0.01 0.06 0.14 0.20 0.12 0.08 0.06 0.04 0.03 0.03 0.02 0.02 0.04 0.07 0.10 0.11 0.10 0.08 0.05 0.03 0.02 0.01 0.01 0.00 0.01 0.01 0.02 0.02 0.02 0.03 0.03
0.00 0.00 0.00 0.00 0.00 0.00 0.00 0.00 0.00 0.00 0.00 0.00 0.03 0.06 0.11 0.09 0.04 0.03 0.04 0.05 0.03 0.02 0.02 0.02 0.03 0.05 0.10 0.12 0.10 0.06 0.04 0.01 0.00 0.00 0.00 0.00 0.00 0.01 0.01 0.02 0.02 0.03 0.03 0.04
0.00 0.00 0.00 0.00 0.00 0.00 0.00 0.00 0.00 0.00 0.02 0.06 0.14 0.15 0.14 0.12 0.08 0.06 0.05 0.04 0.02 0.02 0.02 0.04 0.05 0.08 0.11 0.09 0.05 0.02 0.01 0.00 0.00 0.00 0.00 0.01 0.01 0.01 0.02 0.02 0.03 0.04 0.04 0.07
0.00 0.00 0.00 0.00 0.00 0.00 0.00 0.00 0.00 0.01 0.05 0.09 0.12 0.13 0.14 0.16 0.12 0.08 0.05 0.03 0.03 0.04 0.05 0.06 0.07 0.09 0.10 0.06 0.02 0.00 0.00 0.00 0.00 0.01 0.01 0.01 0.01 0.02 0.02 0.03 0.04 0.05 0.08 0.19
0.00 0.00 0.00 0.00 0.00 0.00 0.00 0.00 0.01 0.03 0.04 0.03 0.02 0.05 0.11 0.16 0.12 0.07 0.05 0.05 0.06 0.07 0.07 0.08 0.09 0.09 0.07 0.03 0.01 0.00 0.00 0.00 0.01 0.01 0.02 0.02 0.02 0.03 0.03 0.03 0.04 0.07 0.09 0.26
0.00 0.00 0.00 0.00 0.00 0.00 0.00 0.00 0.02 0.05 0.04 0.05 0.07 0.07 0.07 0.09 0.08 0.06 0.08 0.09 0.09 0.10 0.11 0.11 0.09 0.05 0.02 0.01 0.00 0.00 0.00 0.01 0.02 0.03 0.03 0.04 0.04 0.04 0.04 0.05 0.05 0.05 0.07 0.14

GEFSCGP_prec_meanprecacc_132.txt.gz
Total_Precipitation_Accumulation
0.00 0.00 0.00 0.00 0.00 0.00 0.00 0.00 0.00 0.00 0.00 0.00 0.00 0.00 0.00 0.00 0.00 0.00 0.00 0.00 0.00 0.00 0.00 0.00 0.00 0.00 0.00 0.00 0.00 0.00 0.00 0.00 0.00 0.01 0.01 0.01 0.01 0.00 0.01 0.01 0.01 0.01 0.01 0.01
0.00 0.00 0.00 0.00 0.00 0.00 0.00 0.00 0.00 0.00 0.00 0.00 0.00 0.00 0.00 0.00 0.00 0.00 0.00 0.00 0.00 0.00 0.00 0.00 0.00 0.00 0.00 0.00 0.00 0.00 0.00 0.00 0.00 0.00 0.00 0.00 0.00 0.00 0.00 0.01 0.01 0.01 0.01 0.01
0.00 0.00 0.00 0.00 0.00 0.00 0.00 0.00 0.00 0.00 0.00 0.00 0.00 0.00 0.00 0.00 0.00 0.00 0.00 0.00 0.00 0.00 0.00 0.00 0.00 0.00 0.00 0.00 0.00 0.00 0.00 0.00 0.00 0.00 0.00 0.00 0.00 0.00 0.00 0.01 0.01 0.01 0.00 0.00
0.00 0.00 0.00 0.00 0.00 0.00 0.00 0.00 0.00 0.00 0.00 0.00 0.00 0.00 0.00 0.00 0.00 0.00 0.00 0.00 0.00 0.00 0.00 0.00 0.00 0.00 0.00 0.00 0.00 0.00 0.00 0.00 0.00 0.00 0.00 0.00 0.01 0.01 0.01 0.00 0.00 0.00 0.00 0.00
0.00 0.00 0.00 0.00 0.00 0.00 0.00 0.00 0.00 0.00 0.00 0.00 0.00 0.00 0.00 0.00 0.00 0.00 0.00 0.00 0.00 0.00 0.00 0.00 0.00 0.00 0.00 0.00 0.00 0.00 0.00 0.00 0.00 0.00 0.00 0.00 0.00 0.00 0.00 0.00 0.00 0.00 0.00 0.00
0.00 0.00 0.00 0.00 0.00 0.00 0.00 0.00 0.00 0.00 0.00 0.00 0.00 0.00 0.00 0.00 0.00 0.00 0.00 0.00 0.00 0.00 0.00 0.00 0.00 0.00 0.00 0.00 0.00 0.00 0.00 0.00 0.00 0.00 0.00 0.00 0.00 0.00 0.00 0.00 0.00 0.00 0.00 0.00
0.00 0.00 0.00 0.00 0.00 0.00 0.00 0.00 0.00 0.00 0.00 0.00 0.00 0.00 0.00 0.00 0.00 0.00 0.00 0.00 0.00 0.00 0.00 0.00 0.00 0.00 0.00 0.00 0.00 0.00 0.00 0.00 0.00 0.00 0.00 0.00 0.00 0.00 0.00 0.00 0.00 0.00 0.00 0.01
0.00 0.00 0.00 0.00 0.00 0.00 0.00 0.00 0.00 0.00 0.00 0.00 0.00 0.00 0.00 0.00 0.00 0.00 0.00 0.00 0.00 0.00 0.00 0.00 0.00 0.00 0.00 0.00 0.00 0.00 0.00 0.00 0.00 0.00 0.00 0.00 0.00 0.01 0.00 0.00 0.00 0.01 0.01 0.01
0.00 0.00 0.00 0.00 0.00 0.00 0.00 0.00 0.00 0.00 0.00 0.00 0.00 0.00 0.00 0.00 0.00 0.00 0.00 0.00 0.00 0.00 0.00 0.00 0.00 0.00 0.00 0.00 0.00 0.00 0.00 0.00 0.00 0.00 0.00 0.00 0.00 0.00 0.00 0.00 0.01 0.01 0.02 0.03
0.00 0.00 0.00 0.00 0.00 0.00 0.00 0.00 0.00 0.00 0.00 0.00 0.00 0.00 0.00 0.00 0.00 0.00 0.00 0.00 0.00 0.00 0.00 0.00 0.00 0.00 0.00 0.00 0.00 0.00 0.00 0.00 0.01 0.00 0.01 0.01 0.01 0.01 0.01 0.01 0.02 0.03 0.04 0.05
0.00 0.00 0.00 0.00 0.00 0.00 0.00 0.00 0.00 0.00 0.00 0.00 0.00 0.00 0.00 0.00 0.00 0.00 0.00 0.00 0.00 0.00 0.00 0.00 0.00 0.00 0.00 0.00 0.00 0.00 0.01 0.01 0.01 0.01 0.01 0.02 0.02 0.03 0.03 0.04 0.05 0.07 0.08 0.09
0.00 0.00 0.00 0.00 0.00 0.00 0.00 0.00 0.00 0.00 0.00 0.00 0.01 0.00 0.00 0.00 0.00 0.00 0.00 0.00 0.00 0.00 0.00 0.00 0.00 0.00 0.00 0.00 0.00 0.01 0.02 0.03 0.04 0.03 0.03 0.04 0.04 0.06 0.09 0.11 0.12 0.13 0.14 0.14
0.00 0.00 0.00 0.00 0.00 0.00 0.00 0.00 0.00 0.01 0.03 0.02 0.02 0.01 0.00 0.00 0.00 0.00 0.00 0.00 0.00 0.00 0.00 0.00 0.00 0.00 0.00 0.01 0.01 0.02 0.03 0.05 0.04 0.04 0.05 0.06 0.09 0.12 0.16 0.19 0.20 0.20 0.20 0.20
0.00 0.00 0.00 0.00 0.00 0.00 0.00 0.00 0.01 0.02 0.03 0.01 0.01 0.00 0.00 0.00 0.00 0.00 0.00 0.00 0.00 0.00 0.00 0.00 0.00 0.00 0.01 0.01 0.02 0.03 0.05 0.06 0.07 0.09 0.11 0.14 0.18 0.22 0.25 0.26 0.25 0.23 0.23 0.24
0.00 0.00 0.00 0.00 0.00 0.00 0.00 0.00 0.00 0.00 0.00 0.01 0.01 0.01 0.02 0.01 0.00 0.00 0.00 0.00 0.00 0.00 0.00 0.01 0.01 0.01 0.02 0.02 0.03 0.06 0.09 0.12 0.16 0.20 0.23 0.23 0.22 0.22 0.22 0.22 0.22 0.23 0.25 0.27
0.00 0.00 0.00 0.00 0.00 0.00 0.00 0.00 0.00 0.00 0.00 0.00 0.01 0.01 0.01 0.00 0.00 0.00 0.00 0.00 0.01 0.01 0.01 0.01 0.02 0.03 0.04 0.06 0.09 0.14 0.20 0.23 0.25 0.27 0.27 0.25 0.22 0.21 0.21 0.22 0.22 0.23 0.23 0.21
0.00 0.00 0.00 0.00 0.00 0.00 0.00 0.00 0.00 0.00 0.00 0.00 0.00 0.00 0.00 0.00 0.00 0.00 0.00 0.01 0.02 0.02 0.03 0.04 0.05 0.07 0.09 0.13 0.18 0.22 0.24 0.24 0.26 0.28 0.28 0.26 0.24 0.23 0.21 0.20 0.18 0.18 0.16 0.13
0.00 0.00 0.00 0.00 0.00 0.00 0.00 0.00 0.00 0.00 0.00 0.00 0.00 0.00 0.00 0.00 0.00 0.00 0.01 0.02 0.04 0.05 0.07 0.09 0.11 0.12 0.15 0.20 0.24 0.27 0.26 0.26 0.26 0.25 0.23 0.19 0.16 0.15 0.14 0.14 0.13 0.11 0.10 0.08
0.00 0.00 0.00 0.00 0.00 0.00 0.00 0.00 0.00 0.00 0.00 0.00 0.00 0.00 0.00 0.00 0.00 0.01 0.04 0.04 0.05 0.07 0.07 0.08 0.08 0.09 0.13 0.19 0.22 0.23 0.21 0.20 0.17 0.15 0.12 0.09 0.07 0.07 0.08 0.08 0.07 0.06 0.05 0.04
0.00 0.00 0.00 0.00 0.00 0.00 0.00 0.00 0.00 0.00 0.00 0.00 0.00 0.00 0.01 0.05 0.17 0.08 0.09 0.06 0.05 0.04 0.04 0.04 0.04 0.04 0.07 0.10 0.12 0.12 0.12 0.10 0.09 0.07 0.05 0.03 0.02 0.03 0.04 0.04 0.03 0.03 0.02 0.03
0.00 0.00 0.00 0.00 0.00 0.00 0.00 0.00 0.00 0.00 0.00 0.00 0.00 0.01 0.06 0.14 0.20 0.12 0.08 0.06 0.04 0.03 0.03 0.02 0.02 0.04 0.07 0.10 0.11 0.10 0.08 0.05 0.03 0.02 0.01 0.01 0.00 0.01 0.01 0.02 0.02 0.02 0.03 0.03
0.00 0.00 0.00 0.00 0.00 0.00 0.00 0.00 0.00 0.00 0.00 0.00 0.03 0.06 0.11 0.09 0.04 0.03 0.04 0.05 0.03 0.02 0.02 0.02 0.03 0.05 0.10 0.12 0.10 0.06 0.04 0.01 0.00 0.00 0.00 0.00 0.00 0.01 0.01 0.02 0.02 0.03 0.03 0.04
0.00 0.00 0.00 0.00 0.00 0.00 0.00 0.00 0.00 0.00 0.02 0.06 0.14 0.15 0.14 0.12 0.08 0.06 0.05 0.04 0.02 0.02 0.02 0.04 0.05 0.08 0.11 0.09 0.05 0.02 0.01 0.00 0.00 0.00 0.00 0.01 0.01 0.01 0.02 0.02 0.03 0.04 0.04 0.07
0.00 0.00 0.00 0.00 0.00 0.00 0.00 0.00 0.00 0.01 0.05 0.09 0.12 0.13 0.14 0.16 0.12 0.08 0.05 0.03 0.03 0.04 0.05 0.06 0.07 0.09 0.10 0.06 0.02 0.00 0.00 0.00 0.00 0.01 0.01 0.01 0.01 0.02 0.02 0.03 0.04 0.05 0.08 0.19
0.00 0.00 0.00 0.00 0.00 0.00 0.00 0.00 0.01 0.03 0.04 0.03 0.02 0.05 0.11 0.16 0.12 0.07 0.05 0.05 0.06 0.07 0.07 0.08 0.09 0.09 0.07 0.03 0.01 0.00 0.00 0.00 0.01 0.01 0.02 0.02 0.02 0.03 0.03 0.03 0.04 0.07 0.09 0.26
0.00 0.00 0.00 0.00 0.00 0.00 0.00 0.00 0.02 0.05 0.04 0.05 0.07 0.07 0.07 0.09 0.08 0.06 0.08 0.09 0.09 0.10 0.11 0.11 0.09 0.05 0.02 0.01 0.00 0.00 0.00 0.01 0.02 0.03 0.03 0.04 0.04 0.04 0.04 0.05 0.05 0.05 0.07 0.14

GEFSCGP_prec_meanprecacc_138.txt.gz
Total_Precipitation_Accumulation
0.00 0.00 0.00 0.00 0.00 0.00 0.00 0.00 0.00 0.00 0.00 0.00 0.00 0.00 0.00 0.00 0.00 0.00 0.00 0.00 0.00 0.00 0.00 0.00 0.00 0.00 0.00 0.00 0.00 0.00 0.00 0.00 0.00 0.01 0.01 0.01 0.01 0.01 0.01 0.01 0.01 0.01 0.01 0.01
0.00 0.00 0.00 0.00 0.00 0.00 0.00 0.00 0.00 0.00 0.00 0.00 0.00 0.00 0.00 0.00 0.00 0.00 0.00 0.00 0.00 0.00 0.00 0.00 0.00 0.00 0.00 0.00 0.00 0.00 0.00 0.00 0.00 0.00 0.01 0.01 0.01 0.01 0.01 0.01 0.01 0.01 0.01 0.01
0.00 0.00 0.00 0.00 0.00 0.00 0.00 0.00 0.00 0.00 0.00 0.00 0.00 0.00 0.00 0.00 0.00 0.00 0.00 0.00 0.00 0.00 0.00 0.00 0.00 0.00 0.00 0.00 0.00 0.00 0.00 0.00 0.00 0.00 0.00 0.00 0.00 0.00 0.01 0.01 0.01 0.01 0.00 0.00
0.00 0.00 0.00 0.00 0.00 0.00 0.00 0.00 0.00 0.00 0.00 0.00 0.00 0.00 0.00 0.00 0.00 0.00 0.00 0.00 0.00 0.00 0.00 0.00 0.00 0.00 0.00 0.00 0.00 0.00 0.00 0.00 0.00 0.00 0.00 0.00 0.01 0.01 0.01 0.01 0.00 0.00 0.00 0.00
0.00 0.00 0.00 0.00 0.00 0.00 0.00 0.00 0.00 0.00 0.00 0.00 0.00 0.00 0.00 0.00 0.00 0.00 0.00 0.00 0.00 0.00 0.00 0.00 0.00 0.00 0.00 0.00 0.00 0.00 0.00 0.00 0.00 0.00 0.00 0.00 0.01 0.00 0.00 0.00 0.00 0.00 0.00 0.00
0.00 0.00 0.00 0.00 0.00 0.00 0.00 0.00 0.00 0.00 0.00 0.00 0.00 0.00 0.00 0.00 0.00 0.00 0.00 0.00 0.00 0.00 0.00 0.00 0.00 0.00 0.00 0.00 0.00 0.00 0.00 0.00 0.00 0.00 0.00 0.00 0.00 0.00 0.00 0.00 0.00 0.00 0.00 0.00
0.00 0.00 0.00 0.00 0.00 0.00 0.00 0.00 0.00 0.00 0.00 0.00 0.00 0.00 0.00 0.00 0.00 0.00 0.00 0.00 0.00 0.00 0.00 0.00 0.00 0.00 0.00 0.00 0.00 0.00 0.00 0.00 0.00 0.00 0.00 0.00 0.00 0.00 0.00 0.00 0.00 0.00 0.00 0.01
0.00 0.00 0.00 0.00 0.00 0.00 0.00 0.00 0.00 0.00 0.00 0.00 0.00 0.00 0.00 0.00 0.00 0.00 0.00 0.00 0.00 0.00 0.00 0.00 0.00 0.00 0.00 0.00 0.00 0.00 0.00 0.00 0.00 0.00 0.00 0.00 0.01 0.01 0.00 0.00 0.00 0.01 0.01 0.01
0.00 0.00 0.00 0.00 0.00 0.00 0.00 0.00 0.00 0.00 0.00 0.00 0.00 0.00 0.00 0.00 0.00 0.00 0.00 0.00 0.00 0.00 0.00 0.00 0.00 0.00 0.00 0.00 0.00 0.00 0.00 0.00 0.00 0.00 0.00 0.00 0.00 0.00 0.00 0.00 0.01 0.01 0.02 0.03
0.00 0.00 0.00 0.00 0.00 0.00 0.00 0.00 0.00 0.00 0.00 0.00 0.00 0.00 0.00 0.00 0.00 0.00 0.00 0.00 0.00 0.00 0.00 0.00 0.00 0.00 0.00 0.00 0.00 0.00 0.00 0.00 0.01 0.00 0.01 0.01 0.01 0.01 0.01 0.01 0.02 0.03 0.04 0.05
0.00 0.00 0.00 0.00 0.00 0.00 0.00 0.00 0.00 0.00 0.00 0.00 0.00 0.00 0.00 0.00 0.00 0.00 0.00 0.00 0.00 0.00 0.00 0.00 0.00 0.00 0.00 0.00 0.00 0.00 0.01 0.01 0.01 0.01 0.01 0.02 0.02 0.03 0.03 0.04 0.05 0.07 0.08 0.09
0.00 0.00 0.00 0.00 0.00 0.00 0.00 0.00 0.00 0.00 0.00 0.00 0.01 0.00 0.00 0.00 0.00 0.00 0.00 0.00 0.00 0.00 0.00 0.00 0.00 0.00 0.00 0.00 0.00 0.01 0.02 0.03 0.04 0.03 0.03 0.04 0.04 0.06 0.09 0.11 0.12 0.13 0.14 0.14
0.00 0.00 0.00 0.00 0.00 0.00 0.00 0.00 0.00 0.01 0.03 0.02 0.02 0.01 0.00 0.00 0.00 0.00 0.00 0.00 0.00 0.00 0.00 0.00 0.00 0.00 0.00 0.01 0.01 0.02 0.03 0.05 0.04 0.04 0.05 0.06 0.09 0.12 0.16 0.19 0.20 0.20 0.20 0.20
0.00 0.00 0.00 0.00 0.00 0.00 0.00 0.00 0.01 0.02 0.03 0.01 0.01 0.00 0.00 0.00 0.00 0.00 0.00 0.00 0.00 0.00 0.00 0.00 0.00 0.00 0.01 0.01 0.02 0.03 0.05 0.06 0.07 0.09 0.11 0.14 0.18 0.22 0.25 0.26 0.25 0.24 0.23 0.24
0.01 0.01 0.00 0.00 0.00 0.00 0.00 0.00 0.00 0.00 0.00 0.01 0.01 0.01 0.02 0.01 0.00 0.00 0.00 0.00 0.00 0.00 0.00 0.01 0.01 0.01 0.02 0.02 0.03 0.06 0.09 0.12 0.16 0.20 0.23 0.23 0.22 0.22 0.22 0.22 0.22 0.23 0.25 0.27
0.01 0.01 0.00 0.00 0.00 0.00 0.00 0.00 0.00 0.00 0.00 0.00 0.01 0.01 0.01 0.00 0.00 0.00 0.00 0.00 0.01 0.01 0.01 0.01 0.02 0.03 0.04 0.06 0.09 0.14 0.20 0.23 0.25 0.27 0.27 0.25 0.22 0.21 0.21 0.22 0.22 0.23 0.23 0.21
0.02 0.01 0.00 0.00 0.00 0.00 0.00 0.00 0.00 0.00 0.00 0.00 0.00 0.00 0.00 0.00 0.00 0.00 0.00 0.01 0.02 0.02 0.03 0.04 0.05 0.07 0.09 0.13 0.18 0.22 0.24 0.24 0.26 0.28 0.28 0.26 0.24 0.23 0.21 0.20 0.18 0.18 0.16 0.13
0.02 0.01 0.01 0.01 0.01 0.01 0.00 0.00 0.00 0.00 0.00 0.00 0.00 0.00 0.00 0.00 0.00 0.00 0.01 0.02 0.04 0.05 0.07 0.09 0.11 0.12 0.15 0.20 0.24 0.27 0.26 0.26 0.26 0.25 0.23 0.19 0.16 0.15 0.14 0.14 0.13 0.11 0.10 0.08
0.01 0.02 0.02 0.01 0.01 0.01 0.00 0.00 0.00 0.00 0.00 0.00 0.00 0.00 0.00 0.00 0.00 0.01 0.04 0.04 0.05 0.07 0.07 0.08 0.08 0.09 0.13 0.19 0.22 0.23 0.21 0.20 0.17 0.15 0.12 0.09 0.07 0.07 0.08 0.08 0.07 0.06 0.05 0.04
0.01 0.01 0.03 0.02 0.01 0.00 0.00 0.00 0.00 0.00 0.00 0.00 0.00 0.00 0.01 0.05 0.17 0.08 0.09 0.06 0.05 0.04 0.04 0.04 0.04 0.04 0.07 0.10 0.12 0.12 0.12 0.10 0.09 0.07 0.05 0.03 0.02 0.03 0.04 0.04 0.03 0.03 0.02 0.03
0.01 0.02 0.03 0.02 0.01 0.00 0.00 0.00 0.00 0.00 0.00 0.00 0.00 0.01 0.06 0.14 0.20 0.12 0.08 0.06 0.04 0.03 0.03 0.02 0.02 0.04 0.07 0.10 0.11 0.10 0.08 0.05 0.03 0.02 0.01 0.01 0.00 0.01 0.01 0.02 0.02 0.02 0.03 0.03
0.01 0.02 0.01 0.01 0.01 0.00 0.00 0.00 0.00 0.00 0.00 0.00 0.03 0.06 0.11 0.09 0.04 0.03 0.04 0.05 0.03 0.02 0.02 0.02 0.03 0.05 0.10 0.12 0.10 0.06 0.04 0.01 0.00 0.00 0.00 0.00 0.00 0.01 0.01 0.02 0.02 0.03 0.03 0.04
0.00 0.01 0.01 0.00 0.00 0.00 0.00 0.00 0.00 0.00 0.02 0.06 0.14 0.15 0.14 0.12 0.08 0.06 0.05 0.04 0.02 0.02 0.02 0.04 0.05 0.08 0.11 0.09 0.05 0.02 0.01 0.00 0.00 0.00 0.00 0.01 0.01 0.01 0.02 0.02 0.03 0.04 0.04 0.07
0.00 0.00 0.00 0.00 0.00 0.00 0.00 0.00 0.00 0.01 0.05 0.09 0.12 0.13 0.14 0.16 0.12 0.08 0.05 0.03 0.03 0.04 0.05 0.06 0.07 0.09 0.10 0.06 0.02 0.00 0.00 0.00 0.00 0.01 0.01 0.01 0.01 0.02 0.02 0.03 0.04 0.05 0.08 0.19
0.00 0.00 0.00 0.00 0.00 0.00 0.00 0.00 0.01 0.03 0.04 0.03 0.02 0.05 0.11 0.16 0.12 0.07 0.05 0.05 0.06 0.07 0.07 0.08 0.09 0.09 0.07 0.03 0.01 0.00 0.00 0.00 0.01 0.01 0.02 0.02 0.02 0.03 0.03 0.03 0.04 0.07 0.09 0.26
0.00 0.00 0.00 0.00 0.00 0.00 0.00 0.00 0.02 0.05 0.04 0.05 0.07 0.07 0.07 0.09 0.08 0.06 0.08 0.09 0.09 0.10 0.11 0.11 0.09 0.05 0.02 0.01 0.00 0.00 0.00 0.01 0.02 0.03 0.03 0.04 0.04 0.04 0.04 0.05 0.05 0.05 0.07 0.14

GEFSCGP_prec_meanprecacc_144.txt.gz
Total_Precipitation_Accumulation
0.01 0.00 0.00 0.00 0.00 0.00 0.00 0.00 0.00 0.00 0.00 0.00 0.00 0.00 0.00 0.00 0.00 0.00 0.00 0.00 0.00 0.00 0.00 0.00 0.00 0.00 0.00 0.00 0.00 0.00 0.00 0.00 0.00 0.01 0.01 0.01 0.01 0.01 0.01 0.01 0.01 0.01 0.01 0.01
0.01 0.01 0.00 0.00 0.00 0.00 0.00 0.00 0.00 0.00 0.00 0.00 0.00 0.00 0.00 0.00 0.00 0.00 0.00 0.00 0.00 0.00 0.00 0.00 0.00 0.00 0.00 0.00 0.00 0.00 0.00 0.00 0.00 0.00 0.01 0.01 0.01 0.01 0.01 0.01 0.01 0.01 0.01 0.01
0.01 0.00 0.00 0.00 0.00 0.00 0.00 0.00 0.00 0.00 0.00 0.00 0.00 0.00 0.00 0.00 0.00 0.00 0.00 0.00 0.00 0.00 0.00 0.00 0.00 0.00 0.00 0.00 0.00 0.00 0.00 0.00 0.00 0.00 0.00 0.00 0.00 0.01 0.01 0.01 0.01 0.01 0.00 0.01
0.00 0.00 0.00 0.00 0.00 0.00 0.00 0.00 0.00 0.00 0.00 0.00 0.00 0.00 0.00 0.00 0.00 0.00 0.00 0.00 0.00 0.00 0.00 0.00 0.00 0.00 0.00 0.00 0.00 0.00 0.00 0.00 0.00 0.00 0.00 0.01 0.01 0.01 0.01 0.01 0.00 0.00 0.00 0.00
0.01 0.00 0.00 0.00 0.00 0.00 0.00 0.00 0.00 0.00 0.00 0.00 0.00 0.00 0.00 0.00 0.00 0.00 0.00 0.00 0.00 0.00 0.00 0.00 0.00 0.00 0.00 0.00 0.00 0.00 0.00 0.00 0.00 0.00 0.00 0.00 0.01 0.00 0.00 0.00 0.00 0.00 0.00 0.00
0.00 0.00 0.00 0.00 0.00 0.00 0.00 0.00 0.00 0.00 0.00 0.00 0.00 0.00 0.00 0.00 0.00 0.00 0.00 0.00 0.00 0.00 0.00 0.00 0.00 0.00 0.00 0.00 0.00 0.00 0.00 0.00 0.00 0.00 0.00 0.00 0.00 0.00 0.00 0.00 0.00 0.00 0.00 0.00
0.02 0.00 0.00 0.00 0.00 0.00 0.00 0.00 0.01 0.01 0.00 0.00 0.00 0.00 0.00 0.00 0.00 0.00 0.00 0.00 0.00 0.00 0.00 0.00 0.00 0.00 0.00 0.00 0.00 0.00 0.00 0.00 0.00 0.00 0.00 0.00 0.00 0.01 0.00 0.00 0.00 0.00 0.00 0.01
0.02 0.01 0.00 0.00 0.00 0.00 0.00 0.00 0.00 0.00 0.00 0.00 0.00 0.00 0.00 0.00 0.00 0.00 0.00 0.00 0.00 0.00 0.00 0.00 0.00 0.00 0.00 0.00 0.00 0.00 0.00 0.00 0.00 0.00 0.00 0.00 0.01 0.01 0.00 0.00 0.00 0.01 0.01 0.01
0.01 0.00 0.00 0.00 0.00 0.00 0.00 0.00 0.00 0.00 0.00 0.00 0.00 0.00 0.00 0.00 0.00 0.00 0.00 0.00 0.00 0.00 0.00 0.00 0.00 0.00 0.00 0.00 0.00 0.00 0.00 0.00 0.00 0.00 0.00 0.00 0.01 0.01 0.00 0.00 0.01 0.01 0.02 0.03
0.02 0.01 0.00 0.00 0.00 0.00 0.00 0.00 0.00 0.00 0.00 0.00 0.00 0.00 0.00 0.00 0.00 0.00 0.00 0.00 0.00 0.00 0.00 0.00 0.00 0.00 0.00 0.00 0.00 0.00 0.00 0.00 0.01 0.00 0.01 0.01 0.01 0.01 0.01 0.01 0.02 0.03 0.04 0.05
0.02 0.02 0.01 0.00 0.00 0.00 0.00 0.00 0.00 0.00 0.00 0.00 0.00 0.00 0.00 0.00 0.00 0.00 0.00 0.00 0.00 0.00 0.00 0.00 0.00 0.00 0.00 0.00 0.00 0.00 0.01 0.01 0.01 0.01 0.01 0.02 0.02 0.03 0.03 0.05 0.06 0.07 0.08 0.09
0.03 0.03 0.02 0.00 0.00 0.00 0.00 0.00 0.00 0.00 0.00 0.00 0.01 0.00 0.00 0.00 0.00 0.00 0.00 0.00 0.00 0.00 0.00 0.00 0.00 0.00 0.00 0.00 0.00 0.01 0.02 0.03 0.04 0.03 0.03 0.04 0.05 0.06 0.09 0.11 0.12 0.13 0.14 0.14
0.05 0.06 0.05 0.03 0.01 0.01 0.00 0.00 0.00 0.01 0.03 0.02 0.02 0.01 0.00 0.00 0.00 0.00 0.00 0.00 0.00 0.00 0.00 0.00 0.00 0.00 0.00 0.01 0.01 0.02 0.03 0.05 0.04 0.04 0.05 0.06 0.09 0.12 0.16 0.19 0.20 0.20 0.20 0.20
0.07 0.07 0.05 0.03 0.01 0.01 0.01 0.00 0.01 0.02 0.03 0.01 0.01 0.00 0.00 0.00 0.00 0.00 0.00 0.00 0.00 0.00 0.00 0.00 0.00 0.00 0.01 0.01 0.02 0.03 0.05 0.06 0.07 0.09 0.11 0.14 0.18 0.22 0.25 0.26 0.25 0.24 0.23 0.24
0.08 0.07 0.03 0.01 0.00 0.00 0.01 0.00 0.00 0.00 0.00 0.01 0.01 0.01 0.02 0.01 0.00 0.00 0.00 0.00 0.00 0.00 0.00 0.01 0.01 0.01 0.02 0.02 0.03 0.06 0.09 0.12 0.16 0.20 0.23 0.23 0.22 0.22 0.22 0.22 0.22 0.23 0.25 0.27
0.09 0.09 0.04 0.02 0.01 0.00 0.00 0.00 0.00 0.00 0.00 0.00 0.01 0.01 0.01 0.00 0.00 0.00 0.00 0.00 0.01 0.01 0.01 0.01 0.02 0.03 0.04 0.06 0.09 0.14 0.20 0.23 0.25 0.27 0.27 0.25 0.22 0.21 0.21 0.22 0.22 0.23 0.23 0.21
0.08 0.09 0.07 0.04 0.01 0.02 0.01 0.00 0.00 0.00 0.00 0.00 0.00 0.00 0.00 0.00 0.00 0.00 0.00 0.01 0.02 0.02 0.03 0.04 0.05 0.07 0.09 0.13 0.18 0.22 0.24 0.24 0.26 0.28 0.28 0.26 0.24 0.23 0.21 0.20 0.18 0.18 0.16 0.13
0.06 0.07 0.08 0.05 0.04 0.06 0.02 0.00 0.00 0.00 0.00 0.00 0.00 0.00 0.00 0.00 0.00 0.00 0.01 0.02 0.04 0.05 0.07 0.09 0.11 0.12 0.15 0.20 0.24 0.27 0.26 0.26 0.26 0.25 0.23 0.19 0.16 0.15 0.14 0.14 0.13 0.11 0.10 0.08
0.03 0.05 0.07 0.06 0.05 0.03 0.01 0.00 0.00 0.00 0.00 0.00 0.00 0.00 0.00 0.00 0.00 0.01 0.04 0.04 0.05 0.07 0.07 0.08 0.08 0.09 0.13 0.19 0.22 0.23 0.21 0.20 0.17 0.15 0.12 0.09 0.07 0.07 0.08 0.08 0.07 0.06 0.05 0.04
0.02 0.04 0.07 0.07 0.05 0.02 0.00 0.00 0.00 0.00 0.00 0.00 0.00 0.00 0.01 0.05 0.17 0.08 0.09 0.06 0.05 0.04 0.04 0.04 0.04 0.04 0.07 0.10 0.12 0.12 0.12 0.10 0.09 0.07 0.05 0.03 0.02 0.03 0.04 0.04 0.03 0.03 0.02 0.03
0.03 0.05 0.07 0.06 0.04 0.01 0.00 0.00 0.00 0.00 0.00 0.00 0.00 0.01 0.06 0.14 0.20 0.12 0.08 0.06 0.04 0.03 0.03 0.02 0.02 0.04 0.07 0.10 0.11 0.10 0.08 0.05 0.03 0.02 0.01 0.01 0.00 0.01 0.01 0.02 0.02 0.02 0.03 0.03
0.02 0.04 0.05 0.04 0.03 0.01 0.00 0.00 0.00 0.00 0.00 0.00 0.03 0.06 0.11 0.09 0.04 0.03 0.04 0.05 0.03 0.02 0.02 0.02 0.03 0.05 0.10 0.12 0.10 0.06 0.04 0.01 0.00 0.00 0.00 0.00 0.00 0.01 0.01 0.02 0.02 0.03 0.03 0.04
0.01 0.02 0.02 0.02 0.02 0.00 0.00 0.00 0.00 0.00 0.02 0.06 0.14 0.15 0.14 0.12 0.08 0.06 0.05 0.04 0.02 0.02 0.02 0.04 0.05 0.08 0.11 0.09 0.05 0.02 0.01 0.00 0.00 0.00 0.00 0.01 0.01 0.01 0.02 0.02 0.03 0.04 0.04 0.07
0.00 0.00 0.01 0.01 0.00 0.00 0.00 0.00 0.00 0.01 0.05 0.09 0.12 0.13 0.14 0.16 0.12 0.08 0.05 0.03 0.03 0.04 0.05 0.06 0.07 0.09 0.10 0.06 0.02 0.00 0.00 0.00 0.00 0.01 0.01 0.01 0.01 0.02 0.02 0.03 0.04 0.05 0.08 0.19
0.01 0.01 0.01 0.01 0.00 0.00 0.00 0.00 0.01 0.03 0.04 0.03 0.03 0.05 0.11 0.16 0.12 0.07 0.05 0.05 0.06 0.07 0.07 0.08 0.09 0.09 0.07 0.03 0.01 0.00 0.00 0.00 0.01 0.01 0.02 0.02 0.02 0.03 0.03 0.03 0.04 0.07 0.09 0.26
0.00 0.00 0.01 0.00 0.00 0.00 0.00 0.00 0.02 0.05 0.04 0.05 0.07 0.07 0.07 0.09 0.08 0.06 0.08 0.09 0.09 0.10 0.11 0.11 0.09 0.05 0.02 0.01 0.00 0.00 0.00 0.01 0.02 0.03 0.03 0.04 0.04 0.04 0.04 0.05 0.05 0.05 0.07 0.14

GEFSCGP_prec_meanprecacc_150.txt.gz
Total_Precipitation_Accumulation
0.02 0.01 0.01 0.00 0.00 0.00 0.00 0.00 0.00 0.00 0.00 0.00 0.00 0.00 0.00 0.00 0.00 0.00 0.00 0.00 0.00 0.00 0.00 0.00 0.00 0.00 0.00 0.00 0.00 0.00 0.00 0.00 0.00 0.01 0.02 0.02 0.01 0.01 0.01 0.01 0.01 0.01 0.01 0.01
0.04 0.02 0.00 0.00 0.00 0.00 0.00 0.00 0.00 0.00 0.00 0.00 0.00 0.00 0.00 0.00 0.00 0.00 0.00 0.00 0.00 0.00 0.00 0.00 0.00 0.00 0.00 0.00 0.00 0.00 0.00 0.00 0.00 0.00 0.01 0.01 0.01 0.01 0.01 0.01 0.01 0.01 0.01 0.01
0.04 0.01 0.00 0.00 0.00 0.00 0.00 0.00 0.00 0.00 0.00 0.00 0.00 0.00 0.00 0.00 0.00 0.00 0.00 0.00 0.00 0.00 0.00 0.00 0.00 0.00 0.00 0.00 0.00 0.00 0.00 0.00 0.00 0.00 0.00 0.00 0.01 0.01 0.01 0.01 0.01 0.01 0.01 0.01
0.03 0.02 0.01 0.01 0.01 0.01 0.00 0.00 0.00 0.00 0.00 0.00 0.00 0.00 0.00 0.00 0.00 0.00 0.00 0.00 0.00 0.00 0.00 0.00 0.00 0.00 0.00 0.00 0.00 0.00 0.00 0.00 0.00 0.00 0.00 0.01 0.01 0.01 0.01 0.01 0.01 0.01 0.01 0.01
0.04 0.02 0.02 0.02 0.01 0.01 0.01 0.00 0.00 0.00 0.00 0.00 0.00 0.00 0.00 0.00 0.00 0.00 0.00 0.00 0.00 0.00 0.00 0.00 0.00 0.00 0.00 0.00 0.00 0.00 0.00 0.00 0.00 0.00 0.00 0.00 0.01 0.01 0.00 0.00 0.00 0.00 0.00 0.01
0.03 0.02 0.02 0.01 0.01 0.01 0.01 0.02 0.02 0.01 0.02 0.03 0.01 0.00 0.00 0.00 0.00 0.00 0.00 0.00 0.00 0.00 0.00 0.00 0.00 0.00 0.00 0.00 0.00 0.00 0.00 0.00 0.00 0.00 0.00 0.00 0.00 0.00 0.00 0.00 0.00 0.00 0.00 0.01
0.05 0.03 0.02 0.01 0.02 0.02 0.02 0.04 0.07 0.07 0.06 0.04 0.01 0.00 0.00 0.00 0.00 0.00 0.00 0.00 0.00 0.00 0.00 0.00 0.00 0.00 0.00 0.00 0.00 0.00 0.00 0.00 0.00 0.00 0.00 0.00 0.00 0.01 0.01 0.01 0.01 0.01 0.01 0.01
0.05 0.03 0.01 0.01 0.01 0.01 0.02 0.03 0.05 0.05 0.03 0.01 0.00 0.00 0.00 0.00 0.00 0.00 0.00 0.00 0.00 0.00 0.00 0.00 0.00 0.00 0.00 0.00 0.00 0.00 0.00 0.00 0.00 0.00 0.00 0.00 0.01 0.01 0.01 0.01 0.01 0.01 0.01 0.02
0.05 0.03 0.01 0.00 0.00 0.01 0.01 0.01 0.02 0.02 0.02 0.01 0.00 0.00 0.00 0.00 0.00 0.00 0.00 0.00 0.00 0.00 0.00 0.00 0.00 0.00 0.00 0.00 0.00 0.00 0.00 0.00 0.00 0.00 0.00 0.00 0.01 0.01 0.00 0.00 0.01 0.02 0.02 0.03
0.06 0.04 0.01 0.01 0.01 0.01 0.01 0.01 0.02 0.04 0.05 0.02 0.00 0.00 0.00 0.00 0.00 0.00 0.00 0.00 0.00 0.00 0.00 0.00 0.00 0.00 0.00 0.00 0.00 0.00 0.00 0.00 0.01 0.00 0.01 0.01 0.01 0.01 0.01 0.01 0.02 0.03 0.05 0.06
0.06 0.06 0.03 0.02 0.02 0.02 0.02 0.02 0.03 0.04 0.02 0.01 0.01 0.00 0.00 0.00 0.00 0.00 0.00 0.00 0.00 0.00 0.00 0.00 0.00 0.00 0.00 0.00 0.00 0.00 0.01 0.01 0.01 0.01 0.01 0.02 0.02 0.03 0.03 0.05 0.06 0.07 0.08 0.09
0.07 0.08 0.05 0.02 0.01 0.02 0.02 0.03 0.03 0.04 0.03 0.01 0.01 0.00 0.00 0.00 0.00 0.00 0.00 0.00 0.00 0.00 0.00 0.00 0.00 0.00 0.00 0.00 0.00 0.01 0.02 0.03 0.04 0.03 0.03 0.04 0.05 0.06 0.09 0.11 0.12 0.13 0.14 0.15
0.12 0.14 0.12 0.07 0.04 0.03 0.04 0.05 0.05 0.05 0.06 0.03 0.02 0.01 0.00 0.00 0.00 0.00 0.00 0.00 0.00 0.00 0.00 0.00 0.00 0.00 0.00 0.01 0.01 0.02 0.03 0.05 0.04 0.04 0.05 0.06 0.09 0.12 0.16 0.19 0.20 0.20 0.20 0.20
0.12 0.14 0.13 0.09 0.05 0.04 0.04 0.04 0.04 0.06 0.06 0.03 0.01 0.00 0.00 0.00 0.00 0.00 0.00 0.00 0.00 0.00 0.00 0.00 0.00 0.00 0.01 0.01 0.02 0.03 0.05 0.06 0.07 0.09 0.11 0.14 0.18 0.22 0.25 0.26 0.25 0.24 0.23 0.24
0.13 0.12 0.07 0.04 0.02 0.02 0.02 0.02 0.01 0.02 0.03 0.02 0.01 0.01 0.02 0.01 0.00 0.00 0.00 0.00 0.00 0.00 0.00 0.01 0.01 0.01 0.02 0.02 0.03 0.06 0.09 0.12 0.16 0.20 0.23 0.23 0.22 0.22 0.22 0.22 0.22 0.23 0.25 0.27
0.16 0.14 0.06 0.03 0.02 0.02 0.02 0.01 0.01 0.01 0.01 0.00 0.01 0.01 0.01 0.00 0.00 0.00 0.00 0.00 0.01 0.01 0.01 0.01 0.02 0.03 0.04 0.06 0.09 0.14 0.20 0.23 0.25 0.27 0.27 0.25 0.22 0.21 0.21 0.22 0.22 0.23 0.23 0.21
0.14 0.15 0.12 0.06 0.03 0.04 0.04 0.01 0.01 0.00 0.00 0.00 0.00 0.00 0.00 0.00 0.00 0.00 0.00 0.01 0.02 0.02 0.03 0.04 0.05 0.07 0.09 0.13 0.18 0.22 0.24 0.24 0.26 0.28 0.28 0.26 0.24 0.23 0.21 0.20 0.19 0.18 0.16 0.13
0.10 0.11 0.13 0.09 0.06 0.10 0.04 0.01 0.00 0.00 0.00 0.00 0.00 0.00 0.00 0.00 0.00 0.00 0.01 0.02 0.04 0.05 0.07 0.09 0.11 0.12 0.15 0.20 0.24 0.27 0.26 0.26 0.26 0.25 0.23 0.19 0.16 0.15 0.14 0.14 0.13 0.11 0.10 0.08
0.05 0.08 0.13 0.11 0.10 0.06 0.01 0.00 0.00 0.01 0.00 0.00 0.00 0.00 0.00 0.00 0.00 0.01 0.04 0.04 0.05 0.07 0.07 0.08 0.08 0.09 0.13 0.19 0.22 0.23 0.21 0.20 0.17 0.15 0.12 0.09 0.07 0.07 0.08 0.08 0.07 0.06 0.05 0.04
0.03 0.07 0.13 0.12 0.09 0.04 0.01 0.00 0.00 0.00 0.01 0.00 0.00 0.00 0.01 0.05 0.17 0.08 0.09 0.06 0.05 0.04 0.04 0.04 0.04 0.04 0.07 0.10 0.12 0.12 0.12 0.10 0.09 0.07 0.05 0.03 0.02 0.03 0.04 0.04 0.03 0.03 0.02 0.03
0.04 0.09 0.13 0.11 0.07 0.02 0.00 0.00 0.00 0.01 0.01 0.01 0.01 0.01 0.06 0.14 0.20 0.12 0.08 0.06 0.04 0.03 0.03 0.02 0.02 0.04 0.07 0.10 0.11 0.10 0.08 0.05 0.03 0.02 0.01 0.01 0.00 0.01 0.01 0.02 0.02 0.02 0.03 0.03
0.05 0.07 0.08 0.07 0.06 0.02 0.00 0.00 0.00 0.00 0.00 0.01 0.03 0.06 0.11 0.09 0.04 0.03 0.04 0.05 0.03 0.02 0.02 0.02 0.03 0.05 0.10 0.12 0.10 0.06 0.04 0.01 0.00 0.00 0.00 0.00 0.00 0.01 0.01 0.02 0.02 0.03 0.03 0.04
0.03 0.04 0.04 0.04 0.03 0.00 0.00 0.00 0.00 0.00 0.02 0.06 0.14 0.15 0.14 0.12 0.08 0.06 0.05 0.04 0.02 0.02 0.02 0.04 0.05 0.08 0.11 0.09 0.05 0.02 0.01 0.00 0.00 0.00 0.00 0.01 0.01 0.01 0.02 0.02 0.03 0.04 0.04 0.07
0.02 0.02 0.03 0.03 0.01 0.01 0.00 0.00 0.00 0.01 0.05 0.09 0.12 0.13 0.14 0.16 0.12 0.08 0.05 0.03 0.03 0.04 0.05 0.06 0.07 0.09 0.10 0.06 0.02 0.00 0.00 0.00 0.00 0.01 0.01 0.01 0.01 0.02 0.02 0.03 0.04 0.05 0.08 0.19
0.02 0.02 0.02 0.02 0.01 0.01 0.00 0.00 0.01 0.03 0.04 0.03 0.03 0.05 0.11 0.16 0.12 0.07 0.05 0.05 0.06 0.07 0.07 0.08 0.09 0.09 0.07 0.03 0.01 0.00 0.00 0.00 0.01 0.01 0.02 0.02 0.02 0.03 0.03 0.03 0.04 0.07 0.09 0.26
0.01 0.02 0.02 0.01 0.00 0.00 0.00 0.00 0.02 0.05 0.04 0.05 0.07 0.07 0.07 0.09 0.08 0.06 0.08 0.09 0.09 0.10 0.11 0.11 0.09 0.05 0.02 0.01 0.00 0.00 0.00 0.01 0.02 0.03 0.03 0.04 0.04 0.04 0.04 0.05 0.05 0.05 0.07 0.14

GEFSCGP_prec_meanprecacc_156.txt.gz
Total_Precipitation_Accumulation
0.03 0.03 0.02 0.01 0.01 0.00 0.00 0.00 0.00 0.00 0.00 0.00 0.00 0.00 0.00 0.00 0.00 0.00 0.00 0.00 0.00 0.00 0.00 0.00 0.00 0.00 0.00 0.00 0.00 0.00 0.00 0.00 0.01 0.01 0.02 0.02 0.02 0.01 0.02 0.01 0.01 0.02 0.02 0.01
0.06 0.03 0.01 0.00 0.00 0.00 0.01 0.01 0.00 0.00 0.00 0.00 0.00 0.00 0.00 0.00 0.00 0.00 0.00 0.00 0.00 0.00 0.00 0.00 0.00 0.00 0.00 0.00 0.00 0.00 0.00 0.00 0.00 0.00 0.01 0.01 0.01 0.01 0.01 0.01 0.02 0.02 0.02 0.02
0.06 0.02 0.01 0.01 0.01 0.01 0.01 0.01 0.00 0.00 0.00 0.00 0.00 0.00 0.00 0.00 0.00 0.00 0.00 0.00 0.00 0.00 0.00 0.00 0.00 0.00 0.00 0.00 0.00 0.00 0.00 0.00 0.00 0.00 0.00 0.01 0.01 0.01 0.01 0.01 0.02 0.02 0.01 0.01
0.05 0.03 0.02 0.02 0.02 0.01 0.01 0.00 0.00 0.00 0.01 0.01 0.00 0.00 0.00 0.00 0.00 0.00 0.00 0.00 0.00 0.00 0.00 0.00 0.00 0.00 0.00 0.00 0.00 0.00 0.00 0.00 0.00 0.00 0.00 0.01 0.01 0.01 0.01 0.01 0.01 0.01 0.01 0.01
0.06 0.03 0.03 0.03 0.02 0.01 0.01 0.00 0.01 0.01 0.01 0.02 0.01 0.01 0.00 0.00 0.00 0.00 0.00 0.00 0.00 0.00 0.00 0.00 0.00 0.00 0.00 0.00 0.00 0.00 0.00 0.00 0.00 0.00 0.00 0.01 0.01 0.01 0.00 0.00 0.00 0.00 0.01 0.01
0.05 0.03 0.03 0.03 0.02 0.02 0.02 0.03 0.03 0.03 0.04 0.07 0.02 0.01 0.00 0.00 0.00 0.00 0.00 0.00 0.00 0.00 0.00 0.00 0.00 0.00 0.00 0.00 0.00 0.00 0.00 0.00 0.00 0.00 0.00 0.00 0.00 0.00 0.00 0.00 0.01 0.01 0.01 0.01
0.09 0.05 0.04 0.04 0.05 0.05 0.06 0.09 0.12 0.13 0.12 0.07 0.01 0.01 0.00 0.00 0.00 0.00 0.00 0.00 0.00 0.00 0.00 0.00 0.00 0.00 0.00 0.00 0.00 0.00 0.00 0.00 0.00 0.00 0.00 0.00 0.00 0.01 0.01 0.01 0.01 0.01 0.01 0.01
0.10 0.06 0.02 0.02 0.04 0.05 0.05 0.07 0.11 0.10 0.06 0.02 0.00 0.00 0.00 0.00 0.00 0.00 0.00 0.00 0.00 0.00 0.00 0.00 0.00 0.00 0.00 0.00 0.00 0.00 0.00 0.00 0.00 0.00 0.00 0.00 0.01 0.01 0.01 0.01 0.01 0.01 0.02 0.02
0.09 0.05 0.02 0.01 0.01 0.03 0.04 0.04 0.04 0.05 0.04 0.02 0.01 0.00 0.00 0.00 0.00 0.00 0.00 0.00 0.00 0.00 0.00 0.00 0.00 0.00 0.00 0.00 0.00 0.00 0.00 0.00 0.00 0.00 0.00 0.00 0.01 0.01 0.00 0.01 0.01 0.02 0.03 0.03
0.13 0.08 0.03 0.02 0.02 0.03 0.04 0.05 0.06 0.09 0.10 0.05 0.01 0.00 0.00 0.00 0.00 0.00 0.00 0.00 0.00 0.00 0.00 0.00 0.00 0.00 0.00 0.00 0.00 0.00 0.00 0.00 0.01 0.00 0.01 0.01 0.01 0.01 0.01 0.01 0.02 0.03 0.05 0.06
0.12 0.12 0.07 0.04 0.05 0.04 0.04 0.07 0.11 0.12 0.08 0.04 0.02 0.00 0.00 0.00 0.00 0.00 0.00 0.00 0.00 0.00 0.00 0.00 0.00 0.00 0.00 0.00 0.00 0.00 0.01 0.01 0.01 0.01 0.01 0.02 0.02 0.03 0.03 0.05 0.06 0.07 0.08 0.09
0.13 0.15 0.10 0.06 0.04 0.03 0.04 0.06 0.08 0.11 0.09 0.04 0.03 0.01 0.00 0.00 0.00 0.00 0.00 0.00 0.00 0.00 0.00 0.00 0.00 0.00 0.00 0.00 0.00 0.01 0.02 0.03 0.04 0.03 0.03 0.04 0.05 0.06 0.09 0.11 0.12 0.13 0.14 0.15
0.18 0.22 0.19 0.13 0.10 0.08 0.08 0.08 0.09 0.09 0.10 0.07 0.05 0.01 0.00 0.00 0.00 0.00 0.00 0.00 0.00 0.00 0.00 0.00 0.00 0.00 0.00 0.01 0.01 0.02 0.03 0.05 0.04 0.04 0.05 0.06 0.09 0.12 0.16 0.19 0.20 0.20 0.20 0.20
0.20 0.23 0.20 0.15 0.10 0.09 0.09 0.06 0.06 0.09 0.09 0.05 0.02 0.01 0.00 0.00 0.00 0.00 0.00 0.00 0.00 0.00 0.00 0.00 0.00 0.00 0.01 0.01 0.02 0.03 0.05 0.06 0.07 0.09 0.11 0.14 0.18 0.22 0.25 0.26 0.25 0.24 0.23 0.24
0.22 0.20 0.12 0.07 0.04 0.04 0.05 0.04 0.02 0.04 0.04 0.03 0.02 0.01 0.02 0.01 0.00 0.00 0.00 0.00 0.00 0.00 0.00 0.01 0.01 0.01 0.02 0.02 0.03 0.06 0.09 0.12 0.16 0.20 0.23 0.23 0.22 0.22 0.22 0.22 0.22 0.23 0.25 0.27
0.26 0.23 0.12 0.07 0.04 0.04 0.04 0.03 0.02 0.01 0.01 0.01 0.01 0.01 0.01 0.00 0.00 0.00 0.00 0.00 0.01 0.01 0.01 0.01 0.02 0.03 0.04 0.06 0.09 0.14 0.20 0.23 0.25 0.27 0.27 0.25 0.22 0.21 0.21 0.22 0.23 0.23 0.23 0.22
0.23 0.25 0.19 0.11 0.05 0.08 0.09 0.03 0.02 0.01 0.01 0.00 0.00 0.00 0.00 0.00 0.00 0.00 0.00 0.01 0.02 0.02 0.03 0.04 0.05 0.07 0.09 0.13 0.18 0.22 0.24 0.24 0.26 0.28 0.28 0.26 0.24 0.23 0.22 0.20 0.19 0.18 0.17 0.14
0.16 0.18 0.23 0.16 0.12 0.17 0.07 0.02 0.01 0.01 0.01 0.01 0.00 0.00 0.00 0.00 0.00 0.00 0.01 0.02 0.04 0.05 0.07 0.09 0.11 0.12 0.15 0.20 0.24 0.27 0.26 0.26 0.26 0.25 0.23 0.19 0.16 0.15 0.14 0.14 0.13 0.11 0.10 0.09
0.08 0.14 0.22 0.20 0.18 0.12 0.02 0.01 0.01 0.01 0.01 0.01 0.01 0.01 0.00 0.00 0.01 0.01 0.04 0.04 0.05 0.07 0.07 0.08 0.08 0.09 0.13 0.19 0.22 0.23 0.21 0.20 0.17 0.15 0.12 0.09 0.07 0.07 0.08 0.09 0.07 0.06 0.05 0.04
0.05 0.10 0.22 0.21 0.17 0.08 0.02 0.00 0.00 0.01 0.02 0.01 0.01 0.01 0.02 0.06 0.17 0.09 0.09 0.06 0.05 0.04 0.04 0.04 0.04 0.04 0.07 0.10 0.12 0.12 0.12 0.10 0.09 0.07 0.05 0.03 0.02 0.03 0.04 0.04 0.03 0.03 0.03 0.03
0.09 0.15 0.21 0.18 0.13 0.05 0.01 0.00 0.00 0.02 0.03 0.02 0.01 0.02 0.07 0.15 0.21 0.12 0.08 0.06 0.04 0.03 0.03 0.02 0.02 0.04 0.07 0.10 0.11 0.10 0.08 0.05 0.03 0.02 0.01 0.01 0.00 0.01 0.01 0.02 0.02 0.03 0.03 0.03
0.11 0.14 0.15 0.14 0.12 0.05 0.01 0.01 0.01 0.01 0.01 0.02 0.03 0.06 0.11 0.09 0.04 0.03 0.04 0.05 0.03 0.02 0.02 0.02 0.03 0.05 0.10 0.12 0.10 0.06 0.04 0.01 0.00 0.00 0.00 0.00 0.00 0.01 0.01 0.02 0.02 0.03 0.03 0.04
0.07 0.09 0.10 0.09 0.06 0.02 0.02 0.02 0.02 0.01 0.02 0.07 0.15 0.15 0.14 0.13 0.08 0.07 0.05 0.04 0.02 0.02 0.02 0.04 0.05 0.08 0.11 0.09 0.05 0.02 0.01 0.00 0.00 0.00 0.00 0.01 0.01 0.01 0.02 0.02 0.03 0.04 0.04 0.07
0.05 0.05 0.06 0.06 0.03 0.01 0.01 0.01 0.01 0.01 0.05 0.10 0.13 0.14 0.15 0.16 0.12 0.08 0.05 0.03 0.03 0.04 0.05 0.06 0.07 0.09 0.10 0.06 0.02 0.00 0.00 0.00 0.00 0.01 0.01 0.01 0.01 0.02 0.02 0.03 0.04 0.05 0.08 0.19
0.04 0.03 0.03 0.03 0.02 0.01 0.01 0.01 0.01 0.03 0.04 0.03 0.03 0.05 0.12 0.16 0.12 0.07 0.05 0.05 0.06 0.07 0.07 0.08 0.09 0.09 0.07 0.03 0.01 0.00 0.00 0.00 0.01 0.01 0.02 0.02 0.02 0.03 0.03 0.03 0.04 0.07 0.09 0.26
0.02 0.02 0.03 0.02 0.01 0.01 0.01 0.01 0.02 0.06 0.04 0.05 0.07 0.08 0.07 0.09 0.08 0.06 0.08 0.09 0.09 0.10 0.11 0.11 0.09 0.05 0.02 0.01 0.00 0.00 0.00 0.01 0.02 0.03 0.03 0.04 0.04 0.04 0.04 0.05 0.05 0.05 0.08 0.14

GEFSCGP_prec_meanprecacc_162.txt.gz
Total_Precipitation_Accumulation
0.05 0.07 0.05 0.03 0.02 0.01 0.01 0.01 0.00 0.00 0.00 0.00 0.01 0.00 0.00 0.00 0.00 0.00 0.00 0.00 0.00 0.00 0.00 0.00 0.00 0.00 0.00 0.00 0.00 0.00 0.00 0.00 0.01 0.01 0.02 0.02 0.02 0.02 0.02 0.02 0.02 0.02 0.02 0.02
0.07 0.05 0.02 0.01 0.01 0.02 0.02 0.02 0.01 0.00 0.00 0.00 0.00 0.00 0.00 0.00 0.00 0.00 0.00 0.00 0.00 0.00 0.00 0.00 0.00 0.00 0.00 0.00 0.00 0.00 0.00 0.00 0.00 0.00 0.01 0.01 0.01 0.01 0.01 0.02 0.02 0.02 0.02 0.02
0.08 0.03 0.01 0.02 0.02 0.02 0.02 0.01 0.01 0.01 0.01 0.01 0.01 0.00 0.00 0.00 0.00 0.00 0.00 0.00 0.00 0.00 0.00 0.00 0.00 0.00 0.00 0.00 0.00 0.00 0.00 0.00 0.00 0.00 0.01 0.01 0.01 0.01 0.01 0.02 0.02 0.02 0.01 0.01
0.08 0.03 0.03 0.03 0.03 0.02 0.02 0.01 0.01 0.01 0.02 0.02 0.01 0.01 0.00 0.00 0.00 0.00 0.00 0.00 0.00 0.00 0.00 0.00 0.00 0.00 0.00 0.00 0.00 0.00 0.00 0.00 0.00 0.00 0.00 0.01 0.01 0.01 0.01 0.01 0.01 0.01 0.01 0.01
0.10 0.04 0.04 0.04 0.02 0.02 0.02 0.01 0.02 0.03 0.04 0.04 0.02 0.02 0.01 0.00 0.00 0.00 0.00 0.00 0.00 0.00 0.00 0.00 0.00 0.00 0.00 0.00 0.00 0.00 0.00 0.00 0.00 0.00 0.00 0.01 0.01 0.01 0.01 0.00 0.00 0.01 0.01 0.01
0.07 0.04 0.04 0.04 0.02 0.02 0.03 0.04 0.06 0.06 0.09 0.13 0.04 0.02 0.01 0.00 0.00 0.00 0.00 0.00 0.00 0.00 0.00 0.00 0.00 0.00 0.00 0.00 0.00 0.00 0.00 0.00 0.00 0.00 0.00 0.01 0.01 0.01 0.00 0.00 0.01 0.01 0.01 0.01
0.11 0.06 0.05 0.04 0.06 0.06 0.08 0.12 0.19 0.20 0.20 0.13 0.02 0.01 0.01 0.00 0.00 0.00 0.00 0.00 0.00 0.00 0.00 0.00 0.00 0.00 0.00 0.00 0.00 0.00 0.00 0.00 0.00 0.00 0.00 0.01 0.01 0.01 0.01 0.01 0.01 0.01 0.01 0.01
0.13 0.08 0.04 0.03 0.05 0.07 0.07 0.11 0.17 0.16 0.09 0.03 0.01 0.01 0.00 0.00 0.00 0.00 0.00 0.00 0.00 0.00 0.00 0.00 0.00 0.00 0.00 0.00 0.00 0.00 0.00 0.00 0.00 0.00 0.00 0.00 0.01 0.01 0.01 0.01 0.01 0.01 0.02 0.02
0.13 0.07 0.02 0.01 0.01 0.04 0.07 0.06 0.06 0.09 0.07 0.03 0.02 0.01 0.00 0.00 0.00 0.00 0.00 0.00 0.00 0.00 0.00 0.00 0.00 0.00 0.00 0.00 0.00 0.00 0.00 0.00 0.00 0.00 0.00 0.00 0.01 0.01 0.00 0.01 0.01 0.02 0.03 0.03
0.17 0.11 0.04 0.02 0.03 0.04 0.06 0.07 0.09 0.16 0.16 0.08 0.02 0.01 0.00 0.00 0.00 0.00 0.00 0.00 0.00 0.00 0.00 0.00 0.00 0.00 0.00 0.00 0.00 0.00 0.00 0.00 0.01 0.00 0.01 0.01 0.01 0.01 0.01 0.01 0.02 0.03 0.05 0.06
0.16 0.16 0.10 0.07 0.07 0.06 0.06 0.10 0.15 0.17 0.13 0.07 0.04 0.02 0.01 0.00 0.00 0.00 0.00 0.00 0.00 0.00 0.00 0.00 0.00 0.00 0.00 0.00 0.00 0.00 0.01 0.01 0.01 0.01 0.01 0.02 0.02 0.03 0.03 0.05 0.06 0.07 0.08 0.09
0.17 0.20 0.14 0.08 0.06 0.05 0.07 0.08 0.10 0.14 0.12 0.06 0.04 0.02 0.01 0.01 0.00 0.00 0.00 0.00 0.00 0.00 0.00 0.00 0.00 0.00 0.00 0.00 0.00 0.01 0.02 0.03 0.04 0.03 0.03 0.04 0.05 0.06 0.09 0.11 0.12 0.13 0.14 0.15
0.26 0.31 0.26 0.19 0.14 0.12 0.12 0.11 0.11 0.11 0.11 0.08 0.06 0.02 0.00 0.01 0.00 0.00 0.00 0.00 0.00 0.00 0.00 0.00 0.00 0.00 0.00 0.01 0.01 0.02 0.03 0.05 0.04 0.04 0.05 0.06 0.09 0.12 0.16 0.19 0.20 0.20 0.20 0.20
0.28 0.34 0.28 0.22 0.15 0.13 0.13 0.10 0.09 0.11 0.12 0.07 0.03 0.01 0.00 0.00 0.00 0.00 0.00 0.00 0.00 0.00 0.00 0.00 0.00 0.00 0.01 0.01 0.02 0.03 0.05 0.06 0.07 0.09 0.11 0.14 0.18 0.22 0.25 0.26 0.25 0.24 0.23 0.24
0.32 0.30 0.19 0.11 0.06 0.06 0.07 0.06 0.05 0.06 0.05 0.04 0.02 0.01 0.02 0.01 0.00 0.00 0.00 0.00 0.00 0.00 0.00 0.01 0.01 0.01 0.02 0.02 0.03 0.06 0.09 0.12 0.16 0.20 0.23 0.23 0.22 0.22 0.22 0.22 0.22 0.24 0.25 0.27
0.36 0.32 0.18 0.12 0.07 0.06 0.06 0.04 0.04 0.03 0.02 0.01 0.01 0.01 0.01 0.00 0.00 0.00 0.00 0.01 0.01 0.01 0.01 0.01 0.02 0.03 0.04 0.06 0.09 0.14 0.20 0.23 0.25 0.27 0.27 0.25 0.22 0.21 0.21 0.22 0.23 0.23 0.23 0.22
0.35 0.36 0.29 0.17 0.09 0.13 0.13 0.06 0.03 0.02 0.01 0.01 0.01 0.01 0.00 0.00 0.00 0.00 0.00 0.02 0.02 0.03 0.03 0.04 0.05 0.07 0.09 0.13 0.18 0.22 0.24 0.24 0.26 0.28 0.28 0.26 0.24 0.23 0.22 0.20 0.19 0.18 0.17 0.14
0.23 0.26 0.33 0.25 0.19 0.26 0.11 0.02 0.02 0.02 0.02 0.01 0.01 0.01 0.00 0.00 0.00 0.00 0.01 0.03 0.04 0.05 0.08 0.09 0.11 0.12 0.15 0.20 0.24 0.27 0.26 0.26 0.26 0.25 0.23 0.19 0.16 0.15 0.14 0.14 0.13 0.11 0.10 0.09
0.12 0.19 0.31 0.30 0.27 0.18 0.04 0.01 0.02 0.03 0.03 0.02 0.01 0.01 0.00 0.00 0.01 0.02 0.04 0.04 0.06 0.07 0.08 0.08 0.08 0.09 0.13 0.19 0.22 0.23 0.21 0.20 0.17 0.15 0.12 0.09 0.07 0.07 0.08 0.09 0.08 0.06 0.05 0.04
0.09 0.16 0.31 0.31 0.27 0.15 0.04 0.02 0.01 0.03 0.05 0.03 0.01 0.01 0.02 0.06 0.17 0.09 0.09 0.07 0.05 0.04 0.04 0.04 0.04 0.04 0.07 0.10 0.12 0.12 0.12 0.10 0.09 0.07 0.05 0.03 0.02 0.03 0.04 0.04 0.03 0.03 0.03 0.03
0.14 0.23 0.32 0.29 0.22 0.10 0.04 0.02 0.02 0.06 0.07 0.04 0.02 0.02 0.07 0.15 0.21 0.12 0.08 0.06 0.04 0.03 0.03 0.02 0.02 0.04 0.07 0.10 0.11 0.10 0.08 0.05 0.03 0.02 0.01 0.01 0.01 0.01 0.01 0.02 0.02 0.03 0.03 0.03
0.17 0.23 0.24 0.23 0.22 0.09 0.03 0.02 0.04 0.05 0.04 0.03 0.04 0.06 0.12 0.10 0.04 0.03 0.04 0.05 0.03 0.02 0.02 0.03 0.03 0.05 0.10 0.12 0.10 0.06 0.04 0.02 0.01 0.00 0.00 0.00 0.01 0.01 0.01 0.02 0.02 0.03 0.03 0.04
0.13 0.16 0.17 0.16 0.11 0.03 0.02 0.03 0.03 0.04 0.05 0.08 0.16 0.16 0.15 0.13 0.08 0.07 0.05 0.04 0.02 0.02 0.02 0.04 0.05 0.09 0.11 0.09 0.05 0.02 0.01 0.00 0.00 0.00 0.01 0.01 0.01 0.01 0.02 0.02 0.04 0.04 0.04 0.07
0.07 0.08 0.11 0.11 0.06 0.03 0.02 0.02 0.01 0.03 0.07 0.11 0.14 0.15 0.15 0.16 0.12 0.08 0.05 0.03 0.03 0.04 0.05 0.06 0.07 0.09 0.10 0.06 0.02 0.01 0.00 0.00 0.01 0.01 0.01 0.01 0.01 0.02 0.02 0.03 0.04 0.06 0.08 0.19
0.06 0.05 0.06 0.06 0.03 0.03 0.03 0.02 0.02 0.04 0.05 0.04 0.03 0.06 0.12 0.17 0.13 0.07 0.05 0.05 0.06 0.07 0.07 0.08 0.09 0.09 0.07 0.03 0.01 0.00 0.00 0.01 0.01 0.01 0.02 0.02 0.02 0.03 0.04 0.03 0.04 0.07 0.10 0.26
0.04 0.04 0.05 0.05 0.03 0.03 0.03 0.03 0.04 0.07 0.06 0.06 0.08 0.08 0.08 0.10 0.09 0.07 0.09 0.10 0.10 0.10 0.12 0.12 0.09 0.05 0.02 0.01 0.01 0.01 0.01 0.01 0.02 0.03 0.03 0.04 0.04 0.05 0.05 0.06 0.06 0.06 0.08 0.14

GEFSCGP_prec_meanprecacc_168.txt.gz
Total_Precipitation_Accumulation
0.09 0.12 0.09 0.05 0.05 0.03 0.02 0.02 0.01 0.00 0.00 0.01 0.01 0.01 0.00 0.00 0.00 0.00 0.00 0.00 0.00 0.00 0.00 0.00 0.00 0.00 0.00 0.01 0.01 0.01 0.01 0.01 0.01 0.01 0.02 0.02 0.02 0.02 0.02 0.02 0.02 0.02 0.02 0.02
0.13 0.09 0.04 0.02 0.02 0.04 0.04 0.04 0.02 0.01 0.00 0.01 0.01 0.01 0.01 0.00 0.00 0.00 0.00 0.00 0.00 0.00 0.00 0.00 0.00 0.00 0.00 0.01 0.01 0.01 0.01 0.00 0.00 0.00 0.01 0.01 0.01 0.01 0.01 0.02 0.02 0.02 0.02 0.02
0.14 0.06 0.02 0.03 0.05 0.05 0.06 0.04 0.02 0.02 0.01 0.01 0.01 0.01 0.00 0.00 0.00 0.00 0.00 0.00 0.00 0.00 0.00 0.00 0.00 0.00 0.00 0.00 0.00 0.01 0.01 0.00 0.00 0.00 0.01 0.01 0.01 0.01 0.01 0.02 0.02 0.02 0.02 0.02
0.12 0.06 0.04 0.05 0.05 0.05 0.05 0.03 0.02 0.03 0.04 0.05 0.03 0.03 0.00 0.00 0.00 0.00 0.00 0.00 0.00 0.00 0.00 0.00 0.00 0.00 0.00 0.00 0.00 0.01 0.01 0.01 0.00 0.01 0.01 0.01 0.01 0.01 0.01 0.01 0.01 0.01 0.01 0.01
0.13 0.05 0.06 0.06 0.03 0.03 0.03 0.02 0.04 0.05 0.07 0.08 0.05 0.05 0.01 0.00 0.00 0.00 0.00 0.00 0.00 0.00 0.00 0.00 0.00 0.00 0.00 0.00 0.00 0.00 0.01 0.01 0.01 0.00 0.00 0.01 0.01 0.01 0.01 0.00 0.00 0.01 0.01 0.01
0.09 0.05 0.06 0.06 0.03 0.03 0.04 0.06 0.10 0.11 0.15 0.20 0.07 0.05 0.02 0.00 0.00 0.00 0.00 0.00 0.00 0.00 0.00 0.00 0.00 0.00 0.00 0.00 0.00 0.01 0.01 0.01 0.01 0.01 0.00 0.01 0.01 0.01 0.01 0.01 0.01 0.01 0.01 0.01
0.14 0.08 0.06 0.06 0.08 0.09 0.11 0.17 0.27 0.29 0.28 0.18 0.03 0.03 0.02 0.00 0.00 0.00 0.00 0.00 0.00 0.00 0.00 0.00 0.00 0.00 0.00 0.00 0.00 0.00 0.01 0.01 0.01 0.01 0.01 0.01 0.01 0.01 0.01 0.01 0.01 0.01 0.01 0.01
0.16 0.10 0.05 0.04 0.06 0.10 0.11 0.15 0.23 0.23 0.13 0.04 0.01 0.02 0.01 0.00 0.00 0.00 0.00 0.00 0.00 0.00 0.00 0.00 0.00 0.00 0.00 0.00 0.00 0.00 0.00 0.01 0.01 0.01 0.01 0.01 0.01 0.01 0.01 0.01 0.01 0.01 0.02 0.02
0.16 0.09 0.03 0.02 0.01 0.05 0.12 0.11 0.09 0.13 0.11 0.06 0.03 0.02 0.00 0.00 0.00 0.00 0.00 0.00 0.00 0.00 0.00 0.00 0.00 0.00 0.00 0.00 0.00 0.00 0.00 0.00 0.00 0.01 0.01 0.01 0.01 0.01 0.00 0.01 0.01 0.02 0.03 0.03
0.22 0.14 0.05 0.03 0.05 0.06 0.08 0.13 0.15 0.23 0.22 0.12 0.04 0.02 0.01 0.00 0.00 0.00 0.00 0.01 0.00 0.00 0.00 0.00 0.00 0.00 0.00 0.00 0.00 0.00 0.00 0.01 0.01 0.01 0.01 0.01 0.01 0.01 0.01 0.01 0.02 0.03 0.05 0.06
0.23 0.24 0.14 0.09 0.10 0.08 0.08 0.14 0.23 0.26 0.18 0.10 0.05 0.03 0.02 0.01 0.00 0.00 0.00 0.00 0.01 0.00 0.00 0.00 0.00 0.00 0.00 0.00 0.00 0.00 0.01 0.01 0.02 0.02 0.02 0.02 0.03 0.03 0.04 0.05 0.06 0.07 0.08 0.09
0.24 0.31 0.22 0.12 0.08 0.08 0.10 0.11 0.16 0.22 0.19 0.08 0.05 0.03 0.02 0.01 0.01 0.00 0.00 0.00 0.01 0.01 0.00 0.00 0.00 0.00 0.00 0.00 0.00 0.01 0.02 0.03 0.04 0.03 0.03 0.04 0.05 0.07 0.09 0.11 0.12 0.13 0.14 0.15
0.34 0.43 0.37 0.25 0.19 0.16 0.17 0.15 0.15 0.16 0.16 0.13 0.09 0.03 0.01 0.01 0.01 0.01 0.00 0.00 0.00 0.01 0.01 0.00 0.00 0.00 0.00 0.01 0.01 0.02 0.04 0.05 0.05 0.05 0.05 0.06 0.09 0.12 0.16 0.19 0.20 0.20 0.20 0.20
0.40 0.45 0.37 0.28 0.19 0.17 0.18 0.16 0.14 0.16 0.17 0.11 0.05 0.02 0.00 0.00 0.01 0.01 0.00 0.00 0.00 0.00 0.01 0.01 0.01 0.01 0.01 0.01 0.02 0.03 0.05 0.07 0.07 0.09 0.12 0.14 0.18 0.22 0.25 0.26 0.25 0.24 0.23 0.24
0.44 0.41 0.25 0.14 0.07 0.08 0.10 0.09 0.10 0.11 0.10 0.07 0.03 0.02 0.02 0.02 0.00 0.00 0.00 0.00 0.00 0.00 0.01 0.01 0.02 0.02 0.02 0.02 0.03 0.06 0.09 0.13 0.16 0.20 0.23 0.24 0.22 0.22 0.22 0.22 0.23 0.24 0.25 0.27
0.46 0.42 0.25 0.15 0.09 0.08 0.08 0.06 0.05 0.06 0.05 0.04 0.02 0.02 0.01 0.00 0.00 0.00 0.00 0.01 0.01 0.01 0.01 0.02 0.03 0.04 0.04 0.06 0.09 0.14 0.20 0.23 0.25 0.27 0.27 0.25 0.23 0.22 0.22 0.22 0.23 0.24 0.24 0.22
0.42 0.44 0.37 0.23 0.12 0.17 0.18 0.07 0.04 0.03 0.02 0.02 0.02 0.02 0.00 0.00 0.00 0.00 0.00 0.02 0.02 0.03 0.03 0.04 0.06 0.08 0.10 0.13 0.18 0.22 0.24 0.24 0.26 0.28 0.28 0.27 0.25 0.24 0.22 0.21 0.19 0.18 0.17 0.14
0.28 0.32 0.42 0.32 0.24 0.34 0.15 0.03 0.02 0.03 0.03 0.02 0.02 0.01 0.01 0.00 0.00 0.00 0.01 0.03 0.04 0.05 0.08 0.09 0.11 0.12 0.16 0.20 0.24 0.27 0.26 0.26 0.26 0.25 0.23 0.19 0.17 0.16 0.15 0.15 0.14 0.12 0.11 0.09
0.16 0.26 0.40 0.38 0.34 0.22 0.06 0.02 0.02 0.04 0.05 0.03 0.02 0.02 0.01 0.01 0.01 0.02 0.04 0.04 0.06 0.07 0.08 0.08 0.08 0.09 0.13 0.19 0.22 0.23 0.21 0.20 0.17 0.15 0.12 0.09 0.07 0.08 0.09 0.09 0.08 0.07 0.06 0.05
0.11 0.21 0.40 0.41 0.36 0.20 0.06 0.02 0.02 0.05 0.08 0.05 0.03 0.03 0.03 0.07 0.18 0.10 0.09 0.07 0.05 0.04 0.04 0.04 0.04 0.04 0.07 0.10 0.12 0.12 0.12 0.10 0.09 0.07 0.05 0.03 0.02 0.03 0.04 0.04 0.04 0.04 0.04 0.04
0.17 0.28 0.39 0.38 0.31 0.14 0.05 0.02 0.03 0.09 0.12 0.08 0.06 0.06 0.10 0.17 0.22 0.13 0.09 0.07 0.04 0.03 0.03 0.02 0.03 0.04 0.07 0.10 0.11 0.10 0.08 0.05 0.03 0.02 0.01 0.01 0.01 0.01 0.02 0.02 0.02 0.03 0.04 0.04
0.19 0.26 0.28 0.28 0.29 0.13 0.03 0.04 0.06 0.10 0.08 0.07 0.08 0.10 0.16 0.12 0.05 0.04 0.05 0.05 0.03 0.02 0.02 0.03 0.03 0.05 0.10 0.12 0.10 0.06 0.04 0.02 0.01 0.00 0.01 0.01 0.01 0.01 0.02 0.02 0.03 0.03 0.04 0.05
0.14 0.17 0.19 0.19 0.14 0.05 0.03 0.04 0.05 0.06 0.08 0.12 0.19 0.19 0.18 0.15 0.09 0.07 0.06 0.04 0.02 0.02 0.03 0.04 0.05 0.09 0.12 0.09 0.05 0.03 0.01 0.00 0.00 0.01 0.01 0.01 0.01 0.02 0.02 0.03 0.04 0.05 0.05 0.08
0.08 0.10 0.13 0.12 0.07 0.03 0.03 0.02 0.02 0.04 0.08 0.13 0.16 0.18 0.18 0.20 0.14 0.09 0.06 0.04 0.04 0.04 0.05 0.07 0.07 0.09 0.11 0.07 0.02 0.01 0.01 0.01 0.01 0.01 0.01 0.02 0.02 0.02 0.03 0.03 0.04 0.06 0.09 0.20
0.07 0.07 0.08 0.07 0.05 0.04 0.04 0.03 0.03 0.06 0.06 0.05 0.06 0.09 0.16 0.20 0.15 0.09 0.07 0.06 0.07 0.07 0.07 0.08 0.09 0.09 0.08 0.04 0.01 0.01 0.02 0.02 0.02 0.02 0.02 0.03 0.03 0.03 0.04 0.04 0.05 0.08 0.10 0.27
0.06 0.06 0.07 0.06 0.04 0.04 0.04 0.03 0.05 0.08 0.07 0.07 0.09 0.10 0.11 0.13 0.12 0.09 0.10 0.11 0.11 0.11 0.12 0.12 0.10 0.06 0.03 0.02 0.02 0.02 0.02 0.04 0.04 0.04 0.04 0.05 0.05 0.05 0.06 0.07 0.07 0.08 0.10 0.16

GEFSCGP_prec_meanprecacc_174.txt.gz
Total_Precipitation_Accumulation
0.13 0.18 0.15 0.09 0.07 0.06 0.04 0.04 0.02 0.01 0.01 0.02 0.02 0.01 0.00 0.00 0.00 0.00 0.00 0.00 0.00 0.00 0.00 0.00 0.00 0.00 0.01 0.03 0.04 0.03 0.02 0.02 0.02 0.02 0.02 0.02 0.02 0.02 0.02 0.02 0.02 0.02 0.02 0.02
0.18 0.14 0.06 0.03 0.04 0.06 0.06 0.07 0.04 0.02 0.01 0.02 0.02 0.01 0.01 0.00 0.00 0.00 0.00 0.00 0.00 0.00 0.00 0.00 0.00 0.00 0.00 0.02 0.04 0.04 0.03 0.02 0.01 0.01 0.01 0.01 0.01 0.01 0.01 0.02 0.02 0.02 0.02 0.02
0.18 0.08 0.04 0.06 0.08 0.09 0.10 0.08 0.05 0.03 0.03 0.03 0.03 0.02 0.00 0.00 0.00 0.00 0.00 0.00 0.00 0.00 0.00 0.00 0.00 0.00 0.00 0.01 0.02 0.04 0.03 0.02 0.01 0.01 0.01 0.01 0.01 0.01 0.01 0.02 0.02 0.02 0.02 0.02
0.15 0.07 0.06 0.08 0.10 0.09 0.09 0.05 0.04 0.05 0.07 0.08 0.06 0.05 0.01 0.00 0.00 0.00 0.00 0.00 0.00 0.00 0.00 0.00 0.00 0.00 0.00 0.00 0.01 0.03 0.05 0.03 0.02 0.02 0.01 0.01 0.01 0.01 0.01 0.01 0.01 0.01 0.01 0.01
0.16 0.07 0.08 0.09 0.06 0.06 0.06 0.04 0.06 0.08 0.11 0.12 0.08 0.08 0.02 0.00 0.00 0.00 0.00 0.00 0.00 0.00 0.00 0.00 0.00 0.00 0.00 0.00 0.01 0.02 0.05 0.04 0.02 0.02 0.01 0.01 0.01 0.01 0.01 0.00 0.00 0.01 0.01 0.01
0.11 0.07 0.08 0.07 0.04 0.05 0.08 0.10 0.14 0.15 0.21 0.26 0.09 0.06 0.02 0.00 0.00 0.00 0.00 0.00 0.00 0.00 0.00 0.00 0.00 0.00 0.00 0.00 0.00 0.01 0.03 0.05 0.03 0.02 0.02 0.01 0.01 0.01 0.01 0.01 0.01 0.01 0.01 0.01
0.17 0.10 0.08 0.07 0.10 0.12 0.16 0.25 0.38 0.40 0.38 0.23 0.04 0.04 0.02 0.01 0.01 0.00 0.00 0.00 0.00 0.00 0.00 0.00 0.00 0.00 0.00 0.00 0.00 0.01 0.02 0.04 0.04 0.03 0.02 0.02 0.01 0.01 0.01 0.01 0.01 0.01 0.01 0.01
0.20 0.12 0.06 0.06 0.08 0.12 0.13 0.20 0.32 0.31 0.19 0.06 0.01 0.02 0.01 0.01 0.01 0.00 0.00 0.00 0.00 0.00 0.00 0.00 0.00 0.00 0.00 0.00 0.00 0.00 0.01 0.02 0.02 0.03 0.03 0.03 0.02 0.01 0.01 0.01 0.01 0.01 0.02 0.02
0.22 0.12 0.04 0.02 0.03 0.07 0.14 0.15 0.14 0.20 0.16 0.10 0.05 0.02 0.01 0.00 0.00 0.00 0.00 0.00 0.01 0.01 0.00 0.00 0.00 0.00 0.00 0.00 0.00 0.00 0.01 0.01 0.01 0.02 0.03 0.03 0.03 0.02 0.01 0.01 0.01 0.02 0.03 0.03
0.27 0.19 0.07 0.04 0.07 0.09 0.11 0.16 0.21 0.32 0.31 0.17 0.07 0.02 0.01 0.00 0.00 0.00 0.00 0.01 0.02 0.01 0.01 0.00 0.00 0.00 0.00 0.00 0.00 0.00 0.01 0.01 0.01 0.01 0.02 0.02 0.03 0.02 0.01 0.02 0.03 0.04 0.05 0.06
0.27 0.29 0.16 0.11 0.13 0.11 0.11 0.18 0.29 0.35 0.26 0.16 0.08 0.04 0.03 0.01 0.01 0.00 0.00 0.01 0.02 0.01 0.01 0.01 0.01 0.01 0.00 0.00 0.00 0.01 0.01 0.02 0.03 0.02 0.02 0.03 0.04 0.04 0.05 0.05 0.06 0.07 0.08 0.09
0.28 0.36 0.26 0.14 0.09 0.10 0.14 0.15 0.20 0.30 0.27 0.14 0.10 0.04 0.02 0.02 0.01 0.00 0.00 0.01 0.01 0.01 0.01 0.01 0.01 0.01 0.01 0.01 0.01 0.01 0.02 0.04 0.05 0.04 0.04 0.05 0.06 0.07 0.10 0.12 0.13 0.14 0.14 0.15
0.40 0.52 0.44 0.29 0.21 0.18 0.20 0.19 0.18 0.21 0.22 0.19 0.16 0.06 0.01 0.01 0.01 0.01 0.00 0.00 0.00 0.01 0.01 0.01 0.01 0.01 0.01 0.01 0.02 0.03 0.04 0.06 0.05 0.05 0.06 0.07 0.10 0.13 0.17 0.20 0.20 0.20 0.20 0.20
0.52 0.57 0.46 0.34 0.22 0.19 0.20 0.18 0.18 0.22 0.26 0.17 0.08 0.03 0.01 0.01 0.01 0.01 0.00 0.00 0.00 0.00 0.01 0.01 0.01 0.01 0.01 0.02 0.03 0.04 0.06 0.07 0.08 0.10 0.12 0.15 0.19 0.23 0.26 0.26 0.26 0.24 0.24 0.25
0.55 0.52 0.33 0.18 0.11 0.10 0.13 0.12 0.12 0.15 0.15 0.12 0.06 0.04 0.03 0.02 0.01 0.01 0.01 0.01 0.00 0.00 0.01 0.02 0.02 0.02 0.02 0.03 0.04 0.07 0.10 0.13 0.16 0.21 0.24 0.25 0.24 0.23 0.23 0.23 0.23 0.24 0.26 0.27
0.54 0.51 0.30 0.19 0.12 0.12 0.12 0.09 0.08 0.08 0.07 0.06 0.04 0.04 0.03 0.02 0.01 0.00 0.00 0.01 0.01 0.01 0.01 0.02 0.03 0.04 0.05 0.06 0.10 0.15 0.21 0.23 0.25 0.28 0.28 0.26 0.24 0.23 0.23 0.24 0.24 0.24 0.24 0.22
0.48 0.52 0.45 0.28 0.14 0.22 0.23 0.10 0.06 0.06 0.05 0.03 0.04 0.03 0.02 0.01 0.01 0.01 0.01 0.02 0.03 0.03 0.03 0.04 0.06 0.08 0.10 0.14 0.19 0.23 0.25 0.25 0.26 0.28 0.29 0.27 0.25 0.25 0.23 0.22 0.20 0.19 0.18 0.14
0.32 0.37 0.50 0.39 0.29 0.39 0.18 0.04 0.03 0.04 0.05 0.04 0.03 0.02 0.02 0.01 0.01 0.01 0.01 0.03 0.04 0.06 0.08 0.09 0.11 0.12 0.16 0.21 0.25 0.27 0.27 0.27 0.26 0.25 0.23 0.20 0.17 0.16 0.16 0.16 0.15 0.13 0.12 0.10
0.17 0.29 0.48 0.46 0.40 0.25 0.07 0.02 0.02 0.05 0.07 0.05 0.04 0.03 0.02 0.01 0.02 0.02 0.04 0.04 0.06 0.07 0.08 0.08 0.08 0.09 0.13 0.19 0.23 0.23 0.22 0.20 0.18 0.15 0.12 0.09 0.07 0.08 0.09 0.10 0.10 0.08 0.07 0.06
0.12 0.24 0.46 0.49 0.42 0.23 0.07 0.02 0.02 0.06 0.09 0.06 0.05 0.04 0.04 0.07 0.19 0.10 0.10 0.07 0.05 0.04 0.04 0.04 0.04 0.04 0.07 0.10 0.12 0.13 0.13 0.11 0.09 0.07 0.05 0.03 0.02 0.03 0.04 0.04 0.04 0.05 0.05 0.05
0.21 0.34 0.46 0.43 0.36 0.16 0.05 0.03 0.04 0.11 0.13 0.09 0.08 0.07 0.11 0.18 0.23 0.14 0.09 0.07 0.05 0.03 0.03 0.02 0.03 0.04 0.07 0.10 0.11 0.10 0.08 0.06 0.04 0.02 0.02 0.01 0.01 0.01 0.02 0.02 0.03 0.04 0.05 0.06
0.22 0.31 0.32 0.31 0.34 0.15 0.04 0.04 0.07 0.11 0.09 0.08 0.09 0.12 0.17 0.13 0.06 0.04 0.05 0.06 0.04 0.02 0.02 0.03 0.04 0.06 0.10 0.12 0.10 0.07 0.04 0.02 0.01 0.01 0.01 0.01 0.01 0.02 0.02 0.03 0.04 0.04 0.05 0.06
0.16 0.21 0.22 0.21 0.16 0.05 0.04 0.05 0.05 0.07 0.09 0.12 0.20 0.20 0.19 0.16 0.10 0.07 0.06 0.04 0.03 0.02 0.03 0.04 0.06 0.09 0.12 0.10 0.06 0.04 0.02 0.01 0.01 0.02 0.02 0.02 0.02 0.03 0.03 0.04 0.05 0.05 0.06 0.09
0.09 0.11 0.16 0.15 0.08 0.04 0.04 0.03 0.03 0.04 0.09 0.14 0.17 0.19 0.20 0.22 0.16 0.10 0.06 0.04 0.04 0.04 0.06 0.07 0.08 0.10 0.11 0.08 0.03 0.02 0.02 0.01 0.02 0.02 0.03 0.03 0.03 0.04 0.04 0.05 0.05 0.07 0.09 0.20
0.08 0.08 0.10 0.09 0.06 0.05 0.05 0.04 0.04 0.06 0.06 0.05 0.06 0.09 0.17 0.22 0.17 0.10 0.07 0.07 0.07 0.08 0.08 0.09 0.10 0.10 0.08 0.04 0.02 0.02 0.02 0.03 0.03 0.04 0.04 0.04 0.04 0.05 0.06 0.06 0.07 0.10 0.12 0.28
0.07 0.06 0.08 0.07 0.05 0.05 0.05 0.04 0.06 0.09 0.07 0.07 0.09 0.11 0.11 0.15 0.14 0.11 0.11 0.12 0.12 0.12 0.13 0.13 0.10 0.06 0.04 0.03 0.03 0.03 0.03 0.05 0.06 0.06 0.06 0.07 0.07 0.07 0.08 0.09 0.10 0.10 0.12 0.18

GEFSCGP_prec_meanprecacc_180.txt.gz
Total_Precipitation_Accumulation
0.16 0.21 0.18 0.12 0.10 0.07 0.06 0.06 0.05 0.03 0.02 0.03 0.03 0.02 0.01 0.00 0.00 0.00 0.00 0.00 0.00 0.00 0.00 0.00 0.00 0.00 0.01 0.03 0.04 0.04 0.03 0.03 0.03 0.04 0.07 0.08 0.05 0.03 0.03 0.02 0.02 0.03 0.02 0.02
0.21 0.15 0.07 0.05 0.06 0.08 0.08 0.08 0.06 0.04 0.02 0.04 0.04 0.02 0.01 0.01 0.00 0.00 0.00 0.00 0.00 0.00 0.00 0.00 0.00 0.00 0.00 0.02 0.04 0.05 0.04 0.03 0.03 0.03 0.04 0.06 0.04 0.02 0.02 0.02 0.02 0.02 0.02 0.02
0.20 0.09 0.04 0.07 0.10 0.12 0.12 0.10 0.06 0.05 0.04 0.04 0.05 0.03 0.01 0.00 0.00 0.00 0.00 0.00 0.00 0.00 0.00 0.00 0.01 0.00 0.00 0.01 0.02 0.05 0.05 0.03 0.03 0.03 0.03 0.05 0.06 0.03 0.02 0.02 0.02 0.02 0.02 0.02
0.17 0.08 0.07 0.10 0.11 0.12 0.11 0.06 0.05 0.07 0.10 0.11 0.08 0.07 0.01 0.00 0.00 0.00 0.00 0.00 0.00 0.00 0.00 0.01 0.01 0.00 0.00 0.00 0.01 0.04 0.06 0.04 0.03 0.03 0.04 0.04 0.05 0.03 0.02 0.01 0.01 0.01 0.01 0.01
0.18 0.08 0.09 0.11 0.07 0.08 0.08 0.06 0.07 0.10 0.14 0.15 0.10 0.10 0.03 0.00 0.00 0.00 0.00 0.00 0.00 0.00 0.00 0.01 0.00 0.00 0.00 0.00 0.01 0.02 0.06 0.06 0.04 0.04 0.03 0.04 0.04 0.02 0.01 0.01 0.01 0.01 0.01 0.01
0.13 0.08 0.09 0.08 0.05 0.07 0.10 0.13 0.17 0.18 0.26 0.31 0.11 0.07 0.03 0.01 0.00 0.00 0.00 0.00 0.00 0.00 0.01 0.01 0.00 0.00 0.00 0.00 0.00 0.01 0.04 0.07 0.06 0.04 0.04 0.04 0.02 0.01 0.01 0.01 0.01 0.01 0.01 0.01
0.18 0.11 0.09 0.08 0.12 0.13 0.19 0.32 0.48 0.49 0.46 0.27 0.05 0.05 0.03 0.01 0.01 0.00 0.00 0.00 0.00 0.01 0.01 0.00 0.00 0.00 0.00 0.00 0.00 0.01 0.02 0.06 0.07 0.06 0.05 0.04 0.03 0.02 0.01 0.01 0.01 0.01 0.01 0.01
0.23 0.14 0.07 0.07 0.10 0.15 0.16 0.25 0.40 0.39 0.24 0.08 0.02 0.03 0.02 0.01 0.01 0.00 0.00 0.00 0.01 0.01 0.01 0.00 0.00 0.00 0.00 0.00 0.00 0.00 0.01 0.03 0.06 0.08 0.06 0.05 0.04 0.02 0.02 0.01 0.01 0.01 0.02 0.02
0.27 0.15 0.05 0.03 0.04 0.10 0.18 0.19 0.17 0.26 0.21 0.14 0.07 0.04 0.01 0.00 0.00 0.00 0.00 0.00 0.01 0.01 0.00 0.00 0.00 0.00 0.00 0.00 0.00 0.00 0.01 0.01 0.03 0.06 0.09 0.07 0.05 0.03 0.01 0.01 0.02 0.02 0.03 0.03
0.31 0.23 0.09 0.06 0.09 0.11 0.14 0.20 0.28 0.40 0.38 0.21 0.09 0.04 0.03 0.01 0.00 0.00 0.00 0.01 0.02 0.01 0.01 0.00 0.00 0.01 0.01 0.01 0.00 0.00 0.01 0.01 0.02 0.03 0.07 0.10 0.08 0.05 0.03 0.02 0.03 0.04 0.05 0.06
0.30 0.33 0.18 0.14 0.16 0.13 0.13 0.21 0.34 0.41 0.32 0.20 0.11 0.06 0.05 0.03 0.01 0.00 0.00 0.01 0.02 0.02 0.01 0.01 0.01 0.01 0.01 0.01 0.01 0.01 0.01 0.02 0.03 0.03 0.05 0.09 0.13 0.11 0.08 0.07 0.07 0.08 0.09 0.10
0.30 0.40 0.28 0.15 0.10 0.11 0.16 0.18 0.23 0.36 0.32 0.18 0.13 0.06 0.03 0.02 0.02 0.01 0.00 0.01 0.01 0.01 0.01 0.01 0.01 0.01 0.01 0.02 0.01 0.02 0.03 0.04 0.05 0.04 0.05 0.07 0.12 0.15 0.16 0.17 0.15 0.15 0.15 0.15
0.44 0.58 0.49 0.32 0.23 0.20 0.22 0.21 0.21 0.26 0.29 0.24 0.20 0.07 0.01 0.01 0.01 0.01 0.01 0.00 0.00 0.01 0.01 0.01 0.01 0.01 0.01 0.02 0.02 0.03 0.04 0.06 0.05 0.05 0.06 0.08 0.12 0.17 0.22 0.25 0.26 0.24 0.22 0.21
0.59 0.64 0.51 0.38 0.26 0.23 0.23 0.20 0.20 0.28 0.34 0.22 0.11 0.05 0.02 0.01 0.01 0.01 0.01 0.01 0.00 0.00 0.01 0.01 0.01 0.01 0.01 0.02 0.03 0.05 0.06 0.08 0.08 0.10 0.13 0.16 0.20 0.24 0.29 0.30 0.30 0.30 0.28 0.27
0.61 0.59 0.36 0.20 0.12 0.12 0.15 0.13 0.14 0.18 0.19 0.16 0.08 0.05 0.04 0.03 0.02 0.02 0.02 0.01 0.01 0.01 0.01 0.02 0.02 0.02 0.02 0.03 0.05 0.08 0.10 0.14 0.17 0.21 0.24 0.25 0.24 0.24 0.25 0.26 0.27 0.29 0.31 0.31
0.57 0.54 0.33 0.21 0.13 0.13 0.13 0.10 0.09 0.10 0.09 0.07 0.05 0.05 0.04 0.02 0.02 0.01 0.01 0.02 0.02 0.02 0.03 0.03 0.03 0.04 0.05 0.06 0.10 0.15 0.21 0.24 0.26 0.28 0.28 0.27 0.25 0.24 0.24 0.26 0.27 0.28 0.29 0.26
0.51 0.55 0.49 0.30 0.15 0.23 0.25 0.11 0.07 0.07 0.06 0.04 0.05 0.04 0.03 0.02 0.02 0.02 0.02 0.03 0.04 0.04 0.04 0.05 0.06 0.08 0.10 0.14 0.19 0.23 0.26 0.26 0.27 0.29 0.29 0.28 0.26 0.26 0.25 0.24 0.23 0.23 0.22 0.18
0.35 0.42 0.57 0.44 0.31 0.42 0.19 0.05 0.05 0.06 0.06 0.05 0.04 0.03 0.03 0.02 0.02 0.02 0.02 0.04 0.05 0.06 0.08 0.10 0.11 0.13 0.16 0.21 0.25 0.27 0.27 0.27 0.28 0.27 0.24 0.20 0.18 0.17 0.17 0.18 0.18 0.16 0.15 0.14
0.18 0.32 0.56 0.54 0.45 0.27 0.07 0.03 0.04 0.07 0.09 0.07 0.05 0.04 0.03 0.02 0.02 0.03 0.05 0.05 0.06 0.07 0.08 0.08 0.08 0.09 0.14 0.19 0.23 0.23 0.22 0.21 0.19 0.17 0.14 0.11 0.09 0.09 0.10 0.12 0.12 0.11 0.11 0.10
0.13 0.26 0.54 0.56 0.48 0.24 0.07 0.02 0.03 0.07 0.10 0.07 0.06 0.05 0.05 0.08 0.20 0.11 0.10 0.07 0.05 0.04 0.04 0.04 0.04 0.04 0.07 0.10 0.12 0.13 0.13 0.11 0.10 0.09 0.07 0.05 0.04 0.05 0.06 0.06 0.07 0.07 0.08 0.08
0.23 0.38 0.53 0.49 0.42 0.18 0.05 0.03 0.05 0.13 0.15 0.11 0.09 0.09 0.13 0.19 0.24 0.15 0.09 0.07 0.05 0.03 0.03 0.02 0.03 0.04 0.07 0.10 0.11 0.11 0.08 0.06 0.04 0.04 0.03 0.03 0.03 0.04 0.04 0.05 0.06 0.06 0.08 0.09
0.24 0.34 0.36 0.36 0.41 0.19 0.04 0.05 0.09 0.13 0.11 0.09 0.11 0.13 0.18 0.14 0.06 0.05 0.05 0.06 0.04 0.03 0.02 0.03 0.04 0.06 0.10 0.12 0.10 0.07 0.05 0.03 0.02 0.03 0.03 0.03 0.04 0.04 0.04 0.06 0.07 0.08 0.08 0.09
0.17 0.22 0.24 0.24 0.18 0.06 0.05 0.07 0.08 0.09 0.11 0.14 0.21 0.21 0.20 0.17 0.10 0.08 0.06 0.05 0.03 0.03 0.03 0.05 0.06 0.09 0.12 0.10 0.06 0.04 0.02 0.02 0.02 0.03 0.04 0.04 0.05 0.05 0.06 0.07 0.09 0.08 0.08 0.11
0.10 0.12 0.18 0.16 0.09 0.05 0.05 0.04 0.05 0.07 0.11 0.15 0.18 0.20 0.21 0.22 0.16 0.10 0.06 0.05 0.04 0.05 0.07 0.08 0.08 0.10 0.12 0.08 0.04 0.03 0.02 0.02 0.02 0.03 0.04 0.05 0.06 0.07 0.07 0.08 0.08 0.09 0.11 0.23
0.08 0.09 0.11 0.10 0.07 0.06 0.05 0.05 0.05 0.08 0.07 0.06 0.07 0.11 0.19 0.23 0.18 0.10 0.07 0.07 0.08 0.08 0.09 0.10 0.11 0.11 0.09 0.05 0.02 0.02 0.03 0.03 0.04 0.04 0.05 0.06 0.07 0.08 0.09 0.08 0.08 0.11 0.14 0.30
0.07 0.07 0.09 0.07 0.05 0.06 0.05 0.05 0.07 0.10 0.08 0.08 0.10 0.12 0.13 0.16 0.15 0.11 0.12 0.12 0.13 0.13 0.15 0.15 0.12 0.08 0.05 0.04 0.03 0.03 0.04 0.06 0.07 0.07 0.07 0.08 0.09 0.10 0.11 0.12 0.12 0.12 0.14 0.21

GEFSCGP_prec_meanprecacc_186.txt.gz
Total_Precipitation_Accumulation
0.22 0.26 0.22 0.17 0.14 0.10 0.08 0.08 0.06 0.04 0.04 0.05 0.05 0.03 0.01 0.01 0.01 0.01 0.00 0.00 0.00 0.00 0.00 0.00 0.00 0.00 0.01 0.03 0.04 0.04 0.04 0.04 0.04 0.05 0.09 0.11 0.09 0.09 0.09 0.08 0.07 0.08 0.06 0.03
0.25 0.19 0.09 0.07 0.09 0.12 0.11 0.11 0.08 0.05 0.04 0.06 0.05 0.03 0.01 0.01 0.00 0.00 0.00 0.00 0.00 0.00 0.00 0.00 0.00 0.00 0.00 0.02 0.04 0.05 0.04 0.04 0.04 0.03 0.05 0.08 0.08 0.07 0.07 0.07 0.07 0.07 0.05 0.03
0.23 0.11 0.05 0.09 0.13 0.16 0.16 0.13 0.09 0.08 0.07 0.07 0.06 0.04 0.01 0.00 0.00 0.00 0.00 0.00 0.00 0.00 0.00 0.00 0.01 0.01 0.00 0.01 0.03 0.05 0.05 0.04 0.04 0.04 0.05 0.08 0.10 0.08 0.07 0.07 0.07 0.07 0.05 0.04
0.19 0.09 0.08 0.12 0.14 0.15 0.14 0.09 0.08 0.10 0.15 0.16 0.11 0.09 0.02 0.00 0.01 0.01 0.00 0.00 0.00 0.00 0.00 0.01 0.01 0.01 0.00 0.01 0.01 0.04 0.07 0.06 0.05 0.04 0.05 0.07 0.09 0.07 0.06 0.05 0.06 0.05 0.04 0.04
0.21 0.10 0.11 0.12 0.08 0.10 0.11 0.07 0.09 0.12 0.18 0.21 0.14 0.13 0.04 0.01 0.01 0.01 0.00 0.00 0.00 0.00 0.01 0.01 0.01 0.00 0.00 0.00 0.01 0.02 0.07 0.07 0.06 0.05 0.04 0.06 0.07 0.05 0.04 0.04 0.04 0.05 0.04 0.04
0.14 0.10 0.12 0.10 0.06 0.08 0.12 0.15 0.20 0.22 0.31 0.36 0.13 0.10 0.05 0.02 0.02 0.01 0.00 0.00 0.00 0.00 0.01 0.01 0.01 0.01 0.00 0.00 0.01 0.02 0.05 0.08 0.07 0.06 0.05 0.05 0.06 0.05 0.04 0.04 0.03 0.04 0.04 0.04
0.19 0.12 0.10 0.10 0.14 0.15 0.21 0.35 0.53 0.54 0.52 0.31 0.05 0.06 0.04 0.02 0.02 0.01 0.01 0.00 0.00 0.01 0.01 0.01 0.01 0.01 0.01 0.00 0.00 0.01 0.03 0.07 0.08 0.07 0.06 0.05 0.05 0.05 0.03 0.04 0.03 0.03 0.03 0.04
0.24 0.14 0.08 0.08 0.11 0.17 0.19 0.29 0.46 0.44 0.27 0.09 0.03 0.04 0.03 0.02 0.01 0.01 0.00 0.00 0.01 0.01 0.01 0.00 0.00 0.00 0.01 0.01 0.01 0.01 0.02 0.04 0.07 0.09 0.07 0.06 0.06 0.05 0.04 0.03 0.04 0.04 0.04 0.04
0.28 0.16 0.05 0.03 0.04 0.11 0.21 0.22 0.20 0.32 0.25 0.16 0.09 0.05 0.03 0.01 0.00 0.00 0.00 0.01 0.01 0.01 0.00 0.00 0.00 0.00 0.01 0.01 0.01 0.01 0.02 0.03 0.04 0.07 0.10 0.09 0.07 0.06 0.04 0.03 0.03 0.04 0.05 0.06
0.32 0.24 0.09 0.06 0.09 0.11 0.15 0.23 0.31 0.46 0.44 0.25 0.10 0.06 0.04 0.01 0.01 0.00 0.01 0.01 0.02 0.02 0.01 0.01 0.00 0.01 0.01 0.01 0.01 0.02 0.02 0.03 0.03 0.04 0.09 0.12 0.10 0.08 0.06 0.05 0.05 0.06 0.08 0.10
0.30 0.34 0.19 0.15 0.17 0.14 0.15 0.23 0.38 0.46 0.36 0.24 0.13 0.07 0.05 0.03 0.02 0.01 0.01 0.02 0.03 0.03 0.02 0.01 0.01 0.01 0.02 0.02 0.02 0.02 0.03 0.04 0.05 0.05 0.06 0.10 0.14 0.13 0.12 0.11 0.10 0.10 0.11 0.13
0.30 0.42 0.29 0.16 0.11 0.12 0.17 0.19 0.26 0.41 0.36 0.21 0.16 0.07 0.03 0.02 0.02 0.01 0.01 0.01 0.02 0.03 0.03 0.02 0.01 0.01 0.02 0.03 0.03 0.04 0.04 0.06 0.07 0.06 0.07 0.08 0.13 0.18 0.20 0.21 0.20 0.18 0.18 0.18
0.46 0.61 0.51 0.32 0.24 0.21 0.24 0.23 0.24 0.31 0.34 0.27 0.23 0.09 0.01 0.01 0.01 0.01 0.01 0.01 0.01 0.02 0.03 0.03 0.02 0.01 0.03 0.04 0.05 0.06 0.07 0.08 0.09 0.08 0.08 0.10 0.13 0.19 0.25 0.29 0.31 0.30 0.27 0.25
0.63 0.68 0.54 0.39 0.27 0.25 0.25 0.22 0.22 0.32 0.40 0.26 0.13 0.05 0.02 0.02 0.02 0.02 0.02 0.02 0.01 0.01 0.03 0.03 0.02 0.02 0.02 0.04 0.05 0.07 0.09 0.10 0.12 0.14 0.14 0.17 0.21 0.26 0.31 0.33 0.33 0.34 0.33 0.32
0.63 0.62 0.37 0.21 0.12 0.13 0.16 0.15 0.15 0.20 0.22 0.19 0.09 0.05 0.04 0.03 0.03 0.03 0.03 0.03 0.02 0.02 0.03 0.04 0.04 0.03 0.03 0.04 0.06 0.10 0.13 0.16 0.20 0.27 0.27 0.27 0.25 0.26 0.26 0.28 0.29 0.31 0.34 0.36
0.59 0.56 0.34 0.22 0.13 0.14 0.14 0.11 0.09 0.10 0.09 0.08 0.06 0.05 0.04 0.03 0.02 0.02 0.02 0.03 0.03 0.04 0.05 0.05 0.06 0.06 0.06 0.08 0.12 0.18 0.24 0.26 0.29 0.32 0.31 0.28 0.26 0.25 0.26 0.27 0.29 0.30 0.31 0.30
0.54 0.58 0.53 0.32 0.16 0.24 0.26 0.11 0.07 0.07 0.06 0.05 0.06 0.05 0.04 0.03 0.02 0.02 0.02 0.04 0.05 0.05 0.06 0.08 0.09 0.11 0.12 0.15 0.21 0.25 0.28 0.28 0.29 0.31 0.31 0.29 0.27 0.27 0.26 0.25 0.24 0.24 0.23 0.22
0.37 0.45 0.63 0.47 0.34 0.44 0.20 0.05 0.05 0.06 0.06 0.06 0.05 0.04 0.03 0.03 0.02 0.02 0.03 0.05 0.07 0.09 0.11 0.12 0.14 0.15 0.18 0.22 0.26 0.29 0.29 0.30 0.30 0.28 0.26 0.22 0.19 0.18 0.18 0.19 0.19 0.17 0.16 0.17
0.19 0.35 0.62 0.60 0.48 0.28 0.08 0.03 0.04 0.07 0.09 0.07 0.06 0.04 0.03 0.03 0.03 0.03 0.06 0.06 0.08 0.09 0.10 0.10 0.10 0.12 0.16 0.20 0.24 0.24 0.24 0.23 0.22 0.18 0.15 0.12 0.10 0.10 0.11 0.13 0.13 0.12 0.12 0.12
0.14 0.28 0.60 0.63 0.53 0.26 0.07 0.03 0.03 0.08 0.11 0.08 0.07 0.06 0.05 0.09 0.21 0.12 0.11 0.07 0.05 0.05 0.04 0.05 0.05 0.06 0.09 0.12 0.13 0.14 0.15 0.13 0.13 0.11 0.08 0.06 0.05 0.05 0.06 0.07 0.08 0.08 0.10 0.11
0.24 0.42 0.58 0.54 0.47 0.20 0.05 0.03 0.05 0.14 0.16 0.11 0.10 0.09 0.13 0.20 0.26 0.15 0.10 0.07 0.05 0.04 0.03 0.03 0.04 0.06 0.08 0.11 0.11 0.11 0.09 0.08 0.07 0.07 0.06 0.05 0.05 0.04 0.05 0.06 0.07 0.08 0.10 0.12
0.26 0.37 0.39 0.39 0.46 0.21 0.04 0.06 0.10 0.14 0.12 0.11 0.12 0.14 0.19 0.14 0.07 0.05 0.06 0.06 0.04 0.03 0.03 0.03 0.05 0.07 0.12 0.13 0.11 0.07 0.05 0.03 0.04 0.06 0.06 0.06 0.05 0.05 0.05 0.06 0.08 0.10 0.11 0.12
0.18 0.24 0.26 0.26 0.20 0.07 0.05 0.08 0.09 0.10 0.12 0.15 0.23 0.22 0.21 0.18 0.10 0.08 0.07 0.05 0.03 0.03 0.04 0.05 0.07 0.11 0.14 0.11 0.07 0.04 0.03 0.02 0.03 0.05 0.06 0.06 0.06 0.06 0.07 0.09 0.11 0.11 0.11 0.14
0.10 0.13 0.19 0.18 0.10 0.06 0.05 0.05 0.05 0.07 0.12 0.16 0.19 0.20 0.22 0.23 0.17 0.11 0.07 0.05 0.04 0.05 0.07 0.08 0.09 0.11 0.14 0.10 0.05 0.04 0.03 0.02 0.03 0.05 0.06 0.07 0.07 0.08 0.08 0.09 0.10 0.11 0.13 0.25
0.09 0.10 0.12 0.11 0.07 0.06 0.06 0.05 0.06 0.08 0.08 0.07 0.08 0.12 0.19 0.24 0.18 0.11 0.08 0.07 0.08 0.09 0.09 0.10 0.12 0.12 0.11 0.07 0.04 0.03 0.04 0.04 0.06 0.07 0.07 0.09 0.09 0.10 0.11 0.11 0.12 0.14 0.16 0.33
0.07 0.07 0.09 0.08 0.06 0.06 0.06 0.05 0.07 0.11 0.09 0.09 0.11 0.12 0.13 0.17 0.16 0.12 0.12 0.13 0.13 0.14 0.15 0.16 0.13 0.09 0.07 0.07 0.05 0.05 0.05 0.07 0.08 0.09 0.09 0.11 0.12 0.13 0.15 0.16 0.17 0.17 0.18 0.25

GEFSCGP_prec_meanprecacc_192.txt.gz
Total_Precipitation_Accumulation
0.24 0.28 0.24 0.18 0.16 0.13 0.12 0.12 0.10 0.08 0.07 0.08 0.07 0.04 0.02 0.02 0.03 0.03 0.01 0.01 0.01 0.00 0.00 0.00 0.00 0.00 0.01 0.04 0.06 0.06 0.05 0.06 0.07 0.09 0.13 0.16 0.13 0.12 0.12 0.09 0.08 0.09 0.10 0.10
0.27 0.21 0.10 0.08 0.11 0.14 0.14 0.13 0.11 0.08 0.06 0.09 0.08 0.04 0.02 0.02 0.03 0.02 0.02 0.01 0.01 0.00 0.00 0.00 0.01 0.01 0.01 0.02 0.05 0.07 0.06 0.05 0.06 0.07 0.09 0.12 0.11 0.10 0.11 0.10 0.08 0.08 0.08 0.09
0.24 0.12 0.06 0.10 0.15 0.19 0.19 0.15 0.11 0.10 0.08 0.09 0.09 0.06 0.02 0.01 0.02 0.01 0.01 0.01 0.01 0.01 0.00 0.00 0.01 0.01 0.01 0.01 0.03 0.06 0.06 0.05 0.05 0.06 0.09 0.13 0.15 0.13 0.12 0.12 0.10 0.08 0.08 0.08
0.20 0.10 0.09 0.12 0.15 0.16 0.16 0.10 0.09 0.11 0.17 0.19 0.14 0.12 0.03 0.01 0.02 0.02 0.01 0.01 0.00 0.00 0.00 0.01 0.01 0.01 0.01 0.01 0.02 0.05 0.07 0.07 0.06 0.07 0.09 0.11 0.14 0.12 0.10 0.09 0.09 0.08 0.07 0.07
0.22 0.10 0.12 0.12 0.09 0.10 0.12 0.09 0.11 0.13 0.20 0.23 0.16 0.16 0.05 0.01 0.02 0.01 0.01 0.00 0.00 0.00 0.01 0.01 0.01 0.01 0.01 0.01 0.01 0.02 0.07 0.08 0.07 0.07 0.08 0.10 0.12 0.11 0.10 0.09 0.09 0.09 0.08 0.06
0.15 0.10 0.12 0.10 0.07 0.09 0.13 0.17 0.22 0.23 0.33 0.39 0.14 0.11 0.05 0.03 0.02 0.01 0.01 0.00 0.00 0.01 0.01 0.02 0.02 0.02 0.01 0.01 0.01 0.02 0.05 0.08 0.08 0.09 0.09 0.10 0.11 0.11 0.12 0.11 0.09 0.08 0.09 0.07
0.20 0.13 0.10 0.10 0.14 0.15 0.23 0.38 0.58 0.57 0.54 0.31 0.05 0.06 0.05 0.02 0.02 0.01 0.01 0.00 0.00 0.01 0.01 0.01 0.02 0.03 0.03 0.02 0.02 0.02 0.04 0.07 0.09 0.10 0.11 0.10 0.11 0.11 0.11 0.12 0.10 0.07 0.07 0.08
0.25 0.16 0.09 0.08 0.12 0.18 0.19 0.30 0.49 0.48 0.28 0.09 0.03 0.04 0.03 0.02 0.01 0.01 0.00 0.00 0.01 0.01 0.01 0.00 0.00 0.01 0.01 0.02 0.02 0.02 0.03 0.05 0.08 0.10 0.11 0.11 0.11 0.11 0.10 0.11 0.12 0.08 0.07 0.07
0.29 0.17 0.06 0.03 0.04 0.11 0.22 0.23 0.22 0.35 0.27 0.17 0.09 0.05 0.03 0.01 0.00 0.00 0.00 0.01 0.01 0.01 0.01 0.00 0.00 0.00 0.01 0.02 0.02 0.03 0.03 0.04 0.06 0.09 0.13 0.13 0.12 0.12 0.10 0.09 0.11 0.10 0.08 0.08
0.33 0.25 0.10 0.07 0.09 0.12 0.16 0.24 0.34 0.50 0.47 0.26 0.10 0.06 0.04 0.01 0.01 0.00 0.01 0.01 0.02 0.02 0.01 0.01 0.01 0.01 0.01 0.01 0.02 0.03 0.04 0.05 0.06 0.07 0.11 0.15 0.14 0.14 0.13 0.11 0.12 0.12 0.11 0.13
0.31 0.35 0.19 0.15 0.17 0.15 0.15 0.24 0.40 0.50 0.40 0.27 0.15 0.07 0.06 0.03 0.02 0.01 0.01 0.02 0.03 0.03 0.03 0.02 0.01 0.01 0.02 0.02 0.02 0.02 0.04 0.06 0.08 0.08 0.09 0.13 0.19 0.19 0.18 0.18 0.18 0.16 0.16 0.17
0.32 0.43 0.30 0.16 0.11 0.12 0.18 0.20 0.28 0.44 0.38 0.23 0.18 0.08 0.04 0.03 0.02 0.01 0.01 0.01 0.02 0.03 0.04 0.03 0.03 0.03 0.03 0.03 0.03 0.04 0.05 0.07 0.09 0.09 0.10 0.12 0.17 0.23 0.26 0.28 0.27 0.26 0.24 0.22
0.48 0.63 0.53 0.33 0.24 0.22 0.24 0.24 0.25 0.33 0.37 0.30 0.24 0.09 0.02 0.01 0.02 0.02 0.01 0.01 0.01 0.03 0.04 0.04 0.03 0.04 0.05 0.05 0.05 0.07 0.08 0.09 0.10 0.10 0.11 0.14 0.18 0.24 0.31 0.35 0.38 0.37 0.34 0.32
0.66 0.71 0.56 0.40 0.27 0.25 0.26 0.22 0.23 0.34 0.43 0.28 0.14 0.06 0.02 0.02 0.03 0.03 0.02 0.02 0.01 0.02 0.03 0.04 0.04 0.03 0.04 0.06 0.07 0.09 0.11 0.12 0.14 0.17 0.18 0.22 0.28 0.32 0.36 0.39 0.39 0.39 0.40 0.41
0.67 0.65 0.38 0.21 0.13 0.13 0.17 0.15 0.16 0.21 0.23 0.20 0.10 0.06 0.04 0.03 0.04 0.04 0.04 0.03 0.03 0.03 0.03 0.05 0.05 0.04 0.05 0.06 0.08 0.13 0.16 0.20 0.24 0.31 0.32 0.31 0.32 0.35 0.34 0.34 0.34 0.36 0.40 0.43
0.62 0.59 0.35 0.23 0.14 0.14 0.15 0.11 0.10 0.10 0.10 0.08 0.06 0.05 0.04 0.03 0.02 0.02 0.03 0.04 0.04 0.04 0.05 0.06 0.06 0.07 0.07 0.09 0.14 0.21 0.27 0.30 0.33 0.38 0.39 0.35 0.31 0.32 0.36 0.36 0.34 0.35 0.36 0.35
0.57 0.61 0.56 0.34 0.16 0.25 0.27 0.11 0.07 0.08 0.06 0.06 0.06 0.05 0.04 0.03 0.02 0.02 0.02 0.04 0.05 0.05 0.06 0.08 0.09 0.11 0.13 0.17 0.22 0.27 0.31 0.31 0.33 0.37 0.40 0.38 0.33 0.32 0.34 0.35 0.31 0.30 0.28 0.27
0.40 0.48 0.68 0.51 0.35 0.46 0.20 0.05 0.05 0.06 0.06 0.06 0.05 0.04 0.04 0.03 0.02 0.02 0.03 0.05 0.07 0.09 0.11 0.13 0.15 0.16 0.18 0.23 0.27 0.31 0.31 0.32 0.32 0.32 0.32 0.32 0.25 0.22 0.24 0.27 0.25 0.23 0.22 0.23
0.21 0.38 0.69 0.65 0.51 0.29 0.08 0.03 0.04 0.07 0.09 0.07 0.06 0.04 0.03 0.03 0.03 0.04 0.06 0.07 0.08 0.09 0.10 0.10 0.11 0.13 0.17 0.21 0.24 0.25 0.25 0.24 0.23 0.22 0.20 0.21 0.17 0.13 0.15 0.18 0.18 0.17 0.17 0.17
0.16 0.31 0.67 0.69 0.57 0.28 0.08 0.03 0.03 0.08 0.11 0.08 0.07 0.06 0.06 0.09 0.21 0.12 0.11 0.08 0.06 0.05 0.05 0.05 0.06 0.07 0.10 0.12 0.13 0.14 0.15 0.14 0.14 0.13 0.12 0.16 0.13 0.09 0.09 0.11 0.11 0.12 0.13 0.15
0.27 0.46 0.63 0.58 0.51 0.21 0.06 0.03 0.05 0.15 0.17 0.12 0.11 0.10 0.14 0.20 0.26 0.16 0.10 0.08 0.06 0.05 0.04 0.03 0.04 0.07 0.09 0.11 0.12 0.12 0.10 0.08 0.07 0.08 0.09 0.14 0.14 0.08 0.06 0.08 0.09 0.11 0.13 0.16
0.27 0.39 0.41 0.41 0.51 0.22 0.05 0.06 0.11 0.16 0.13 0.12 0.13 0.15 0.20 0.15 0.08 0.06 0.07 0.07 0.05 0.03 0.03 0.04 0.05 0.08 0.12 0.14 0.11 0.08 0.06 0.04 0.04 0.07 0.09 0.12 0.15 0.10 0.07 0.08 0.10 0.11 0.13 0.17
0.19 0.25 0.27 0.27 0.21 0.07 0.06 0.08 0.09 0.11 0.13 0.16 0.25 0.25 0.23 0.19 0.12 0.10 0.08 0.06 0.04 0.03 0.04 0.05 0.07 0.12 0.15 0.12 0.08 0.05 0.04 0.03 0.03 0.06 0.09 0.10 0.13 0.12 0.11 0.11 0.12 0.12 0.13 0.18
0.11 0.13 0.20 0.19 0.10 0.06 0.05 0.05 0.05 0.08 0.13 0.17 0.20 0.22 0.24 0.25 0.18 0.13 0.10 0.07 0.05 0.05 0.07 0.08 0.09 0.13 0.15 0.11 0.06 0.05 0.04 0.04 0.04 0.06 0.09 0.11 0.12 0.14 0.12 0.11 0.12 0.13 0.15 0.28
0.09 0.10 0.13 0.11 0.07 0.07 0.06 0.05 0.06 0.09 0.08 0.07 0.09 0.13 0.21 0.27 0.20 0.12 0.09 0.09 0.09 0.09 0.09 0.11 0.12 0.13 0.12 0.09 0.06 0.05 0.06 0.07 0.07 0.08 0.10 0.12 0.13 0.13 0.15 0.14 0.14 0.17 0.18 0.36
0.08 0.07 0.10 0.08 0.06 0.07 0.06 0.05 0.07 0.11 0.09 0.09 0.12 0.14 0.15 0.18 0.17 0.13 0.13 0.14 0.14 0.14 0.16 0.16 0.14 0.10 0.09 0.08 0.07 0.06 0.07 0.10 0.11 0.11 0.12 0.14 0.16 0.16 0.18 0.19 0.20 0.20 0.21 0.28

GEFSCGP_prec_meanprecacc_198.txt.gz
Total_Precipitation_Accumulation
0.26 0.31 0.27 0.21 0.18 0.15 0.14 0.14 0.13 0.11 0.10 0.11 0.09 0.05 0.02 0.03 0.04 0.03 0.02 0.02 0.01 0.01 0.00 0.00 0.01 0.01 0.02 0.05 0.07 0.08 0.08 0.09 0.11 0.12 0.15 0.17 0.14 0.13 0.13 0.10 0.09 0.10 0.11 0.12
0.29 0.23 0.12 0.10 0.13 0.15 0.16 0.15 0.13 0.11 0.09 0.11 0.09 0.05 0.02 0.02 0.03 0.02 0.02 0.01 0.01 0.01 0.00 0.00 0.01 0.01 0.01 0.03 0.05 0.08 0.08 0.07 0.08 0.09 0.11 0.14 0.13 0.12 0.12 0.12 0.10 0.10 0.10 0.10
0.25 0.13 0.08 0.11 0.16 0.20 0.20 0.17 0.12 0.13 0.11 0.10 0.10 0.07 0.03 0.02 0.02 0.02 0.01 0.01 0.01 0.01 0.01 0.01 0.01 0.01 0.01 0.02 0.04 0.06 0.07 0.07 0.07 0.08 0.11 0.16 0.17 0.15 0.14 0.14 0.13 0.11 0.10 0.09
0.20 0.11 0.11 0.14 0.15 0.16 0.17 0.11 0.10 0.14 0.20 0.21 0.15 0.14 0.03 0.01 0.02 0.02 0.01 0.01 0.00 0.00 0.01 0.01 0.01 0.01 0.01 0.01 0.02 0.05 0.08 0.08 0.07 0.08 0.11 0.14 0.16 0.14 0.12 0.12 0.12 0.12 0.11 0.10
0.23 0.11 0.12 0.14 0.09 0.11 0.12 0.10 0.12 0.15 0.23 0.24 0.16 0.17 0.05 0.02 0.02 0.02 0.01 0.00 0.00 0.00 0.01 0.01 0.01 0.01 0.01 0.01 0.01 0.03 0.07 0.09 0.09 0.09 0.10 0.13 0.14 0.13 0.12 0.12 0.13 0.14 0.13 0.11
0.16 0.10 0.12 0.11 0.07 0.09 0.14 0.19 0.24 0.25 0.36 0.41 0.14 0.11 0.05 0.03 0.02 0.01 0.01 0.00 0.00 0.01 0.01 0.02 0.02 0.02 0.01 0.01 0.02 0.03 0.05 0.09 0.09 0.10 0.11 0.13 0.14 0.14 0.15 0.15 0.15 0.15 0.15 0.14
0.21 0.13 0.11 0.11 0.15 0.16 0.24 0.42 0.61 0.60 0.57 0.33 0.06 0.06 0.05 0.02 0.02 0.01 0.01 0.00 0.00 0.01 0.02 0.02 0.02 0.03 0.03 0.02 0.02 0.03 0.05 0.08 0.10 0.10 0.12 0.12 0.14 0.15 0.16 0.19 0.17 0.16 0.16 0.15
0.26 0.16 0.10 0.09 0.13 0.19 0.21 0.32 0.51 0.50 0.30 0.10 0.03 0.04 0.03 0.03 0.02 0.01 0.01 0.00 0.01 0.01 0.01 0.01 0.01 0.01 0.01 0.02 0.02 0.03 0.04 0.06 0.10 0.12 0.12 0.13 0.14 0.14 0.14 0.17 0.21 0.20 0.17 0.16
0.30 0.17 0.06 0.04 0.05 0.12 0.23 0.24 0.23 0.37 0.29 0.18 0.09 0.06 0.03 0.01 0.01 0.00 0.00 0.01 0.01 0.01 0.01 0.01 0.01 0.01 0.01 0.02 0.02 0.03 0.04 0.06 0.08 0.11 0.15 0.15 0.14 0.14 0.12 0.13 0.17 0.21 0.21 0.19
0.34 0.26 0.10 0.07 0.10 0.12 0.17 0.25 0.35 0.52 0.50 0.28 0.11 0.06 0.05 0.02 0.01 0.01 0.01 0.01 0.02 0.02 0.01 0.01 0.01 0.01 0.02 0.02 0.02 0.03 0.04 0.06 0.08 0.09 0.14 0.18 0.17 0.16 0.15 0.14 0.15 0.19 0.23 0.26
0.33 0.37 0.20 0.15 0.18 0.16 0.16 0.25 0.42 0.52 0.42 0.29 0.15 0.08 0.07 0.04 0.02 0.01 0.01 0.02 0.04 0.04 0.03 0.02 0.01 0.01 0.02 0.03 0.03 0.03 0.04 0.07 0.09 0.10 0.12 0.16 0.22 0.22 0.21 0.21 0.21 0.21 0.24 0.28
0.33 0.45 0.32 0.17 0.12 0.13 0.18 0.21 0.29 0.47 0.40 0.24 0.19 0.08 0.04 0.03 0.02 0.02 0.01 0.01 0.02 0.04 0.04 0.04 0.03 0.03 0.03 0.04 0.04 0.05 0.05 0.08 0.10 0.11 0.13 0.15 0.20 0.27 0.29 0.30 0.30 0.30 0.31 0.32
0.50 0.66 0.56 0.35 0.25 0.23 0.26 0.24 0.26 0.35 0.40 0.32 0.26 0.09 0.02 0.02 0.02 0.02 0.01 0.01 0.01 0.03 0.04 0.04 0.04 0.04 0.05 0.06 0.06 0.07 0.08 0.09 0.11 0.11 0.14 0.17 0.21 0.28 0.35 0.39 0.41 0.40 0.39 0.41
0.69 0.75 0.59 0.42 0.28 0.26 0.27 0.23 0.23 0.35 0.46 0.30 0.14 0.06 0.02 0.02 0.03 0.03 0.02 0.02 0.02 0.02 0.04 0.05 0.04 0.04 0.05 0.07 0.08 0.10 0.12 0.13 0.14 0.17 0.19 0.25 0.31 0.34 0.39 0.43 0.44 0.45 0.46 0.47
0.71 0.70 0.40 0.22 0.13 0.13 0.17 0.16 0.16 0.22 0.23 0.21 0.10 0.06 0.04 0.03 0.04 0.04 0.04 0.03 0.03 0.03 0.04 0.05 0.06 0.05 0.05 0.07 0.09 0.13 0.17 0.21 0.25 0.31 0.33 0.33 0.34 0.38 0.37 0.37 0.39 0.42 0.47 0.49
0.66 0.64 0.37 0.23 0.14 0.14 0.16 0.12 0.10 0.11 0.10 0.09 0.06 0.05 0.04 0.03 0.02 0.02 0.03 0.04 0.04 0.04 0.06 0.06 0.07 0.08 0.07 0.10 0.15 0.22 0.28 0.31 0.35 0.39 0.40 0.37 0.33 0.34 0.38 0.39 0.38 0.40 0.44 0.43
0.62 0.66 0.60 0.36 0.16 0.26 0.28 0.12 0.07 0.08 0.06 0.06 0.06 0.05 0.04 0.03 0.02 0.02 0.02 0.04 0.05 0.06 0.07 0.09 0.10 0.13 0.14 0.17 0.23 0.29 0.32 0.33 0.35 0.39 0.41 0.41 0.35 0.33 0.35 0.37 0.35 0.34 0.34 0.34
0.43 0.51 0.73 0.55 0.37 0.48 0.21 0.05 0.05 0.06 0.06 0.06 0.05 0.04 0.04 0.03 0.02 0.02 0.03 0.05 0.07 0.09 0.11 0.13 0.15 0.17 0.20 0.24 0.28 0.32 0.33 0.34 0.34 0.35 0.34 0.34 0.27 0.24 0.26 0.30 0.28 0.27 0.26 0.29
0.23 0.41 0.75 0.71 0.55 0.30 0.08 0.03 0.04 0.08 0.09 0.08 0.06 0.05 0.03 0.03 0.03 0.04 0.06 0.07 0.08 0.09 0.10 0.10 0.11 0.14 0.18 0.23 0.25 0.25 0.26 0.26 0.25 0.24 0.22 0.23 0.18 0.15 0.18 0.22 0.22 0.21 0.21 0.23
0.17 0.34 0.74 0.76 0.62 0.29 0.08 0.03 0.04 0.08 0.11 0.08 0.07 0.06 0.06 0.09 0.22 0.12 0.11 0.08 0.06 0.05 0.05 0.06 0.06 0.08 0.10 0.13 0.15 0.15 0.16 0.15 0.16 0.15 0.14 0.17 0.15 0.12 0.13 0.16 0.17 0.18 0.19 0.21
0.28 0.50 0.69 0.62 0.55 0.22 0.06 0.03 0.05 0.15 0.17 0.12 0.11 0.10 0.14 0.21 0.26 0.16 0.10 0.08 0.06 0.05 0.04 0.04 0.04 0.07 0.09 0.11 0.12 0.13 0.11 0.09 0.09 0.10 0.11 0.16 0.16 0.11 0.10 0.12 0.13 0.16 0.19 0.21
0.28 0.41 0.42 0.43 0.55 0.24 0.05 0.06 0.12 0.16 0.13 0.12 0.13 0.16 0.21 0.16 0.08 0.07 0.07 0.07 0.05 0.03 0.03 0.04 0.05 0.09 0.13 0.14 0.12 0.09 0.07 0.05 0.05 0.08 0.10 0.13 0.18 0.13 0.10 0.11 0.13 0.14 0.18 0.22
0.20 0.26 0.28 0.28 0.22 0.07 0.06 0.08 0.10 0.11 0.13 0.17 0.25 0.25 0.23 0.19 0.12 0.11 0.09 0.06 0.04 0.04 0.05 0.06 0.07 0.12 0.15 0.12 0.08 0.06 0.05 0.05 0.05 0.07 0.10 0.13 0.17 0.15 0.13 0.14 0.15 0.14 0.16 0.22
0.11 0.13 0.20 0.19 0.10 0.06 0.05 0.05 0.06 0.08 0.13 0.17 0.20 0.23 0.24 0.26 0.19 0.15 0.12 0.09 0.07 0.06 0.08 0.09 0.09 0.13 0.15 0.11 0.06 0.05 0.05 0.05 0.05 0.07 0.10 0.14 0.17 0.18 0.16 0.15 0.15 0.15 0.18 0.31
0.09 0.10 0.13 0.12 0.08 0.07 0.06 0.06 0.06 0.09 0.08 0.07 0.09 0.13 0.22 0.27 0.21 0.13 0.11 0.11 0.12 0.11 0.10 0.11 0.12 0.13 0.13 0.09 0.06 0.05 0.07 0.08 0.08 0.09 0.11 0.16 0.19 0.20 0.20 0.17 0.17 0.20 0.20 0.39
0.08 0.07 0.10 0.09 0.06 0.07 0.06 0.06 0.08 0.11 0.10 0.10 0.12 0.14 0.15 0.18 0.17 0.13 0.14 0.14 0.15 0.17 0.17 0.17 0.14 0.11 0.09 0.09 0.07 0.07 0.08 0.11 0.12 0.13 0.14 0.17 0.21 0.22 0.23 0.22 0.22 0.23 0.24 0.32

GEFSCGP_prec_meanprecacc_204.txt.gz
Total_Precipitation_Accumulation
0.28 0.33 0.28 0.22 0.19 0.16 0.15 0.16 0.14 0.11 0.10 0.11 0.09 0.06 0.02 0.03 0.04 0.03 0.02 0.03 0.02 0.01 0.00 0.01 0.01 0.02 0.03 0.06 0.08 0.09 0.10 0.15 0.17 0.18 0.22 0.24 0.20 0.17 0.16 0.13 0.11 0.11 0.12 0.12
0.30 0.24 0.12 0.11 0.14 0.18 0.19 0.17 0.14 0.11 0.09 0.12 0.10 0.06 0.03 0.03 0.03 0.03 0.03 0.02 0.02 0.01 0.00 0.00 0.01 0.02 0.02 0.03 0.06 0.09 0.09 0.11 0.16 0.16 0.17 0.20 0.18 0.16 0.16 0.14 0.12 0.11 0.11 0.11
0.26 0.14 0.09 0.12 0.16 0.21 0.23 0.20 0.15 0.15 0.13 0.12 0.11 0.08 0.03 0.02 0.03 0.03 0.02 0.02 0.02 0.01 0.01 0.01 0.01 0.01 0.02 0.02 0.04 0.07 0.08 0.08 0.11 0.16 0.20 0.23 0.25 0.21 0.19 0.18 0.14 0.12 0.11 0.11
0.21 0.11 0.12 0.15 0.16 0.17 0.18 0.14 0.14 0.17 0.25 0.24 0.17 0.15 0.05 0.02 0.03 0.03 0.02 0.02 0.01 0.01 0.01 0.01 0.01 0.01 0.01 0.01 0.03 0.06 0.09 0.09 0.09 0.13 0.20 0.23 0.24 0.22 0.17 0.14 0.14 0.13 0.12 0.11
0.24 0.11 0.13 0.14 0.10 0.11 0.13 0.11 0.15 0.19 0.29 0.28 0.18 0.18 0.06 0.02 0.03 0.02 0.01 0.01 0.01 0.01 0.01 0.01 0.01 0.01 0.01 0.01 0.02 0.03 0.08 0.10 0.09 0.10 0.14 0.19 0.22 0.21 0.20 0.18 0.16 0.16 0.16 0.13
0.17 0.11 0.13 0.12 0.07 0.09 0.15 0.21 0.27 0.30 0.41 0.44 0.16 0.13 0.06 0.03 0.03 0.02 0.01 0.01 0.01 0.02 0.02 0.02 0.02 0.02 0.02 0.02 0.02 0.04 0.06 0.09 0.10 0.11 0.13 0.17 0.19 0.21 0.23 0.23 0.21 0.19 0.18 0.17
0.23 0.14 0.11 0.11 0.15 0.17 0.27 0.45 0.64 0.64 0.60 0.34 0.06 0.07 0.06 0.03 0.03 0.02 0.01 0.01 0.01 0.02 0.03 0.02 0.02 0.03 0.03 0.02 0.03 0.04 0.06 0.09 0.11 0.11 0.13 0.14 0.17 0.19 0.20 0.24 0.23 0.21 0.21 0.20
0.28 0.18 0.10 0.09 0.13 0.20 0.24 0.36 0.53 0.52 0.31 0.10 0.03 0.05 0.04 0.04 0.02 0.01 0.01 0.01 0.01 0.02 0.02 0.02 0.02 0.01 0.02 0.02 0.03 0.04 0.05 0.07 0.11 0.13 0.14 0.14 0.16 0.19 0.18 0.20 0.25 0.24 0.22 0.22
0.31 0.18 0.07 0.05 0.06 0.14 0.25 0.25 0.24 0.38 0.30 0.18 0.10 0.06 0.04 0.02 0.01 0.01 0.01 0.01 0.02 0.02 0.02 0.02 0.02 0.02 0.02 0.02 0.02 0.04 0.06 0.07 0.09 0.12 0.16 0.16 0.16 0.17 0.16 0.16 0.21 0.25 0.24 0.23
0.36 0.27 0.11 0.08 0.11 0.13 0.17 0.26 0.35 0.54 0.52 0.28 0.11 0.06 0.05 0.02 0.01 0.01 0.01 0.02 0.03 0.03 0.02 0.02 0.02 0.02 0.02 0.02 0.02 0.04 0.07 0.07 0.08 0.10 0.14 0.19 0.19 0.19 0.18 0.17 0.19 0.22 0.25 0.28
0.35 0.39 0.22 0.16 0.19 0.16 0.16 0.25 0.43 0.53 0.43 0.30 0.16 0.08 0.07 0.04 0.02 0.01 0.01 0.02 0.05 0.05 0.04 0.04 0.02 0.02 0.03 0.03 0.03 0.04 0.08 0.09 0.10 0.11 0.12 0.16 0.22 0.24 0.25 0.25 0.24 0.25 0.28 0.31
0.35 0.48 0.34 0.17 0.12 0.13 0.18 0.21 0.30 0.48 0.41 0.25 0.20 0.08 0.04 0.03 0.02 0.02 0.01 0.02 0.03 0.04 0.05 0.06 0.04 0.03 0.04 0.04 0.05 0.06 0.07 0.10 0.12 0.12 0.14 0.15 0.21 0.27 0.31 0.33 0.34 0.35 0.36 0.36
0.53 0.71 0.59 0.36 0.26 0.23 0.26 0.25 0.26 0.36 0.42 0.33 0.27 0.10 0.02 0.02 0.02 0.02 0.01 0.01 0.02 0.03 0.04 0.05 0.06 0.05 0.06 0.06 0.07 0.08 0.09 0.10 0.12 0.12 0.15 0.18 0.22 0.28 0.36 0.40 0.43 0.42 0.43 0.45
0.73 0.81 0.62 0.43 0.28 0.27 0.27 0.23 0.23 0.36 0.49 0.31 0.15 0.06 0.02 0.02 0.03 0.03 0.02 0.02 0.02 0.02 0.04 0.05 0.05 0.06 0.06 0.08 0.08 0.11 0.13 0.14 0.15 0.18 0.20 0.26 0.33 0.36 0.41 0.45 0.46 0.47 0.48 0.50
0.76 0.75 0.42 0.23 0.14 0.14 0.18 0.16 0.17 0.22 0.24 0.22 0.10 0.06 0.04 0.03 0.04 0.04 0.04 0.03 0.03 0.03 0.04 0.06 0.06 0.06 0.07 0.09 0.10 0.14 0.17 0.21 0.25 0.31 0.34 0.34 0.35 0.39 0.39 0.40 0.43 0.46 0.50 0.52
0.71 0.69 0.40 0.25 0.15 0.15 0.16 0.12 0.10 0.11 0.10 0.09 0.06 0.06 0.04 0.03 0.02 0.02 0.03 0.04 0.04 0.05 0.06 0.07 0.08 0.08 0.08 0.12 0.17 0.23 0.29 0.32 0.35 0.40 0.41 0.39 0.36 0.36 0.40 0.40 0.40 0.43 0.47 0.47
0.67 0.70 0.64 0.38 0.17 0.27 0.29 0.12 0.07 0.08 0.06 0.06 0.06 0.05 0.04 0.03 0.02 0.02 0.02 0.04 0.05 0.06 0.07 0.09 0.10 0.13 0.14 0.18 0.25 0.31 0.35 0.36 0.37 0.41 0.44 0.44 0.40 0.35 0.37 0.39 0.36 0.36 0.36 0.37
0.47 0.56 0.79 0.59 0.39 0.50 0.21 0.05 0.05 0.06 0.06 0.06 0.05 0.04 0.04 0.03 0.02 0.02 0.03 0.06 0.07 0.09 0.11 0.13 0.15 0.17 0.20 0.25 0.29 0.34 0.36 0.38 0.38 0.38 0.38 0.39 0.34 0.28 0.28 0.32 0.30 0.28 0.28 0.32
0.25 0.45 0.82 0.77 0.58 0.31 0.08 0.03 0.04 0.08 0.09 0.08 0.06 0.05 0.04 0.03 0.03 0.04 0.06 0.07 0.08 0.09 0.10 0.10 0.11 0.14 0.18 0.23 0.26 0.27 0.28 0.30 0.29 0.27 0.24 0.26 0.22 0.20 0.22 0.26 0.24 0.23 0.23 0.26
0.19 0.38 0.81 0.83 0.67 0.30 0.08 0.03 0.04 0.09 0.12 0.08 0.07 0.07 0.06 0.09 0.22 0.12 0.11 0.08 0.06 0.05 0.05 0.06 0.06 0.08 0.10 0.14 0.16 0.16 0.18 0.19 0.20 0.19 0.17 0.20 0.17 0.15 0.17 0.22 0.21 0.22 0.22 0.25
0.31 0.54 0.75 0.67 0.59 0.23 0.06 0.03 0.05 0.16 0.17 0.12 0.11 0.10 0.14 0.21 0.27 0.16 0.10 0.08 0.06 0.05 0.04 0.04 0.05 0.07 0.10 0.12 0.13 0.14 0.12 0.12 0.12 0.13 0.14 0.19 0.19 0.15 0.14 0.17 0.20 0.21 0.23 0.26
0.29 0.42 0.45 0.46 0.60 0.26 0.05 0.06 0.12 0.17 0.13 0.12 0.14 0.16 0.21 0.16 0.08 0.07 0.07 0.07 0.05 0.04 0.04 0.04 0.06 0.09 0.14 0.16 0.12 0.09 0.08 0.07 0.08 0.11 0.13 0.18 0.23 0.18 0.15 0.16 0.18 0.19 0.21 0.26
0.21 0.27 0.29 0.29 0.22 0.08 0.06 0.09 0.10 0.11 0.13 0.17 0.25 0.25 0.23 0.20 0.13 0.11 0.09 0.06 0.05 0.05 0.06 0.07 0.08 0.13 0.17 0.13 0.08 0.07 0.07 0.06 0.08 0.10 0.14 0.18 0.22 0.19 0.17 0.19 0.19 0.18 0.20 0.26
0.13 0.15 0.22 0.21 0.11 0.06 0.06 0.05 0.06 0.08 0.13 0.17 0.21 0.23 0.25 0.26 0.19 0.15 0.12 0.09 0.07 0.07 0.08 0.09 0.10 0.13 0.15 0.11 0.06 0.06 0.06 0.06 0.07 0.10 0.14 0.19 0.21 0.21 0.20 0.19 0.19 0.19 0.22 0.36
0.11 0.12 0.15 0.14 0.08 0.08 0.07 0.06 0.06 0.09 0.09 0.08 0.09 0.13 0.22 0.27 0.21 0.13 0.11 0.11 0.12 0.12 0.12 0.12 0.13 0.14 0.13 0.09 0.06 0.06 0.07 0.09 0.10 0.11 0.15 0.20 0.23 0.23 0.24 0.21 0.21 0.23 0.25 0.45
0.08 0.08 0.11 0.09 0.07 0.08 0.07 0.06 0.08 0.12 0.10 0.10 0.12 0.14 0.15 0.18 0.17 0.13 0.14 0.15 0.16 0.18 0.19 0.19 0.16 0.12 0.10 0.09 0.07 0.07 0.09 0.12 0.14 0.15 0.17 0.21 0.25 0.26 0.26 0.26 0.26 0.26 0.28 0.36

GEFSCGP_prec_meanprecacc_210.txt.gz
Total_Precipitation_Accumulation
0.31 0.35 0.30 0.23 0.20 0.17 0.15 0.16 0.14 0.11 0.10 0.11 0.09 0.06 0.02 0.03 0.04 0.03 0.02 0.03 0.02 0.01 0.01 0.01 0.01 0.02 0.03 0.06 0.08 0.10 0.10 0.16 0.18 0.18 0.23 0.27 0.24 0.24 0.26 0.24 0.20 0.20 0.18 0.18
0.33 0.26 0.13 0.11 0.15 0.19 0.20 0.18 0.14 0.11 0.10 0.12 0.10 0.06 0.03 0.03 0.03 0.03 0.03 0.02 0.02 0.01 0.01 0.02 0.03 0.03 0.02 0.04 0.06 0.09 0.09 0.12 0.17 0.17 0.18 0.22 0.22 0.22 0.23 0.24 0.24 0.23 0.21 0.18
0.28 0.15 0.09 0.13 0.18 0.22 0.24 0.21 0.15 0.15 0.13 0.13 0.12 0.08 0.03 0.02 0.03 0.03 0.02 0.02 0.02 0.01 0.01 0.02 0.03 0.03 0.03 0.04 0.05 0.08 0.09 0.09 0.13 0.18 0.21 0.25 0.29 0.27 0.27 0.27 0.25 0.25 0.24 0.20
0.24 0.12 0.13 0.16 0.17 0.18 0.19 0.14 0.14 0.18 0.26 0.26 0.18 0.17 0.05 0.03 0.03 0.03 0.02 0.02 0.01 0.01 0.01 0.01 0.02 0.02 0.03 0.04 0.05 0.08 0.11 0.10 0.10 0.14 0.22 0.25 0.28 0.26 0.22 0.21 0.23 0.24 0.24 0.23
0.27 0.13 0.14 0.16 0.11 0.12 0.14 0.12 0.16 0.21 0.30 0.30 0.20 0.20 0.07 0.03 0.04 0.03 0.01 0.01 0.01 0.01 0.01 0.02 0.01 0.02 0.02 0.02 0.03 0.06 0.11 0.12 0.11 0.12 0.15 0.22 0.24 0.23 0.24 0.25 0.24 0.26 0.26 0.24
0.19 0.13 0.14 0.13 0.09 0.11 0.17 0.23 0.29 0.32 0.44 0.46 0.16 0.14 0.07 0.04 0.04 0.02 0.01 0.01 0.01 0.02 0.02 0.03 0.03 0.03 0.02 0.03 0.04 0.05 0.08 0.11 0.12 0.14 0.15 0.19 0.22 0.23 0.26 0.28 0.29 0.27 0.27 0.26
0.25 0.16 0.12 0.12 0.18 0.19 0.29 0.48 0.67 0.67 0.62 0.36 0.07 0.08 0.07 0.04 0.03 0.02 0.01 0.01 0.01 0.02 0.03 0.03 0.03 0.04 0.03 0.03 0.04 0.05 0.07 0.10 0.12 0.13 0.15 0.16 0.20 0.23 0.24 0.28 0.29 0.28 0.28 0.29
0.30 0.20 0.11 0.10 0.15 0.22 0.26 0.38 0.55 0.54 0.33 0.12 0.05 0.06 0.05 0.04 0.03 0.01 0.01 0.01 0.02 0.02 0.03 0.03 0.03 0.02 0.03 0.03 0.03 0.05 0.06 0.08 0.11 0.13 0.15 0.16 0.18 0.21 0.21 0.25 0.30 0.30 0.28 0.28
0.33 0.20 0.08 0.06 0.07 0.15 0.27 0.27 0.25 0.40 0.31 0.20 0.11 0.07 0.05 0.03 0.02 0.01 0.01 0.02 0.02 0.03 0.03 0.03 0.02 0.02 0.02 0.03 0.03 0.06 0.07 0.08 0.09 0.13 0.16 0.18 0.18 0.19 0.19 0.20 0.26 0.30 0.29 0.27
0.38 0.30 0.12 0.08 0.12 0.15 0.19 0.27 0.37 0.57 0.54 0.30 0.12 0.07 0.07 0.03 0.02 0.02 0.02 0.03 0.04 0.04 0.04 0.03 0.03 0.02 0.03 0.03 0.03 0.06 0.09 0.09 0.10 0.11 0.15 0.20 0.20 0.21 0.20 0.20 0.22 0.27 0.30 0.31
0.37 0.43 0.24 0.17 0.19 0.17 0.18 0.27 0.45 0.56 0.45 0.31 0.17 0.09 0.08 0.06 0.04 0.03 0.02 0.03 0.05 0.06 0.06 0.05 0.03 0.03 0.03 0.04 0.05 0.06 0.10 0.11 0.12 0.13 0.14 0.17 0.23 0.25 0.27 0.28 0.28 0.29 0.32 0.37
0.37 0.52 0.37 0.18 0.13 0.13 0.19 0.23 0.32 0.51 0.44 0.26 0.21 0.10 0.05 0.05 0.04 0.03 0.02 0.03 0.04 0.05 0.06 0.06 0.05 0.04 0.05 0.05 0.07 0.09 0.12 0.12 0.14 0.15 0.16 0.17 0.22 0.29 0.33 0.36 0.36 0.37 0.39 0.41
0.56 0.76 0.63 0.38 0.27 0.24 0.27 0.26 0.28 0.38 0.46 0.36 0.29 0.11 0.02 0.03 0.04 0.03 0.02 0.02 0.02 0.03 0.05 0.05 0.06 0.06 0.07 0.07 0.08 0.13 0.16 0.15 0.15 0.16 0.17 0.21 0.24 0.31 0.38 0.43 0.45 0.45 0.45 0.48
0.77 0.85 0.65 0.45 0.30 0.28 0.29 0.24 0.25 0.40 0.55 0.35 0.17 0.07 0.02 0.02 0.03 0.04 0.03 0.03 0.02 0.02 0.04 0.05 0.05 0.06 0.07 0.08 0.09 0.14 0.17 0.17 0.20 0.23 0.24 0.28 0.35 0.39 0.44 0.48 0.49 0.49 0.50 0.52
0.80 0.80 0.44 0.24 0.14 0.15 0.18 0.16 0.17 0.24 0.26 0.25 0.11 0.06 0.05 0.04 0.04 0.05 0.04 0.04 0.03 0.03 0.04 0.06 0.06 0.06 0.07 0.09 0.11 0.15 0.20 0.24 0.29 0.36 0.38 0.38 0.38 0.42 0.42 0.44 0.46 0.49 0.52 0.55
0.75 0.74 0.43 0.27 0.16 0.16 0.17 0.12 0.10 0.11 0.11 0.10 0.07 0.07 0.05 0.03 0.02 0.02 0.03 0.04 0.04 0.05 0.06 0.07 0.08 0.08 0.08 0.12 0.17 0.24 0.30 0.34 0.38 0.43 0.46 0.44 0.39 0.39 0.43 0.43 0.43 0.47 0.51 0.50
0.72 0.75 0.69 0.41 0.18 0.29 0.31 0.12 0.08 0.08 0.07 0.06 0.07 0.06 0.04 0.03 0.03 0.02 0.02 0.04 0.05 0.06 0.07 0.09 0.10 0.13 0.14 0.18 0.25 0.32 0.36 0.38 0.39 0.42 0.46 0.48 0.44 0.40 0.41 0.42 0.39 0.39 0.40 0.41
0.52 0.61 0.85 0.64 0.43 0.54 0.22 0.05 0.05 0.07 0.07 0.06 0.06 0.05 0.04 0.03 0.03 0.02 0.03 0.06 0.07 0.09 0.11 0.13 0.15 0.17 0.20 0.25 0.29 0.34 0.37 0.39 0.40 0.40 0.39 0.40 0.37 0.32 0.32 0.36 0.33 0.32 0.33 0.36
0.27 0.49 0.89 0.83 0.63 0.32 0.08 0.03 0.05 0.08 0.09 0.08 0.07 0.05 0.04 0.04 0.03 0.04 0.06 0.07 0.08 0.09 0.10 0.10 0.11 0.14 0.18 0.23 0.27 0.28 0.29 0.31 0.31 0.30 0.28 0.28 0.25 0.23 0.26 0.31 0.28 0.27 0.27 0.30
0.22 0.43 0.90 0.91 0.73 0.32 0.08 0.03 0.04 0.09 0.12 0.08 0.08 0.07 0.06 0.10 0.22 0.12 0.11 0.08 0.06 0.05 0.05 0.06 0.06 0.08 0.10 0.14 0.17 0.17 0.18 0.19 0.21 0.21 0.20 0.25 0.21 0.18 0.21 0.26 0.25 0.25 0.26 0.29
0.35 0.62 0.84 0.74 0.65 0.25 0.06 0.03 0.06 0.16 0.17 0.12 0.11 0.10 0.14 0.21 0.27 0.16 0.10 0.08 0.06 0.05 0.04 0.04 0.05 0.07 0.11 0.13 0.14 0.14 0.12 0.13 0.14 0.15 0.17 0.23 0.24 0.20 0.19 0.22 0.26 0.25 0.26 0.29
0.32 0.47 0.50 0.51 0.66 0.29 0.05 0.07 0.12 0.17 0.13 0.12 0.14 0.16 0.21 0.16 0.08 0.07 0.07 0.07 0.05 0.04 0.04 0.04 0.06 0.10 0.15 0.17 0.13 0.10 0.08 0.08 0.10 0.13 0.16 0.21 0.28 0.24 0.22 0.23 0.25 0.25 0.26 0.30
0.24 0.31 0.34 0.33 0.26 0.09 0.06 0.09 0.10 0.11 0.13 0.17 0.25 0.25 0.24 0.20 0.13 0.11 0.09 0.07 0.05 0.05 0.06 0.07 0.09 0.14 0.17 0.13 0.09 0.08 0.07 0.08 0.09 0.12 0.16 0.21 0.26 0.25 0.24 0.24 0.26 0.26 0.27 0.32
0.14 0.16 0.24 0.23 0.13 0.08 0.06 0.06 0.06 0.09 0.14 0.18 0.21 0.23 0.25 0.26 0.20 0.15 0.12 0.10 0.07 0.07 0.09 0.10 0.10 0.14 0.16 0.12 0.07 0.06 0.07 0.07 0.09 0.12 0.17 0.21 0.24 0.25 0.25 0.24 0.24 0.26 0.31 0.44
0.12 0.13 0.17 0.15 0.09 0.09 0.08 0.07 0.08 0.11 0.10 0.09 0.10 0.14 0.22 0.28 0.22 0.13 0.11 0.11 0.12 0.12 0.12 0.13 0.13 0.14 0.14 0.10 0.06 0.06 0.08 0.10 0.11 0.13 0.16 0.22 0.26 0.27 0.27 0.25 0.25 0.29 0.32 0.54
0.08 0.08 0.12 0.10 0.07 0.10 0.08 0.07 0.10 0.13 0.11 0.10 0.13 0.14 0.15 0.18 0.17 0.13 0.14 0.15 0.16 0.18 0.19 0.19 0.16 0.12 0.10 0.09 0.08 0.08 0.10 0.14 0.15 0.16 0.19 0.22 0.27 0.29 0.29 0.29 0.29 0.30 0.33 0.43

GEFSCGP_prec_meanprecacc_216.txt.gz
Total_Precipitation_Accumulation
0.36 0.42 0.33 0.25 0.21 0.18 0.16 0.17 0.15 0.12 0.11 0.11 0.09 0.06 0.02 0.03 0.04 0.03 0.02 0.03 0.02 0.01 0.01 0.01 0.02 0.02 0.03 0.06 0.09 0.10 0.11 0.17 0.19 0.19 0.24 0.28 0.26 0.26 0.28 0.27 0.25 0.26 0.27 0.28
0.36 0.30 0.15 0.12 0.15 0.19 0.21 0.19 0.15 0.12 0.10 0.12 0.10 0.06 0.03 0.03 0.03 0.03 0.03 0.02 0.02 0.01 0.01 0.02 0.03 0.04 0.03 0.04 0.07 0.10 0.10 0.13 0.19 0.19 0.19 0.23 0.23 0.24 0.27 0.27 0.27 0.28 0.27 0.27
0.30 0.17 0.12 0.14 0.19 0.23 0.25 0.22 0.16 0.16 0.14 0.13 0.12 0.09 0.03 0.02 0.03 0.03 0.02 0.02 0.02 0.01 0.02 0.03 0.04 0.05 0.05 0.05 0.06 0.09 0.10 0.11 0.16 0.22 0.23 0.26 0.30 0.28 0.30 0.29 0.28 0.28 0.27 0.27
0.26 0.14 0.15 0.19 0.19 0.19 0.21 0.15 0.15 0.19 0.27 0.26 0.19 0.17 0.05 0.03 0.03 0.03 0.02 0.02 0.01 0.01 0.01 0.02 0.03 0.04 0.06 0.07 0.08 0.10 0.13 0.12 0.12 0.18 0.26 0.29 0.31 0.28 0.24 0.23 0.24 0.26 0.27 0.27
0.29 0.14 0.16 0.18 0.12 0.13 0.15 0.13 0.18 0.22 0.32 0.31 0.20 0.21 0.07 0.03 0.04 0.03 0.01 0.01 0.01 0.01 0.01 0.02 0.01 0.02 0.04 0.06 0.08 0.09 0.14 0.15 0.13 0.13 0.18 0.25 0.29 0.29 0.29 0.28 0.27 0.28 0.29 0.28
0.21 0.14 0.16 0.15 0.10 0.12 0.18 0.24 0.31 0.34 0.46 0.48 0.17 0.14 0.08 0.04 0.04 0.02 0.01 0.01 0.01 0.02 0.02 0.03 0.03 0.03 0.03 0.04 0.06 0.09 0.12 0.15 0.15 0.16 0.17 0.22 0.27 0.30 0.33 0.35 0.33 0.30 0.30 0.30
0.27 0.17 0.14 0.14 0.20 0.21 0.31 0.51 0.72 0.72 0.66 0.38 0.08 0.09 0.07 0.04 0.03 0.02 0.01 0.01 0.01 0.02 0.03 0.03 0.03 0.05 0.05 0.04 0.05 0.08 0.11 0.14 0.15 0.16 0.19 0.20 0.24 0.27 0.30 0.35 0.34 0.32 0.31 0.32
0.33 0.22 0.12 0.11 0.17 0.24 0.27 0.40 0.59 0.57 0.34 0.13 0.05 0.06 0.05 0.04 0.03 0.01 0.01 0.01 0.02 0.02 0.03 0.03 0.03 0.03 0.03 0.04 0.04 0.06 0.08 0.11 0.15 0.17 0.19 0.20 0.23 0.24 0.24 0.29 0.34 0.34 0.32 0.32
0.36 0.22 0.08 0.06 0.08 0.17 0.29 0.28 0.26 0.42 0.33 0.21 0.12 0.07 0.05 0.03 0.02 0.01 0.01 0.02 0.03 0.03 0.03 0.03 0.03 0.02 0.03 0.03 0.04 0.06 0.07 0.09 0.11 0.15 0.19 0.21 0.22 0.23 0.22 0.23 0.29 0.33 0.32 0.30
0.42 0.33 0.13 0.09 0.13 0.17 0.21 0.29 0.39 0.60 0.58 0.32 0.12 0.07 0.07 0.04 0.03 0.02 0.03 0.03 0.04 0.04 0.04 0.04 0.03 0.03 0.03 0.04 0.04 0.06 0.09 0.09 0.10 0.12 0.17 0.21 0.22 0.23 0.23 0.23 0.25 0.30 0.33 0.34
0.41 0.47 0.26 0.18 0.21 0.19 0.19 0.29 0.49 0.61 0.50 0.36 0.19 0.10 0.09 0.07 0.04 0.03 0.03 0.04 0.06 0.06 0.07 0.06 0.04 0.03 0.04 0.05 0.06 0.07 0.10 0.11 0.13 0.13 0.15 0.19 0.24 0.26 0.28 0.30 0.30 0.31 0.35 0.40
0.40 0.57 0.41 0.20 0.14 0.14 0.21 0.24 0.34 0.55 0.48 0.30 0.24 0.11 0.06 0.06 0.05 0.04 0.03 0.04 0.05 0.07 0.09 0.08 0.06 0.05 0.06 0.07 0.08 0.10 0.13 0.13 0.15 0.15 0.17 0.18 0.24 0.30 0.34 0.37 0.38 0.40 0.42 0.44
0.61 0.83 0.69 0.41 0.29 0.25 0.28 0.27 0.29 0.41 0.50 0.39 0.32 0.13 0.03 0.04 0.05 0.04 0.04 0.04 0.05 0.07 0.07 0.07 0.07 0.07 0.08 0.09 0.10 0.14 0.17 0.15 0.16 0.16 0.18 0.21 0.25 0.32 0.40 0.44 0.47 0.47 0.48 0.52
0.83 0.93 0.70 0.49 0.31 0.29 0.29 0.25 0.26 0.43 0.61 0.40 0.19 0.08 0.03 0.03 0.05 0.05 0.04 0.04 0.04 0.04 0.05 0.07 0.07 0.08 0.09 0.10 0.11 0.14 0.18 0.17 0.20 0.23 0.24 0.29 0.35 0.40 0.45 0.50 0.51 0.51 0.53 0.55
0.88 0.89 0.48 0.26 0.15 0.15 0.19 0.17 0.18 0.25 0.28 0.27 0.13 0.07 0.05 0.05 0.05 0.07 0.06 0.04 0.04 0.04 0.06 0.08 0.08 0.07 0.09 0.10 0.11 0.15 0.21 0.24 0.30 0.37 0.39 0.38 0.38 0.43 0.43 0.46 0.49 0.51 0.55 0.57
0.81 0.81 0.48 0.31 0.17 0.17 0.18 0.13 0.11 0.12 0.11 0.10 0.08 0.07 0.05 0.04 0.03 0.04 0.04 0.05 0.05 0.05 0.07 0.07 0.08 0.08 0.09 0.12 0.17 0.24 0.30 0.35 0.39 0.44 0.47 0.45 0.40 0.40 0.45 0.45 0.46 0.50 0.53 0.53
0.77 0.80 0.74 0.45 0.21 0.32 0.33 0.13 0.08 0.08 0.07 0.07 0.08 0.07 0.05 0.04 0.03 0.03 0.04 0.05 0.06 0.06 0.07 0.09 0.11 0.13 0.15 0.19 0.25 0.32 0.36 0.38 0.40 0.44 0.49 0.51 0.45 0.40 0.43 0.44 0.44 0.43 0.44 0.45
0.57 0.66 0.92 0.69 0.47 0.59 0.23 0.06 0.05 0.07 0.07 0.07 0.06 0.06 0.05 0.04 0.04 0.03 0.04 0.06 0.08 0.10 0.12 0.14 0.16 0.18 0.21 0.25 0.30 0.34 0.37 0.40 0.40 0.41 0.41 0.43 0.39 0.33 0.36 0.40 0.39 0.36 0.36 0.40
0.30 0.54 0.96 0.90 0.68 0.35 0.08 0.04 0.05 0.08 0.10 0.08 0.07 0.06 0.05 0.05 0.05 0.06 0.07 0.08 0.09 0.10 0.10 0.11 0.12 0.15 0.19 0.24 0.27 0.28 0.29 0.31 0.31 0.30 0.28 0.30 0.27 0.27 0.32 0.36 0.33 0.31 0.31 0.32
0.26 0.49 1.00 1.00 0.79 0.35 0.08 0.03 0.04 0.09 0.12 0.09 0.08 0.07 0.07 0.11 0.24 0.14 0.12 0.09 0.07 0.06 0.06 0.06 0.07 0.08 0.11 0.15 0.17 0.18 0.18 0.20 0.21 0.21 0.21 0.26 0.25 0.23 0.27 0.32 0.31 0.30 0.29 0.32
0.42 0.72 0.94 0.82 0.71 0.27 0.06 0.03 0.06 0.17 0.18 0.13 0.11 0.11 0.15 0.22 0.28 0.17 0.11 0.09 0.08 0.06 0.05 0.05 0.05 0.08 0.11 0.14 0.15 0.14 0.13 0.13 0.14 0.16 0.18 0.25 0.27 0.25 0.24 0.27 0.30 0.30 0.31 0.33
0.37 0.54 0.58 0.59 0.74 0.33 0.06 0.07 0.13 0.18 0.14 0.12 0.14 0.16 0.21 0.16 0.09 0.07 0.08 0.09 0.07 0.05 0.05 0.05 0.07 0.10 0.15 0.17 0.14 0.10 0.09 0.09 0.10 0.14 0.17 0.22 0.30 0.27 0.26 0.27 0.27 0.28 0.32 0.35
0.28 0.36 0.40 0.40 0.32 0.12 0.08 0.10 0.11 0.12 0.14 0.17 0.25 0.26 0.24 0.20 0.13 0.11 0.10 0.08 0.06 0.06 0.07 0.08 0.09 0.14 0.17 0.14 0.09 0.08 0.08 0.08 0.10 0.13 0.17 0.22 0.28 0.27 0.26 0.27 0.28 0.29 0.30 0.36
0.17 0.19 0.28 0.28 0.17 0.10 0.08 0.07 0.07 0.10 0.15 0.18 0.22 0.24 0.26 0.27 0.21 0.16 0.13 0.10 0.08 0.08 0.09 0.10 0.10 0.14 0.16 0.12 0.07 0.07 0.07 0.07 0.09 0.12 0.18 0.22 0.26 0.28 0.28 0.26 0.27 0.29 0.34 0.48
0.14 0.15 0.19 0.18 0.12 0.12 0.10 0.09 0.10 0.12 0.11 0.10 0.11 0.15 0.23 0.28 0.22 0.14 0.11 0.11 0.12 0.13 0.12 0.13 0.13 0.15 0.14 0.10 0.07 0.07 0.09 0.10 0.12 0.13 0.17 0.23 0.27 0.29 0.30 0.28 0.28 0.32 0.36 0.58
0.09 0.09 0.12 0.12 0.09 0.11 0.10 0.08 0.11 0.14 0.12 0.12 0.14 0.15 0.15 0.19 0.18 0.14 0.14 0.15 0.16 0.18 0.20 0.19 0.16 0.12 0.11 0.10 0.08 0.08 0.10 0.14 0.16 0.17 0.19 0.24 0.29 0.31 0.31 0.30 0.31 0.32 0.36 0.46

GEFSCGP_prec_meanprecacc_222.txt.gz
Total_Precipitation_Accumulation
0.40 0.47 0.36 0.27 0.24 0.21 0.19 0.19 0.16 0.12 0.11 0.12 0.10 0.06 0.03 0.03 0.04 0.04 0.02 0.03 0.02 0.01 0.01 0.01 0.02 0.02 0.03 0.06 0.09 0.10 0.11 0.17 0.19 0.20 0.25 0.29 0.26 0.27 0.30 0.29 0.26 0.27 0.28 0.29
0.40 0.33 0.17 0.13 0.17 0.22 0.23 0.21 0.17 0.13 0.10 0.13 0.11 0.06 0.03 0.03 0.04 0.03 0.03 0.02 0.02 0.01 0.01 0.02 0.03 0.04 0.03 0.04 0.07 0.10 0.10 0.13 0.19 0.19 0.19 0.24 0.24 0.25 0.28 0.29 0.28 0.29 0.28 0.29
0.33 0.18 0.12 0.16 0.21 0.26 0.28 0.23 0.17 0.17 0.15 0.14 0.13 0.09 0.04 0.03 0.03 0.03 0.02 0.02 0.02 0.01 0.02 0.03 0.04 0.05 0.05 0.05 0.06 0.09 0.10 0.11 0.16 0.22 0.24 0.28 0.32 0.30 0.32 0.31 0.29 0.29 0.29 0.28
0.28 0.15 0.16 0.20 0.20 0.21 0.23 0.16 0.16 0.20 0.29 0.29 0.20 0.18 0.05 0.03 0.04 0.03 0.02 0.02 0.01 0.01 0.01 0.02 0.03 0.04 0.06 0.07 0.08 0.10 0.13 0.12 0.13 0.19 0.27 0.30 0.33 0.29 0.25 0.24 0.26 0.27 0.28 0.28
0.32 0.15 0.17 0.19 0.13 0.14 0.16 0.14 0.19 0.23 0.34 0.34 0.22 0.21 0.08 0.03 0.04 0.03 0.01 0.01 0.01 0.01 0.01 0.02 0.01 0.02 0.04 0.06 0.08 0.09 0.14 0.16 0.14 0.15 0.19 0.27 0.32 0.32 0.31 0.30 0.29 0.30 0.31 0.29
0.22 0.15 0.18 0.16 0.11 0.13 0.20 0.26 0.33 0.37 0.49 0.51 0.18 0.15 0.08 0.04 0.04 0.02 0.01 0.01 0.01 0.02 0.02 0.03 0.03 0.03 0.03 0.04 0.06 0.09 0.12 0.16 0.16 0.18 0.19 0.24 0.30 0.33 0.37 0.39 0.36 0.33 0.32 0.31
0.29 0.18 0.16 0.16 0.21 0.22 0.34 0.56 0.78 0.79 0.72 0.40 0.08 0.09 0.07 0.04 0.03 0.02 0.01 0.01 0.01 0.02 0.03 0.03 0.03 0.05 0.05 0.04 0.05 0.09 0.12 0.15 0.16 0.18 0.21 0.22 0.26 0.29 0.33 0.38 0.37 0.35 0.33 0.33
0.36 0.23 0.13 0.13 0.19 0.26 0.29 0.44 0.64 0.62 0.37 0.13 0.05 0.07 0.05 0.04 0.03 0.01 0.01 0.01 0.02 0.02 0.03 0.03 0.03 0.03 0.03 0.04 0.05 0.08 0.10 0.12 0.16 0.19 0.21 0.23 0.25 0.27 0.26 0.31 0.36 0.38 0.34 0.34
0.40 0.24 0.09 0.07 0.09 0.19 0.31 0.30 0.29 0.46 0.35 0.22 0.12 0.07 0.05 0.03 0.02 0.01 0.01 0.02 0.03 0.03 0.03 0.03 0.03 0.02 0.03 0.03 0.04 0.06 0.08 0.09 0.12 0.16 0.22 0.24 0.25 0.25 0.24 0.25 0.31 0.35 0.34 0.33
0.46 0.36 0.15 0.10 0.15 0.19 0.24 0.31 0.42 0.66 0.62 0.33 0.12 0.07 0.07 0.04 0.03 0.02 0.03 0.03 0.04 0.04 0.04 0.04 0.03 0.03 0.03 0.04 0.04 0.06 0.09 0.09 0.10 0.12 0.17 0.22 0.24 0.25 0.26 0.25 0.27 0.31 0.35 0.36
0.46 0.51 0.29 0.21 0.23 0.20 0.21 0.33 0.53 0.65 0.53 0.37 0.20 0.10 0.09 0.07 0.04 0.04 0.04 0.04 0.06 0.07 0.07 0.06 0.04 0.03 0.04 0.05 0.06 0.07 0.11 0.11 0.13 0.13 0.15 0.19 0.25 0.28 0.30 0.33 0.32 0.33 0.36 0.41
0.46 0.64 0.45 0.22 0.16 0.15 0.22 0.26 0.38 0.59 0.50 0.31 0.25 0.12 0.06 0.06 0.05 0.04 0.04 0.04 0.05 0.08 0.09 0.08 0.06 0.05 0.06 0.07 0.08 0.10 0.13 0.13 0.15 0.15 0.17 0.19 0.24 0.31 0.35 0.39 0.40 0.42 0.43 0.45
0.70 0.94 0.77 0.46 0.32 0.28 0.30 0.29 0.31 0.44 0.53 0.41 0.34 0.13 0.03 0.04 0.05 0.04 0.04 0.04 0.05 0.07 0.08 0.07 0.07 0.08 0.08 0.09 0.10 0.14 0.17 0.16 0.16 0.16 0.18 0.21 0.26 0.33 0.40 0.44 0.47 0.48 0.50 0.53
0.95 1.04 0.77 0.53 0.34 0.32 0.32 0.28 0.29 0.46 0.64 0.42 0.20 0.08 0.03 0.03 0.05 0.05 0.04 0.05 0.04 0.04 0.06 0.08 0.08 0.08 0.10 0.11 0.11 0.15 0.19 0.18 0.21 0.24 0.25 0.29 0.36 0.40 0.45 0.50 0.51 0.51 0.53 0.56
1.00 1.00 0.54 0.29 0.17 0.17 0.21 0.19 0.19 0.28 0.31 0.28 0.13 0.07 0.06 0.05 0.06 0.07 0.06 0.05 0.04 0.05 0.07 0.09 0.10 0.09 0.11 0.12 0.13 0.17 0.22 0.26 0.32 0.38 0.40 0.39 0.39 0.43 0.43 0.46 0.49 0.52 0.55 0.58
0.92 0.92 0.54 0.35 0.20 0.19 0.19 0.14 0.12 0.14 0.13 0.12 0.08 0.08 0.06 0.04 0.04 0.04 0.04 0.05 0.05 0.06 0.07 0.08 0.10 0.11 0.11 0.15 0.20 0.26 0.33 0.37 0.41 0.46 0.48 0.46 0.40 0.40 0.45 0.45 0.47 0.50 0.54 0.54
0.85 0.89 0.83 0.51 0.25 0.38 0.37 0.14 0.10 0.11 0.09 0.09 0.09 0.08 0.05 0.04 0.03 0.03 0.04 0.05 0.06 0.06 0.07 0.09 0.11 0.14 0.16 0.21 0.28 0.35 0.39 0.41 0.43 0.46 0.50 0.52 0.45 0.40 0.43 0.45 0.44 0.44 0.44 0.46
0.62 0.72 1.01 0.77 0.52 0.66 0.27 0.07 0.06 0.08 0.08 0.08 0.07 0.07 0.06 0.05 0.04 0.03 0.04 0.07 0.09 0.10 0.12 0.14 0.16 0.18 0.22 0.26 0.31 0.36 0.39 0.42 0.42 0.42 0.42 0.43 0.39 0.34 0.36 0.41 0.40 0.36 0.37 0.41
0.33 0.60 1.06 0.99 0.74 0.38 0.09 0.04 0.05 0.09 0.11 0.09 0.08 0.07 0.06 0.06 0.06 0.07 0.08 0.08 0.09 0.10 0.10 0.11 0.12 0.15 0.20 0.25 0.28 0.29 0.30 0.32 0.31 0.31 0.29 0.30 0.28 0.27 0.32 0.37 0.34 0.31 0.31 0.33
0.30 0.55 1.11 1.11 0.86 0.38 0.09 0.04 0.04 0.10 0.15 0.10 0.09 0.08 0.08 0.12 0.25 0.15 0.12 0.09 0.07 0.06 0.06 0.07 0.08 0.09 0.12 0.16 0.18 0.19 0.19 0.20 0.22 0.21 0.21 0.27 0.25 0.23 0.28 0.34 0.32 0.31 0.30 0.32
0.48 0.81 1.04 0.91 0.78 0.30 0.07 0.04 0.06 0.19 0.22 0.15 0.13 0.12 0.16 0.24 0.30 0.18 0.12 0.10 0.08 0.06 0.05 0.05 0.06 0.09 0.12 0.15 0.16 0.15 0.13 0.13 0.14 0.16 0.18 0.25 0.27 0.25 0.25 0.28 0.31 0.31 0.32 0.33
0.41 0.62 0.66 0.66 0.83 0.38 0.08 0.08 0.15 0.21 0.16 0.14 0.16 0.17 0.23 0.19 0.12 0.10 0.10 0.10 0.08 0.06 0.06 0.06 0.07 0.11 0.16 0.18 0.14 0.10 0.09 0.09 0.10 0.14 0.17 0.23 0.30 0.28 0.26 0.28 0.28 0.29 0.33 0.37
0.32 0.41 0.46 0.46 0.38 0.16 0.09 0.11 0.12 0.14 0.16 0.19 0.26 0.26 0.24 0.21 0.14 0.13 0.11 0.09 0.07 0.07 0.08 0.09 0.10 0.15 0.18 0.14 0.10 0.09 0.08 0.08 0.10 0.13 0.18 0.23 0.28 0.28 0.27 0.28 0.29 0.30 0.33 0.39
0.20 0.22 0.31 0.31 0.20 0.12 0.09 0.08 0.08 0.10 0.15 0.19 0.22 0.24 0.26 0.28 0.21 0.17 0.14 0.11 0.09 0.09 0.10 0.11 0.11 0.15 0.17 0.12 0.07 0.07 0.07 0.07 0.09 0.12 0.18 0.23 0.27 0.29 0.28 0.27 0.28 0.30 0.36 0.51
0.16 0.17 0.21 0.20 0.15 0.13 0.12 0.10 0.10 0.12 0.11 0.10 0.11 0.15 0.24 0.29 0.23 0.15 0.12 0.12 0.13 0.13 0.13 0.14 0.14 0.15 0.14 0.10 0.07 0.07 0.09 0.10 0.12 0.13 0.17 0.23 0.27 0.29 0.30 0.28 0.29 0.33 0.38 0.61
0.11 0.11 0.15 0.15 0.12 0.13 0.12 0.10 0.12 0.15 0.13 0.13 0.15 0.16 0.17 0.20 0.18 0.15 0.15 0.16 0.17 0.19 0.20 0.19 0.16 0.12 0.11 0.10 0.08 0.09 0.11 0.14 0.16 0.17 0.20 0.24 0.29 0.31 0.31 0.31 0.31 0.33 0.37 0.47

GEFSCGP_prec_meanprecacc_228.txt.gz
Total_Precipitation_Accumulation
0.44 0.52 0.40 0.29 0.25 0.22 0.20 0.19 0.16 0.12 0.11 0.12 0.10 0.06 0.03 0.03 0.05 0.04 0.03 0.03 0.02 0.01 0.01 0.01 0.02 0.02 0.03 0.06 0.09 0.10 0.11 0.17 0.19 0.20 0.25 0.29 0.26 0.27 0.30 0.29 0.27 0.28 0.30 0.31
0.44 0.36 0.18 0.14 0.18 0.23 0.24 0.22 0.17 0.13 0.11 0.14 0.12 0.07 0.03 0.03 0.04 0.03 0.03 0.03 0.02 0.01 0.01 0.02 0.03 0.04 0.03 0.04 0.07 0.10 0.10 0.13 0.19 0.19 0.19 0.24 0.24 0.25 0.28 0.29 0.29 0.30 0.30 0.30
0.36 0.20 0.13 0.17 0.22 0.27 0.28 0.23 0.17 0.17 0.15 0.15 0.14 0.10 0.04 0.03 0.03 0.03 0.02 0.02 0.02 0.02 0.02 0.03 0.04 0.05 0.05 0.05 0.06 0.09 0.10 0.11 0.16 0.22 0.24 0.28 0.32 0.30 0.32 0.32 0.30 0.30 0.30 0.29
0.30 0.16 0.17 0.21 0.21 0.22 0.23 0.17 0.16 0.20 0.30 0.29 0.21 0.19 0.06 0.03 0.04 0.03 0.02 0.02 0.01 0.01 0.01 0.02 0.03 0.04 0.06 0.07 0.08 0.10 0.13 0.12 0.13 0.19 0.27 0.30 0.33 0.29 0.25 0.25 0.27 0.28 0.29 0.29
0.35 0.17 0.18 0.20 0.13 0.14 0.17 0.14 0.19 0.24 0.35 0.35 0.23 0.23 0.08 0.03 0.04 0.03 0.01 0.01 0.01 0.01 0.01 0.02 0.01 0.02 0.04 0.06 0.08 0.09 0.14 0.16 0.14 0.15 0.19 0.27 0.32 0.32 0.31 0.31 0.31 0.32 0.33 0.31
0.24 0.18 0.19 0.17 0.11 0.14 0.20 0.27 0.34 0.38 0.52 0.54 0.19 0.16 0.08 0.04 0.04 0.02 0.01 0.01 0.02 0.02 0.02 0.03 0.03 0.03 0.03 0.04 0.06 0.09 0.12 0.16 0.16 0.18 0.19 0.25 0.30 0.33 0.37 0.41 0.38 0.34 0.34 0.33
0.32 0.21 0.20 0.19 0.23 0.23 0.35 0.59 0.82 0.83 0.76 0.42 0.08 0.09 0.07 0.04 0.03 0.02 0.01 0.01 0.01 0.03 0.03 0.03 0.03 0.05 0.05 0.04 0.05 0.09 0.12 0.15 0.16 0.18 0.21 0.22 0.26 0.30 0.33 0.39 0.39 0.38 0.35 0.36
0.39 0.26 0.16 0.16 0.21 0.28 0.30 0.45 0.66 0.63 0.38 0.14 0.05 0.07 0.05 0.04 0.03 0.01 0.01 0.01 0.02 0.02 0.03 0.03 0.03 0.03 0.03 0.04 0.05 0.08 0.10 0.12 0.16 0.19 0.21 0.23 0.26 0.28 0.28 0.33 0.38 0.40 0.37 0.35
0.44 0.26 0.10 0.07 0.10 0.21 0.33 0.32 0.30 0.47 0.37 0.23 0.12 0.07 0.05 0.03 0.02 0.02 0.02 0.02 0.03 0.03 0.03 0.03 0.03 0.02 0.03 0.03 0.04 0.06 0.08 0.09 0.12 0.16 0.22 0.25 0.25 0.26 0.25 0.27 0.32 0.36 0.35 0.33
0.52 0.42 0.17 0.12 0.17 0.21 0.26 0.33 0.44 0.69 0.65 0.35 0.13 0.07 0.07 0.04 0.03 0.03 0.03 0.03 0.04 0.04 0.04 0.04 0.03 0.03 0.03 0.04 0.04 0.06 0.09 0.09 0.10 0.12 0.17 0.23 0.24 0.26 0.26 0.27 0.28 0.33 0.36 0.38
0.53 0.59 0.35 0.25 0.27 0.23 0.24 0.37 0.57 0.68 0.55 0.39 0.20 0.10 0.09 0.07 0.04 0.04 0.04 0.04 0.06 0.07 0.07 0.06 0.04 0.03 0.04 0.05 0.06 0.07 0.11 0.11 0.13 0.13 0.15 0.19 0.26 0.28 0.31 0.34 0.34 0.34 0.39 0.44
0.54 0.72 0.52 0.29 0.20 0.17 0.23 0.28 0.40 0.62 0.52 0.32 0.26 0.12 0.07 0.06 0.05 0.04 0.04 0.04 0.05 0.08 0.09 0.09 0.06 0.05 0.06 0.07 0.08 0.10 0.13 0.13 0.15 0.15 0.17 0.19 0.24 0.31 0.35 0.39 0.41 0.44 0.46 0.48
0.79 1.04 0.86 0.54 0.40 0.35 0.35 0.31 0.32 0.46 0.54 0.42 0.34 0.13 0.03 0.04 0.05 0.05 0.04 0.05 0.05 0.07 0.08 0.07 0.07 0.08 0.08 0.09 0.10 0.14 0.17 0.16 0.16 0.16 0.18 0.22 0.26 0.33 0.40 0.45 0.48 0.49 0.52 0.56
1.04 1.13 0.83 0.58 0.39 0.38 0.39 0.32 0.31 0.48 0.67 0.44 0.20 0.08 0.03 0.04 0.05 0.06 0.05 0.05 0.05 0.04 0.06 0.08 0.08 0.08 0.10 0.11 0.11 0.15 0.19 0.18 0.21 0.24 0.25 0.30 0.37 0.41 0.46 0.51 0.52 0.52 0.54 0.58
1.11 1.10 0.58 0.31 0.18 0.19 0.24 0.21 0.22 0.31 0.33 0.29 0.13 0.08 0.06 0.05 0.06 0.07 0.07 0.06 0.05 0.05 0.07 0.09 0.10 0.09 0.11 0.12 0.13 0.17 0.22 0.26 0.32 0.38 0.40 0.40 0.40 0.44 0.44 0.47 0.50 0.52 0.56 0.58
1.02 1.02 0.59 0.38 0.22 0.21 0.22 0.16 0.15 0.16 0.16 0.14 0.10 0.09 0.06 0.04 0.04 0.04 0.05 0.07 0.06 0.06 0.07 0.08 0.10 0.11 0.11 0.15 0.21 0.27 0.34 0.37 0.41 0.46 0.49 0.47 0.42 0.41 0.46 0.46 0.47 0.51 0.55 0.55
0.93 0.97 0.90 0.56 0.28 0.41 0.40 0.16 0.11 0.13 0.12 0.12 0.13 0.10 0.06 0.04 0.04 0.04 0.04 0.07 0.08 0.07 0.07 0.09 0.11 0.14 0.16 0.21 0.28 0.35 0.39 0.41 0.44 0.47 0.52 0.53 0.46 0.41 0.44 0.46 0.45 0.44 0.45 0.47
0.67 0.78 1.08 0.82 0.57 0.72 0.29 0.08 0.07 0.09 0.10 0.11 0.11 0.10 0.08 0.06 0.05 0.04 0.04 0.07 0.10 0.11 0.13 0.14 0.16 0.18 0.22 0.26 0.31 0.37 0.41 0.44 0.44 0.45 0.45 0.46 0.40 0.35 0.37 0.42 0.40 0.37 0.37 0.41
0.36 0.65 1.14 1.06 0.79 0.41 0.10 0.05 0.06 0.11 0.14 0.12 0.12 0.11 0.09 0.09 0.07 0.08 0.08 0.09 0.10 0.11 0.11 0.12 0.13 0.15 0.20 0.25 0.28 0.29 0.31 0.33 0.34 0.33 0.32 0.33 0.30 0.29 0.34 0.38 0.35 0.32 0.31 0.33
0.35 0.60 1.18 1.17 0.91 0.41 0.11 0.04 0.05 0.12 0.18 0.13 0.11 0.11 0.11 0.14 0.27 0.16 0.13 0.09 0.08 0.07 0.06 0.07 0.08 0.09 0.12 0.16 0.19 0.20 0.20 0.21 0.23 0.23 0.23 0.28 0.26 0.24 0.29 0.34 0.32 0.31 0.30 0.32
0.59 0.92 1.13 0.97 0.84 0.33 0.09 0.05 0.08 0.22 0.26 0.17 0.14 0.14 0.19 0.27 0.32 0.20 0.13 0.10 0.08 0.07 0.06 0.06 0.07 0.10 0.13 0.16 0.17 0.16 0.14 0.15 0.16 0.17 0.19 0.26 0.27 0.25 0.26 0.28 0.31 0.31 0.32 0.33
0.50 0.71 0.74 0.74 0.91 0.44 0.11 0.11 0.19 0.27 0.20 0.17 0.18 0.20 0.26 0.23 0.15 0.13 0.13 0.12 0.09 0.07 0.07 0.08 0.10 0.13 0.18 0.19 0.15 0.12 0.10 0.10 0.11 0.15 0.18 0.23 0.30 0.28 0.27 0.28 0.29 0.29 0.33 0.37
0.37 0.47 0.52 0.53 0.46 0.21 0.14 0.16 0.17 0.18 0.19 0.21 0.28 0.28 0.27 0.24 0.18 0.16 0.15 0.11 0.09 0.09 0.09 0.10 0.11 0.15 0.18 0.15 0.10 0.09 0.09 0.09 0.10 0.14 0.18 0.23 0.29 0.28 0.27 0.28 0.29 0.30 0.33 0.39
0.23 0.25 0.35 0.35 0.24 0.16 0.13 0.11 0.11 0.13 0.17 0.20 0.23 0.25 0.28 0.29 0.23 0.19 0.16 0.13 0.11 0.10 0.11 0.12 0.12 0.15 0.18 0.13 0.08 0.08 0.08 0.08 0.10 0.13 0.18 0.24 0.28 0.29 0.28 0.27 0.28 0.30 0.37 0.51
0.19 0.20 0.24 0.23 0.18 0.17 0.15 0.13 0.13 0.14 0.13 0.12 0.12 0.16 0.25 0.30 0.24 0.16 0.14 0.13 0.14 0.14 0.14 0.14 0.14 0.16 0.15 0.11 0.08 0.07 0.09 0.11 0.13 0.14 0.18 0.24 0.28 0.30 0.30 0.28 0.29 0.34 0.38 0.62
0.14 0.15 0.18 0.18 0.14 0.16 0.15 0.13 0.14 0.17 0.15 0.14 0.16 0.18 0.19 0.22 0.20 0.16 0.17 0.17 0.18 0.20 0.21 0.20 0.17 0.13 0.11 0.11 0.09 0.10 0.12 0.16 0.17 0.18 0.20 0.24 0.29 0.32 0.31 0.31 0.31 0.34 0.38 0.48

GEFSCGP_prec_meanprecacc_234.txt.gz
Total_Precipitation_Accumulation
0.47 0.55 0.44 0.32 0.27 0.23 0.20 0.19 0.16 0.13 0.12 0.13 0.11 0.07 0.03 0.03 0.05 0.04 0.03 0.03 0.02 0.01 0.01 0.01 0.02 0.02 0.03 0.06 0.09 0.10 0.11 0.17 0.19 0.20 0.25 0.29 0.27 0.27 0.30 0.29 0.27 0.29 0.30 0.31
0.49 0.38 0.19 0.16 0.20 0.24 0.25 0.22 0.17 0.13 0.11 0.14 0.12 0.07 0.03 0.03 0.04 0.03 0.03 0.03 0.02 0.01 0.01 0.02 0.03 0.04 0.03 0.04 0.07 0.10 0.10 0.13 0.19 0.19 0.19 0.24 0.24 0.26 0.28 0.29 0.30 0.30 0.30 0.30
0.41 0.22 0.13 0.17 0.24 0.30 0.31 0.24 0.18 0.18 0.15 0.15 0.14 0.10 0.04 0.03 0.03 0.03 0.02 0.02 0.02 0.02 0.02 0.03 0.04 0.05 0.05 0.05 0.06 0.09 0.10 0.11 0.16 0.22 0.24 0.28 0.32 0.31 0.32 0.32 0.30 0.31 0.30 0.30
0.33 0.18 0.19 0.22 0.22 0.24 0.26 0.18 0.17 0.21 0.31 0.30 0.21 0.19 0.06 0.03 0.04 0.03 0.02 0.02 0.01 0.01 0.01 0.02 0.03 0.04 0.06 0.07 0.08 0.10 0.13 0.12 0.13 0.19 0.27 0.30 0.33 0.30 0.25 0.25 0.27 0.29 0.30 0.30
0.37 0.18 0.21 0.23 0.14 0.15 0.18 0.15 0.21 0.26 0.37 0.37 0.23 0.23 0.08 0.03 0.04 0.03 0.01 0.01 0.01 0.01 0.01 0.02 0.01 0.02 0.04 0.06 0.08 0.09 0.14 0.16 0.14 0.15 0.20 0.28 0.32 0.32 0.32 0.31 0.31 0.32 0.34 0.33
0.28 0.19 0.22 0.19 0.12 0.15 0.23 0.29 0.37 0.41 0.56 0.57 0.19 0.16 0.08 0.04 0.04 0.02 0.01 0.01 0.02 0.02 0.02 0.03 0.03 0.03 0.03 0.04 0.06 0.09 0.12 0.16 0.16 0.18 0.19 0.25 0.30 0.34 0.38 0.41 0.38 0.35 0.35 0.35
0.36 0.25 0.23 0.21 0.25 0.26 0.39 0.64 0.89 0.90 0.82 0.44 0.08 0.09 0.07 0.04 0.03 0.02 0.01 0.01 0.01 0.03 0.03 0.03 0.03 0.05 0.06 0.04 0.05 0.09 0.12 0.15 0.17 0.18 0.21 0.22 0.26 0.30 0.33 0.39 0.39 0.38 0.36 0.37
0.43 0.29 0.17 0.18 0.25 0.32 0.33 0.49 0.69 0.66 0.39 0.14 0.05 0.07 0.05 0.04 0.03 0.01 0.01 0.01 0.02 0.03 0.03 0.03 0.03 0.03 0.04 0.04 0.05 0.08 0.10 0.13 0.17 0.19 0.21 0.23 0.26 0.28 0.28 0.33 0.39 0.41 0.38 0.37
0.49 0.29 0.11 0.08 0.12 0.24 0.36 0.34 0.31 0.49 0.38 0.23 0.12 0.07 0.05 0.03 0.02 0.02 0.02 0.02 0.03 0.03 0.03 0.03 0.03 0.02 0.03 0.03 0.04 0.06 0.08 0.09 0.12 0.17 0.22 0.25 0.25 0.26 0.26 0.27 0.33 0.37 0.36 0.35
0.59 0.47 0.19 0.13 0.18 0.24 0.30 0.35 0.46 0.72 0.68 0.36 0.13 0.07 0.07 0.04 0.03 0.03 0.03 0.04 0.05 0.04 0.04 0.04 0.03 0.03 0.03 0.04 0.04 0.06 0.09 0.10 0.11 0.12 0.17 0.23 0.24 0.26 0.26 0.27 0.29 0.34 0.38 0.39
0.58 0.66 0.41 0.29 0.31 0.26 0.27 0.41 0.60 0.70 0.56 0.40 0.21 0.10 0.09 0.07 0.04 0.04 0.04 0.04 0.06 0.07 0.07 0.07 0.04 0.03 0.04 0.05 0.06 0.07 0.11 0.12 0.13 0.14 0.15 0.19 0.26 0.28 0.31 0.34 0.35 0.36 0.40 0.46
0.59 0.78 0.59 0.34 0.23 0.18 0.25 0.30 0.43 0.65 0.54 0.33 0.27 0.12 0.07 0.06 0.05 0.04 0.04 0.04 0.06 0.08 0.10 0.09 0.06 0.05 0.06 0.07 0.09 0.11 0.14 0.14 0.15 0.15 0.17 0.19 0.25 0.32 0.36 0.40 0.43 0.45 0.48 0.50
0.86 1.12 0.94 0.63 0.46 0.42 0.40 0.34 0.35 0.48 0.57 0.44 0.36 0.14 0.03 0.04 0.05 0.05 0.04 0.05 0.06 0.08 0.08 0.08 0.08 0.08 0.09 0.09 0.11 0.15 0.18 0.16 0.17 0.17 0.19 0.22 0.26 0.33 0.41 0.46 0.49 0.50 0.53 0.58
1.15 1.24 0.90 0.65 0.46 0.44 0.45 0.36 0.34 0.52 0.72 0.46 0.22 0.08 0.03 0.04 0.06 0.06 0.05 0.06 0.06 0.05 0.07 0.08 0.08 0.09 0.10 0.11 0.12 0.16 0.20 0.19 0.22 0.24 0.25 0.30 0.37 0.41 0.46 0.51 0.53 0.53 0.55 0.60
1.23 1.22 0.64 0.34 0.21 0.21 0.26 0.24 0.24 0.34 0.37 0.32 0.15 0.09 0.06 0.05 0.06 0.07 0.07 0.07 0.06 0.06 0.08 0.10 0.11 0.10 0.12 0.13 0.15 0.19 0.24 0.27 0.32 0.38 0.40 0.40 0.40 0.44 0.44 0.47 0.50 0.53 0.56 0.59
1.09 1.11 0.65 0.42 0.24 0.23 0.24 0.18 0.17 0.19 0.18 0.16 0.11 0.10 0.07 0.04 0.04 0.05 0.06 0.08 0.08 0.08 0.09 0.09 0.12 0.12 0.12 0.17 0.23 0.29 0.36 0.39 0.42 0.46 0.49 0.47 0.42 0.41 0.46 0.47 0.48 0.51 0.55 0.56
0.98 1.03 0.96 0.62 0.31 0.44 0.44 0.18 0.14 0.15 0.14 0.14 0.14 0.11 0.07 0.05 0.04 0.04 0.05 0.08 0.09 0.09 0.09 0.09 0.12 0.15 0.17 0.22 0.29 0.37 0.41 0.42 0.44 0.48 0.52 0.54 0.47 0.42 0.44 0.46 0.45 0.45 0.45 0.47
0.71 0.82 1.14 0.88 0.63 0.79 0.34 0.09 0.09 0.11 0.12 0.12 0.12 0.11 0.09 0.07 0.05 0.05 0.05 0.09 0.11 0.13 0.15 0.15 0.16 0.18 0.22 0.26 0.32 0.38 0.42 0.44 0.45 0.45 0.45 0.46 0.41 0.35 0.38 0.42 0.41 0.37 0.37 0.41
0.39 0.69 1.19 1.11 0.85 0.45 0.13 0.07 0.09 0.13 0.17 0.15 0.14 0.12 0.11 0.10 0.09 0.09 0.10 0.10 0.12 0.13 0.14 0.13 0.13 0.15 0.20 0.25 0.28 0.30 0.32 0.34 0.34 0.34 0.33 0.33 0.30 0.30 0.34 0.39 0.36 0.32 0.32 0.34
0.38 0.66 1.25 1.24 0.97 0.45 0.14 0.06 0.07 0.14 0.22 0.15 0.13 0.13 0.13 0.16 0.29 0.19 0.16 0.12 0.09 0.08 0.07 0.08 0.09 0.10 0.12 0.16 0.19 0.20 0.21 0.22 0.24 0.24 0.24 0.29 0.27 0.25 0.30 0.35 0.34 0.32 0.31 0.34
0.65 1.01 1.23 1.04 0.90 0.37 0.11 0.07 0.10 0.27 0.32 0.19 0.16 0.16 0.20 0.29 0.35 0.22 0.15 0.12 0.10 0.08 0.07 0.08 0.09 0.13 0.15 0.17 0.18 0.17 0.15 0.16 0.17 0.18 0.20 0.26 0.28 0.26 0.27 0.29 0.32 0.32 0.33 0.34
0.55 0.78 0.81 0.81 0.99 0.50 0.14 0.13 0.23 0.32 0.23 0.19 0.20 0.22 0.28 0.26 0.17 0.15 0.14 0.14 0.11 0.10 0.09 0.10 0.12 0.17 0.22 0.22 0.18 0.14 0.12 0.11 0.12 0.16 0.18 0.23 0.31 0.29 0.27 0.29 0.29 0.30 0.34 0.37
0.41 0.52 0.58 0.59 0.53 0.27 0.18 0.20 0.22 0.21 0.22 0.24 0.31 0.31 0.30 0.27 0.21 0.19 0.17 0.13 0.11 0.11 0.12 0.14 0.15 0.19 0.22 0.18 0.13 0.12 0.11 0.10 0.11 0.15 0.19 0.24 0.30 0.29 0.28 0.29 0.30 0.31 0.34 0.39
0.27 0.28 0.39 0.39 0.28 0.20 0.17 0.14 0.14 0.15 0.19 0.23 0.26 0.29 0.31 0.33 0.27 0.22 0.19 0.17 0.14 0.13 0.14 0.14 0.14 0.17 0.20 0.15 0.10 0.09 0.09 0.09 0.11 0.14 0.20 0.25 0.29 0.31 0.30 0.28 0.29 0.31 0.37 0.52
0.22 0.23 0.27 0.27 0.21 0.19 0.18 0.17 0.16 0.17 0.16 0.14 0.15 0.19 0.28 0.34 0.28 0.20 0.17 0.16 0.17 0.17 0.16 0.16 0.16 0.17 0.17 0.13 0.10 0.09 0.11 0.13 0.14 0.16 0.20 0.25 0.29 0.31 0.31 0.29 0.30 0.34 0.39 0.63
0.18 0.19 0.22 0.22 0.17 0.19 0.18 0.16 0.17 0.19 0.18 0.17 0.18 0.20 0.21 0.24 0.22 0.18 0.19 0.19 0.19 0.21 0.22 0.21 0.18 0.14 0.12 0.11 0.10 0.11 0.13 0.17 0.19 0.20 0.22 0.26 0.31 0.33 0.32 0.32 0.32 0.34 0.38 0.49

GEFSCGP_prec_meanprecacc_240.txt.gz
Total_Precipitation_Accumulation
0.53 0.62 0.51 0.35 0.28 0.23 0.20 0.20 0.16 0.13 0.12 0.13 0.11 0.07 0.03 0.03 0.05 0.04 0.03 0.03 0.02 0.01 0.01 0.01 0.02 0.02 0.03 0.06 0.09 0.10 0.11 0.17 0.20 0.21 0.26 0.30 0.27 0.28 0.31 0.30 0.28 0.29 0.31 0.32
0.57 0.43 0.23 0.18 0.21 0.25 0.25 0.23 0.18 0.14 0.11 0.14 0.12 0.07 0.03 0.03 0.04 0.03 0.03 0.03 0.02 0.01 0.01 0.02 0.03 0.04 0.03 0.04 0.07 0.10 0.10 0.13 0.19 0.19 0.20 0.25 0.25 0.27 0.29 0.30 0.31 0.32 0.32 0.31
0.49 0.26 0.15 0.20 0.28 0.33 0.33 0.25 0.18 0.18 0.16 0.15 0.14 0.10 0.04 0.03 0.03 0.03 0.02 0.02 0.02 0.02 0.02 0.03 0.04 0.05 0.05 0.05 0.06 0.09 0.10 0.11 0.16 0.22 0.24 0.29 0.33 0.31 0.33 0.32 0.31 0.32 0.32 0.32
0.38 0.21 0.21 0.25 0.26 0.28 0.30 0.20 0.18 0.22 0.32 0.31 0.21 0.19 0.06 0.03 0.04 0.03 0.02 0.02 0.01 0.01 0.01 0.02 0.03 0.04 0.06 0.07 0.08 0.10 0.13 0.12 0.13 0.19 0.28 0.31 0.33 0.30 0.25 0.25 0.27 0.30 0.31 0.31
0.43 0.21 0.24 0.26 0.16 0.18 0.20 0.17 0.22 0.27 0.38 0.38 0.24 0.23 0.08 0.03 0.04 0.03 0.01 0.01 0.01 0.01 0.01 0.02 0.01 0.02 0.04 0.06 0.08 0.09 0.14 0.16 0.14 0.15 0.20 0.28 0.32 0.32 0.32 0.31 0.31 0.33 0.34 0.33
0.33 0.23 0.25 0.22 0.14 0.17 0.24 0.32 0.40 0.44 0.59 0.61 0.20 0.16 0.08 0.04 0.04 0.02 0.01 0.01 0.02 0.02 0.02 0.03 0.03 0.03 0.03 0.04 0.06 0.09 0.12 0.16 0.16 0.18 0.19 0.25 0.30 0.34 0.38 0.41 0.38 0.35 0.35 0.35
0.44 0.30 0.27 0.24 0.28 0.29 0.43 0.69 0.98 1.00 0.91 0.48 0.09 0.09 0.09 0.05 0.04 0.02 0.01 0.01 0.01 0.03 0.03 0.03 0.03 0.05 0.06 0.04 0.05 0.09 0.12 0.15 0.17 0.18 0.21 0.23 0.26 0.30 0.34 0.39 0.40 0.38 0.36 0.37
0.49 0.36 0.22 0.22 0.30 0.37 0.38 0.53 0.74 0.71 0.42 0.15 0.05 0.07 0.06 0.05 0.03 0.01 0.01 0.01 0.02 0.03 0.03 0.03 0.03 0.03 0.04 0.04 0.05 0.08 0.10 0.13 0.17 0.19 0.21 0.23 0.26 0.28 0.28 0.33 0.39 0.41 0.38 0.37
0.52 0.33 0.14 0.12 0.16 0.27 0.41 0.37 0.33 0.52 0.39 0.24 0.12 0.07 0.05 0.03 0.02 0.02 0.02 0.02 0.03 0.03 0.03 0.03 0.03 0.02 0.03 0.03 0.04 0.06 0.08 0.09 0.12 0.17 0.22 0.25 0.25 0.27 0.26 0.27 0.33 0.38 0.37 0.35
0.65 0.50 0.22 0.16 0.23 0.28 0.34 0.39 0.49 0.77 0.71 0.36 0.13 0.07 0.07 0.04 0.03 0.03 0.03 0.04 0.05 0.04 0.04 0.04 0.03 0.03 0.03 0.04 0.04 0.06 0.09 0.10 0.11 0.13 0.17 0.23 0.25 0.26 0.27 0.27 0.29 0.34 0.38 0.39
0.68 0.73 0.46 0.34 0.36 0.32 0.30 0.46 0.66 0.75 0.59 0.41 0.21 0.10 0.09 0.07 0.04 0.04 0.04 0.04 0.06 0.07 0.08 0.07 0.05 0.03 0.04 0.05 0.06 0.07 0.11 0.12 0.13 0.14 0.15 0.19 0.26 0.29 0.32 0.35 0.36 0.36 0.41 0.46
0.67 0.88 0.66 0.39 0.27 0.22 0.29 0.33 0.47 0.70 0.57 0.34 0.28 0.13 0.07 0.06 0.05 0.04 0.04 0.04 0.06 0.08 0.10 0.09 0.06 0.05 0.06 0.07 0.09 0.11 0.14 0.14 0.16 0.16 0.17 0.19 0.25 0.32 0.37 0.41 0.43 0.46 0.48 0.51
0.95 1.23 1.04 0.70 0.52 0.47 0.46 0.38 0.38 0.52 0.60 0.46 0.37 0.15 0.04 0.04 0.05 0.05 0.04 0.05 0.06 0.08 0.08 0.08 0.08 0.08 0.09 0.10 0.11 0.15 0.18 0.17 0.18 0.18 0.19 0.22 0.26 0.34 0.41 0.47 0.50 0.50 0.54 0.59
1.23 1.33 0.97 0.72 0.52 0.49 0.50 0.39 0.37 0.57 0.77 0.49 0.23 0.10 0.04 0.04 0.06 0.06 0.05 0.06 0.06 0.05 0.07 0.09 0.09 0.09 0.11 0.12 0.13 0.17 0.21 0.20 0.22 0.25 0.26 0.31 0.37 0.42 0.47 0.52 0.53 0.54 0.56 0.61
1.30 1.29 0.69 0.37 0.23 0.24 0.29 0.26 0.27 0.38 0.40 0.35 0.17 0.10 0.08 0.06 0.07 0.08 0.07 0.07 0.06 0.06 0.08 0.11 0.11 0.10 0.13 0.14 0.15 0.20 0.25 0.28 0.33 0.39 0.41 0.41 0.42 0.46 0.46 0.48 0.51 0.53 0.57 0.60
1.15 1.16 0.69 0.45 0.26 0.25 0.27 0.21 0.20 0.22 0.20 0.18 0.13 0.11 0.08 0.05 0.05 0.05 0.06 0.08 0.08 0.08 0.09 0.09 0.12 0.13 0.13 0.18 0.24 0.30 0.37 0.40 0.43 0.48 0.50 0.48 0.44 0.43 0.47 0.48 0.48 0.52 0.56 0.57
1.03 1.08 1.00 0.65 0.33 0.47 0.47 0.22 0.18 0.19 0.17 0.16 0.16 0.13 0.09 0.06 0.04 0.04 0.05 0.08 0.09 0.09 0.09 0.10 0.13 0.17 0.18 0.24 0.32 0.39 0.43 0.44 0.46 0.49 0.53 0.55 0.48 0.43 0.46 0.47 0.46 0.46 0.46 0.48
0.75 0.85 1.19 0.91 0.66 0.84 0.37 0.12 0.12 0.14 0.15 0.15 0.15 0.13 0.11 0.09 0.06 0.05 0.05 0.09 0.12 0.13 0.15 0.15 0.17 0.20 0.24 0.30 0.35 0.41 0.44 0.46 0.47 0.47 0.47 0.47 0.42 0.37 0.39 0.43 0.42 0.39 0.39 0.43
0.42 0.72 1.24 1.15 0.89 0.49 0.14 0.08 0.12 0.17 0.21 0.19 0.17 0.14 0.13 0.12 0.09 0.10 0.11 0.11 0.12 0.13 0.14 0.14 0.14 0.16 0.22 0.27 0.31 0.33 0.36 0.37 0.37 0.37 0.35 0.35 0.32 0.31 0.35 0.40 0.37 0.34 0.33 0.35
0.41 0.69 1.30 1.28 1.01 0.48 0.16 0.07 0.09 0.17 0.27 0.19 0.16 0.16 0.15 0.18 0.31 0.21 0.17 0.12 0.10 0.09 0.08 0.09 0.10 0.11 0.13 0.18 0.21 0.22 0.23 0.25 0.27 0.27 0.27 0.32 0.29 0.27 0.32 0.37 0.36 0.34 0.32 0.35
0.70 1.07 1.29 1.08 0.94 0.41 0.14 0.08 0.12 0.31 0.37 0.22 0.18 0.19 0.23 0.31 0.37 0.23 0.16 0.14 0.12 0.10 0.09 0.10 0.12 0.14 0.16 0.19 0.20 0.20 0.18 0.19 0.20 0.21 0.23 0.30 0.31 0.29 0.30 0.32 0.34 0.34 0.35 0.36
0.59 0.82 0.86 0.85 1.02 0.53 0.16 0.15 0.28 0.38 0.26 0.22 0.22 0.24 0.31 0.28 0.19 0.16 0.16 0.16 0.13 0.12 0.11 0.12 0.15 0.20 0.25 0.25 0.20 0.17 0.14 0.13 0.14 0.18 0.21 0.26 0.33 0.31 0.30 0.31 0.32 0.32 0.36 0.39
0.45 0.57 0.62 0.62 0.56 0.30 0.21 0.24 0.27 0.26 0.26 0.28 0.35 0.35 0.34 0.31 0.24 0.22 0.19 0.15 0.13 0.13 0.14 0.15 0.17 0.21 0.25 0.21 0.16 0.14 0.13 0.12 0.13 0.16 0.20 0.25 0.31 0.30 0.29 0.31 0.32 0.32 0.35 0.41
0.30 0.31 0.42 0.42 0.31 0.22 0.20 0.17 0.17 0.18 0.23 0.26 0.29 0.33 0.36 0.38 0.31 0.26 0.23 0.20 0.17 0.16 0.16 0.16 0.16 0.19 0.22 0.17 0.12 0.11 0.11 0.11 0.13 0.16 0.21 0.26 0.30 0.32 0.31 0.30 0.31 0.33 0.39 0.54
0.25 0.25 0.30 0.30 0.24 0.21 0.20 0.19 0.19 0.20 0.18 0.17 0.18 0.22 0.32 0.38 0.33 0.25 0.21 0.21 0.22 0.21 0.19 0.19 0.19 0.20 0.19 0.15 0.11 0.11 0.13 0.15 0.17 0.19 0.23 0.28 0.32 0.33 0.34 0.32 0.32 0.36 0.41 0.65
0.21 0.22 0.25 0.25 0.20 0.21 0.21 0.19 0.19 0.22 0.20 0.20 0.21 0.22 0.24 0.26 0.25 0.22 0.22 0.23 0.23 0.24 0.25 0.24 0.21 0.17 0.15 0.13 0.12 0.13 0.15 0.19 0.21 0.22 0.24 0.28 0.33 0.35 0.34 0.34 0.34 0.36 0.40 0.51

GEFSCGP_prec_meanprecacc_246.txt.gz
Total_Precipitation_Accumulation
0.59 0.69 0.57 0.38 0.31 0.27 0.23 0.22 0.17 0.13 0.12 0.14 0.11 0.07 0.03 0.04 0.05 0.04 0.03 0.03 0.02 0.01 0.01 0.01 0.02 0.02 0.03 0.06 0.09 0.10 0.12 0.18 0.21 0.21 0.26 0.30 0.28 0.29 0.32 0.31 0.28 0.30 0.32 0.33
0.64 0.48 0.25 0.20 0.22 0.28 0.29 0.26 0.20 0.14 0.11 0.15 0.13 0.07 0.03 0.03 0.04 0.04 0.03 0.03 0.02 0.02 0.01 0.02 0.03 0.04 0.03 0.04 0.07 0.10 0.11 0.14 0.20 0.20 0.21 0.25 0.26 0.28 0.30 0.31 0.32 0.32 0.32 0.32
0.55 0.28 0.16 0.22 0.31 0.37 0.37 0.29 0.20 0.19 0.17 0.16 0.15 0.11 0.04 0.03 0.03 0.03 0.03 0.02 0.02 0.02 0.02 0.03 0.04 0.05 0.05 0.05 0.06 0.09 0.10 0.11 0.17 0.23 0.25 0.30 0.34 0.32 0.34 0.33 0.31 0.32 0.33 0.32
0.43 0.23 0.23 0.28 0.29 0.32 0.33 0.21 0.19 0.24 0.33 0.33 0.22 0.20 0.06 0.03 0.04 0.03 0.02 0.02 0.01 0.02 0.01 0.02 0.03 0.04 0.06 0.07 0.08 0.10 0.13 0.12 0.13 0.19 0.28 0.31 0.33 0.30 0.26 0.25 0.28 0.30 0.32 0.32
0.49 0.24 0.27 0.30 0.20 0.20 0.23 0.19 0.24 0.30 0.41 0.40 0.25 0.24 0.08 0.03 0.04 0.03 0.01 0.01 0.01 0.01 0.01 0.02 0.01 0.02 0.04 0.06 0.08 0.09 0.14 0.16 0.15 0.15 0.20 0.28 0.32 0.32 0.32 0.32 0.32 0.33 0.35 0.34
0.38 0.27 0.29 0.25 0.16 0.19 0.28 0.35 0.45 0.49 0.65 0.66 0.21 0.17 0.09 0.05 0.04 0.02 0.01 0.01 0.02 0.02 0.02 0.03 0.03 0.03 0.03 0.04 0.06 0.10 0.12 0.16 0.16 0.18 0.19 0.25 0.30 0.34 0.38 0.42 0.39 0.35 0.35 0.36
0.48 0.35 0.33 0.29 0.32 0.35 0.50 0.78 1.11 1.14 1.02 0.53 0.09 0.10 0.09 0.05 0.04 0.02 0.01 0.01 0.01 0.03 0.03 0.03 0.03 0.05 0.06 0.04 0.05 0.09 0.12 0.15 0.17 0.18 0.21 0.23 0.26 0.30 0.34 0.39 0.40 0.39 0.36 0.38
0.54 0.42 0.29 0.28 0.34 0.42 0.46 0.62 0.83 0.80 0.48 0.17 0.06 0.07 0.06 0.05 0.03 0.01 0.01 0.01 0.02 0.03 0.03 0.03 0.03 0.03 0.04 0.04 0.05 0.08 0.10 0.13 0.17 0.19 0.21 0.23 0.26 0.28 0.28 0.33 0.39 0.41 0.38 0.37
0.58 0.38 0.17 0.16 0.20 0.31 0.47 0.44 0.38 0.56 0.43 0.26 0.13 0.08 0.05 0.03 0.02 0.02 0.02 0.02 0.03 0.03 0.03 0.03 0.03 0.02 0.03 0.03 0.04 0.06 0.08 0.09 0.12 0.17 0.23 0.25 0.25 0.27 0.26 0.27 0.33 0.38 0.37 0.35
0.72 0.56 0.26 0.20 0.28 0.33 0.38 0.45 0.55 0.83 0.76 0.40 0.14 0.07 0.07 0.04 0.03 0.03 0.03 0.04 0.05 0.04 0.04 0.04 0.03 0.03 0.03 0.04 0.04 0.06 0.09 0.10 0.11 0.13 0.18 0.23 0.25 0.26 0.27 0.27 0.29 0.34 0.38 0.39
0.73 0.79 0.51 0.40 0.42 0.38 0.36 0.52 0.73 0.81 0.62 0.43 0.23 0.11 0.10 0.07 0.04 0.04 0.04 0.04 0.06 0.07 0.08 0.07 0.05 0.03 0.04 0.05 0.06 0.07 0.11 0.12 0.13 0.14 0.15 0.20 0.26 0.29 0.32 0.35 0.36 0.37 0.41 0.47
0.71 0.94 0.71 0.46 0.32 0.26 0.33 0.39 0.54 0.77 0.61 0.36 0.30 0.14 0.08 0.06 0.05 0.04 0.04 0.04 0.06 0.08 0.10 0.09 0.06 0.05 0.06 0.07 0.09 0.11 0.14 0.15 0.16 0.16 0.18 0.19 0.25 0.32 0.37 0.41 0.43 0.46 0.49 0.52
1.01 1.29 1.09 0.75 0.57 0.52 0.54 0.45 0.45 0.60 0.66 0.50 0.40 0.17 0.05 0.04 0.05 0.05 0.04 0.05 0.06 0.08 0.08 0.08 0.08 0.08 0.09 0.10 0.11 0.15 0.18 0.17 0.18 0.19 0.20 0.22 0.27 0.34 0.42 0.47 0.50 0.51 0.55 0.60
1.27 1.37 1.02 0.77 0.57 0.54 0.57 0.46 0.43 0.62 0.85 0.56 0.27 0.12 0.05 0.04 0.06 0.06 0.05 0.06 0.06 0.05 0.07 0.09 0.09 0.09 0.11 0.12 0.13 0.17 0.21 0.20 0.22 0.25 0.27 0.31 0.38 0.43 0.48 0.53 0.54 0.55 0.57 0.63
1.35 1.33 0.72 0.40 0.26 0.26 0.31 0.30 0.32 0.43 0.45 0.40 0.21 0.13 0.10 0.08 0.08 0.08 0.08 0.07 0.06 0.06 0.08 0.11 0.11 0.10 0.13 0.14 0.16 0.20 0.25 0.28 0.33 0.39 0.41 0.42 0.43 0.47 0.47 0.49 0.52 0.55 0.59 0.62
1.18 1.19 0.71 0.47 0.27 0.26 0.28 0.23 0.22 0.26 0.24 0.21 0.16 0.15 0.10 0.07 0.06 0.06 0.06 0.09 0.08 0.08 0.09 0.09 0.12 0.13 0.13 0.18 0.24 0.30 0.37 0.40 0.43 0.48 0.50 0.49 0.44 0.44 0.49 0.50 0.50 0.53 0.57 0.58
1.06 1.11 1.03 0.67 0.35 0.48 0.49 0.25 0.22 0.23 0.22 0.19 0.20 0.16 0.11 0.07 0.06 0.06 0.06 0.09 0.10 0.09 0.09 0.10 0.13 0.17 0.18 0.24 0.32 0.39 0.43 0.45 0.47 0.50 0.54 0.56 0.49 0.45 0.47 0.49 0.48 0.47 0.48 0.50
0.78 0.89 1.23 0.94 0.68 0.87 0.41 0.16 0.17 0.19 0.19 0.20 0.18 0.16 0.12 0.10 0.07 0.06 0.07 0.10 0.12 0.14 0.15 0.15 0.17 0.20 0.24 0.30 0.36 0.42 0.46 0.49 0.50 0.50 0.49 0.50 0.44 0.38 0.41 0.46 0.45 0.41 0.41 0.45
0.44 0.76 1.28 1.19 0.92 0.51 0.16 0.10 0.15 0.21 0.26 0.23 0.21 0.19 0.16 0.13 0.10 0.11 0.12 0.12 0.13 0.14 0.14 0.14 0.14 0.16 0.22 0.27 0.32 0.34 0.38 0.40 0.40 0.40 0.38 0.38 0.36 0.35 0.39 0.44 0.41 0.37 0.36 0.38
0.43 0.72 1.34 1.32 1.04 0.51 0.18 0.08 0.11 0.20 0.30 0.22 0.19 0.20 0.19 0.21 0.34 0.23 0.18 0.13 0.11 0.09 0.09 0.10 0.11 0.11 0.14 0.18 0.21 0.23 0.25 0.27 0.30 0.30 0.31 0.35 0.32 0.30 0.35 0.41 0.39 0.37 0.36 0.37
0.73 1.11 1.33 1.12 0.96 0.43 0.15 0.09 0.13 0.34 0.41 0.24 0.21 0.21 0.25 0.34 0.40 0.26 0.18 0.15 0.12 0.10 0.09 0.10 0.12 0.15 0.17 0.20 0.21 0.21 0.19 0.20 0.21 0.23 0.26 0.33 0.35 0.32 0.33 0.35 0.37 0.37 0.37 0.38
0.62 0.85 0.89 0.87 1.05 0.55 0.17 0.16 0.30 0.42 0.28 0.23 0.24 0.26 0.32 0.30 0.21 0.18 0.18 0.17 0.14 0.13 0.13 0.13 0.16 0.22 0.26 0.26 0.21 0.18 0.16 0.14 0.15 0.19 0.22 0.27 0.35 0.33 0.32 0.33 0.34 0.34 0.38 0.41
0.48 0.61 0.65 0.65 0.59 0.33 0.23 0.27 0.29 0.28 0.27 0.29 0.37 0.37 0.35 0.32 0.26 0.24 0.21 0.17 0.15 0.14 0.15 0.16 0.18 0.23 0.27 0.24 0.18 0.16 0.15 0.13 0.14 0.17 0.21 0.26 0.32 0.31 0.31 0.32 0.34 0.34 0.36 0.42
0.32 0.34 0.45 0.44 0.33 0.24 0.21 0.19 0.18 0.20 0.25 0.28 0.31 0.34 0.37 0.40 0.33 0.28 0.25 0.22 0.19 0.18 0.18 0.17 0.17 0.20 0.24 0.20 0.16 0.15 0.14 0.12 0.13 0.16 0.22 0.27 0.31 0.33 0.33 0.32 0.32 0.35 0.41 0.55
0.27 0.28 0.32 0.31 0.26 0.22 0.22 0.21 0.21 0.22 0.20 0.18 0.19 0.24 0.34 0.40 0.36 0.28 0.25 0.25 0.25 0.24 0.22 0.21 0.21 0.23 0.22 0.17 0.13 0.14 0.17 0.18 0.19 0.20 0.24 0.29 0.33 0.35 0.35 0.34 0.34 0.39 0.43 0.67
0.24 0.26 0.28 0.28 0.22 0.23 0.24 0.21 0.21 0.23 0.22 0.22 0.23 0.24 0.25 0.28 0.28 0.24 0.25 0.26 0.26 0.27 0.28 0.26 0.23 0.19 0.17 0.16 0.14 0.15 0.17 0.21 0.23 0.24 0.26 0.30 0.36 0.38 0.37 0.36 0.37 0.39 0.42 0.53

GEFSCGP_prec_meanprecacc_252.txt.gz
Total_Precipitation_Accumulation
0.66 0.76 0.64 0.41 0.33 0.28 0.25 0.23 0.18 0.13 0.12 0.15 0.12 0.07 0.03 0.04 0.06 0.05 0.03 0.03 0.02 0.02 0.01 0.02 0.02 0.03 0.04 0.07 0.10 0.12 0.13 0.21 0.25 0.25 0.29 0.32 0.30 0.31 0.33 0.32 0.29 0.31 0.32 0.33
0.71 0.54 0.29 0.23 0.24 0.29 0.31 0.28 0.20 0.15 0.11 0.16 0.14 0.08 0.04 0.04 0.05 0.04 0.04 0.03 0.02 0.02 0.01 0.02 0.04 0.04 0.04 0.05 0.08 0.11 0.12 0.16 0.22 0.22 0.23 0.27 0.27 0.30 0.32 0.33 0.33 0.33 0.33 0.32
0.59 0.32 0.18 0.26 0.34 0.39 0.38 0.30 0.21 0.20 0.17 0.17 0.16 0.12 0.05 0.03 0.03 0.03 0.03 0.03 0.02 0.02 0.02 0.03 0.04 0.05 0.06 0.06 0.07 0.10 0.11 0.13 0.18 0.24 0.27 0.33 0.36 0.34 0.35 0.34 0.32 0.33 0.33 0.33
0.46 0.25 0.25 0.32 0.34 0.34 0.35 0.22 0.20 0.25 0.35 0.35 0.24 0.22 0.07 0.04 0.04 0.03 0.02 0.02 0.01 0.02 0.02 0.02 0.03 0.04 0.06 0.08 0.09 0.11 0.14 0.13 0.14 0.19 0.28 0.32 0.34 0.31 0.26 0.26 0.28 0.31 0.32 0.32
0.54 0.26 0.30 0.33 0.24 0.23 0.24 0.19 0.25 0.31 0.43 0.43 0.27 0.27 0.09 0.04 0.05 0.03 0.01 0.01 0.01 0.01 0.01 0.02 0.02 0.02 0.05 0.07 0.09 0.11 0.16 0.17 0.15 0.15 0.20 0.28 0.33 0.32 0.32 0.32 0.32 0.33 0.35 0.35
0.42 0.29 0.32 0.28 0.19 0.23 0.31 0.38 0.48 0.52 0.69 0.69 0.23 0.18 0.09 0.05 0.04 0.03 0.01 0.01 0.02 0.02 0.02 0.03 0.03 0.04 0.04 0.05 0.07 0.11 0.13 0.17 0.17 0.19 0.19 0.25 0.31 0.34 0.38 0.42 0.39 0.36 0.36 0.36
0.53 0.38 0.36 0.32 0.36 0.39 0.56 0.85 1.20 1.24 1.09 0.56 0.10 0.10 0.09 0.05 0.04 0.02 0.01 0.01 0.01 0.03 0.03 0.03 0.03 0.06 0.06 0.04 0.06 0.09 0.13 0.16 0.17 0.19 0.21 0.23 0.27 0.30 0.34 0.40 0.40 0.39 0.37 0.38
0.59 0.47 0.32 0.31 0.39 0.48 0.53 0.68 0.89 0.86 0.52 0.19 0.06 0.07 0.06 0.05 0.03 0.02 0.01 0.01 0.02 0.03 0.03 0.03 0.03 0.03 0.04 0.05 0.05 0.08 0.10 0.13 0.17 0.20 0.22 0.24 0.26 0.28 0.28 0.33 0.39 0.41 0.39 0.37
0.62 0.42 0.21 0.19 0.23 0.34 0.51 0.50 0.42 0.59 0.45 0.28 0.14 0.08 0.06 0.03 0.02 0.02 0.02 0.02 0.03 0.03 0.03 0.03 0.03 0.02 0.03 0.03 0.04 0.06 0.08 0.09 0.12 0.17 0.23 0.25 0.25 0.27 0.26 0.27 0.33 0.38 0.37 0.35
0.76 0.59 0.29 0.24 0.32 0.37 0.42 0.50 0.59 0.87 0.81 0.43 0.17 0.08 0.09 0.05 0.03 0.03 0.03 0.04 0.05 0.05 0.04 0.04 0.03 0.03 0.03 0.04 0.04 0.06 0.09 0.10 0.11 0.13 0.18 0.23 0.25 0.27 0.27 0.27 0.29 0.34 0.38 0.40
0.75 0.83 0.55 0.45 0.49 0.45 0.41 0.58 0.80 0.86 0.67 0.47 0.26 0.14 0.12 0.08 0.05 0.04 0.04 0.04 0.06 0.07 0.08 0.07 0.05 0.03 0.04 0.05 0.07 0.07 0.11 0.12 0.14 0.14 0.16 0.20 0.27 0.30 0.33 0.35 0.36 0.37 0.42 0.47
0.73 0.98 0.75 0.50 0.38 0.32 0.39 0.46 0.62 0.83 0.66 0.40 0.33 0.17 0.10 0.08 0.06 0.04 0.04 0.04 0.06 0.08 0.10 0.09 0.06 0.06 0.06 0.07 0.09 0.11 0.14 0.15 0.16 0.16 0.18 0.20 0.26 0.33 0.37 0.41 0.44 0.47 0.49 0.52
1.06 1.33 1.12 0.79 0.61 0.57 0.59 0.51 0.51 0.65 0.70 0.54 0.44 0.20 0.07 0.06 0.06 0.06 0.05 0.05 0.06 0.08 0.08 0.08 0.08 0.08 0.09 0.10 0.11 0.15 0.18 0.17 0.18 0.19 0.20 0.23 0.27 0.34 0.42 0.47 0.50 0.51 0.55 0.61
1.33 1.42 1.05 0.81 0.61 0.59 0.63 0.51 0.48 0.67 0.91 0.61 0.31 0.15 0.07 0.07 0.08 0.08 0.07 0.07 0.06 0.05 0.07 0.09 0.09 0.10 0.11 0.12 0.13 0.18 0.21 0.20 0.22 0.26 0.27 0.31 0.38 0.43 0.48 0.53 0.54 0.55 0.57 0.63
1.39 1.36 0.73 0.42 0.28 0.29 0.35 0.34 0.37 0.48 0.51 0.45 0.26 0.17 0.14 0.12 0.11 0.11 0.10 0.09 0.08 0.07 0.08 0.11 0.12 0.11 0.13 0.15 0.16 0.21 0.26 0.29 0.34 0.40 0.42 0.42 0.43 0.47 0.47 0.49 0.52 0.55 0.59 0.62
1.21 1.23 0.73 0.49 0.29 0.27 0.29 0.25 0.26 0.31 0.29 0.26 0.20 0.20 0.16 0.12 0.09 0.08 0.08 0.10 0.10 0.09 0.10 0.11 0.14 0.14 0.14 0.18 0.25 0.31 0.38 0.41 0.44 0.48 0.51 0.49 0.45 0.45 0.49 0.50 0.50 0.53 0.58 0.58
1.08 1.14 1.06 0.70 0.37 0.50 0.51 0.28 0.25 0.27 0.28 0.25 0.25 0.22 0.16 0.12 0.10 0.09 0.09 0.11 0.11 0.11 0.10 0.11 0.13 0.18 0.19 0.24 0.33 0.40 0.43 0.45 0.48 0.50 0.54 0.56 0.49 0.45 0.48 0.50 0.49 0.48 0.49 0.51
0.79 0.91 1.26 0.97 0.71 0.91 0.44 0.18 0.20 0.22 0.24 0.25 0.24 0.21 0.17 0.15 0.12 0.09 0.09 0.11 0.14 0.15 0.16 0.16 0.17 0.20 0.24 0.30 0.36 0.42 0.46 0.49 0.50 0.50 0.49 0.50 0.44 0.39 0.41 0.46 0.45 0.42 0.42 0.46
0.45 0.78 1.32 1.22 0.94 0.54 0.18 0.12 0.18 0.24 0.29 0.27 0.25 0.22 0.19 0.16 0.13 0.13 0.13 0.13 0.14 0.15 0.15 0.15 0.15 0.17 0.22 0.28 0.32 0.34 0.38 0.40 0.41 0.40 0.38 0.39 0.36 0.35 0.40 0.45 0.42 0.38 0.37 0.39
0.44 0.74 1.37 1.34 1.06 0.52 0.19 0.10 0.13 0.23 0.33 0.25 0.22 0.23 0.22 0.23 0.36 0.25 0.19 0.14 0.11 0.10 0.10 0.10 0.11 0.12 0.14 0.19 0.22 0.23 0.25 0.27 0.30 0.31 0.31 0.36 0.33 0.31 0.36 0.42 0.40 0.38 0.37 0.39
0.74 1.13 1.35 1.14 0.98 0.44 0.17 0.10 0.14 0.37 0.45 0.27 0.24 0.24 0.28 0.37 0.43 0.28 0.19 0.16 0.14 0.11 0.10 0.11 0.13 0.16 0.18 0.21 0.22 0.21 0.20 0.21 0.22 0.24 0.26 0.33 0.35 0.33 0.33 0.36 0.38 0.38 0.38 0.40
0.64 0.87 0.90 0.89 1.07 0.57 0.18 0.17 0.33 0.46 0.31 0.26 0.26 0.28 0.35 0.32 0.23 0.19 0.19 0.19 0.16 0.14 0.14 0.14 0.17 0.23 0.27 0.27 0.22 0.19 0.16 0.15 0.16 0.19 0.22 0.28 0.35 0.33 0.32 0.34 0.35 0.35 0.39 0.43
0.50 0.63 0.67 0.66 0.61 0.35 0.25 0.29 0.32 0.30 0.30 0.31 0.39 0.39 0.38 0.35 0.28 0.26 0.23 0.19 0.16 0.15 0.16 0.18 0.19 0.24 0.28 0.25 0.19 0.17 0.16 0.14 0.14 0.17 0.21 0.26 0.32 0.32 0.32 0.33 0.35 0.35 0.38 0.44
0.35 0.36 0.47 0.45 0.34 0.26 0.23 0.20 0.20 0.22 0.27 0.31 0.33 0.36 0.39 0.42 0.36 0.31 0.28 0.26 0.22 0.20 0.20 0.20 0.19 0.22 0.25 0.21 0.16 0.16 0.15 0.13 0.14 0.17 0.22 0.27 0.32 0.34 0.34 0.33 0.33 0.36 0.42 0.57
0.30 0.30 0.33 0.33 0.26 0.23 0.23 0.22 0.22 0.23 0.22 0.20 0.21 0.26 0.36 0.42 0.38 0.30 0.29 0.29 0.30 0.28 0.25 0.24 0.23 0.24 0.23 0.18 0.14 0.15 0.18 0.20 0.21 0.22 0.26 0.31 0.34 0.35 0.36 0.35 0.35 0.40 0.45 0.68
0.27 0.29 0.31 0.31 0.24 0.24 0.25 0.22 0.22 0.25 0.23 0.23 0.24 0.26 0.27 0.31 0.31 0.27 0.28 0.29 0.29 0.30 0.31 0.28 0.25 0.21 0.19 0.17 0.15 0.16 0.18 0.23 0.25 0.26 0.29 0.33 0.39 0.40 0.40 0.39 0.39 0.42 0.46 0.56

GEFSCGP_prec_meanprecacc_258.txt.gz
Total_Precipitation_Accumulation
0.73 0.83 0.69 0.45 0.36 0.31 0.26 0.24 0.19 0.14 0.13 0.16 0.13 0.08 0.03 0.04 0.06 0.05 0.03 0.03 0.02 0.02 0.02 0.03 0.04 0.04 0.05 0.09 0.11 0.14 0.16 0.26 0.31 0.30 0.34 0.36 0.32 0.32 0.34 0.33 0.30 0.31 0.33 0.34
0.77 0.59 0.32 0.25 0.26 0.32 0.32 0.29 0.22 0.16 0.12 0.17 0.15 0.09 0.04 0.04 0.05 0.05 0.04 0.04 0.03 0.02 0.02 0.03 0.06 0.06 0.05 0.07 0.09 0.13 0.14 0.18 0.26 0.27 0.28 0.32 0.30 0.32 0.34 0.34 0.33 0.34 0.33 0.32
0.65 0.34 0.20 0.28 0.37 0.43 0.41 0.32 0.23 0.22 0.18 0.18 0.18 0.13 0.06 0.03 0.04 0.03 0.03 0.03 0.03 0.02 0.02 0.04 0.05 0.07 0.07 0.07 0.09 0.12 0.14 0.16 0.22 0.28 0.31 0.38 0.44 0.40 0.39 0.36 0.33 0.33 0.33 0.33
0.50 0.27 0.27 0.35 0.37 0.38 0.38 0.23 0.21 0.27 0.37 0.37 0.26 0.24 0.07 0.04 0.04 0.03 0.03 0.02 0.02 0.02 0.02 0.03 0.04 0.05 0.08 0.10 0.11 0.13 0.17 0.16 0.16 0.22 0.31 0.35 0.38 0.36 0.32 0.30 0.31 0.32 0.33 0.33
0.58 0.28 0.31 0.36 0.26 0.27 0.27 0.21 0.27 0.33 0.46 0.45 0.28 0.28 0.10 0.04 0.06 0.03 0.01 0.01 0.02 0.02 0.02 0.02 0.02 0.04 0.06 0.09 0.10 0.13 0.19 0.21 0.19 0.18 0.23 0.32 0.35 0.34 0.34 0.34 0.34 0.35 0.36 0.35
0.45 0.31 0.33 0.29 0.20 0.26 0.33 0.40 0.51 0.56 0.74 0.74 0.24 0.19 0.11 0.06 0.05 0.03 0.01 0.01 0.02 0.03 0.03 0.03 0.04 0.04 0.05 0.07 0.08 0.12 0.16 0.20 0.20 0.21 0.22 0.28 0.33 0.36 0.39 0.42 0.40 0.36 0.36 0.37
0.58 0.41 0.38 0.33 0.38 0.44 0.61 0.91 1.29 1.35 1.19 0.60 0.11 0.12 0.12 0.06 0.04 0.02 0.01 0.01 0.01 0.03 0.04 0.03 0.04 0.06 0.07 0.06 0.07 0.11 0.15 0.19 0.20 0.22 0.24 0.25 0.29 0.32 0.35 0.40 0.41 0.40 0.37 0.39
0.65 0.52 0.35 0.33 0.42 0.55 0.59 0.74 0.97 0.94 0.58 0.22 0.08 0.10 0.09 0.06 0.03 0.02 0.01 0.01 0.02 0.03 0.03 0.03 0.03 0.03 0.05 0.06 0.07 0.09 0.12 0.15 0.20 0.22 0.24 0.26 0.27 0.29 0.29 0.34 0.40 0.42 0.39 0.37
0.67 0.47 0.23 0.20 0.25 0.39 0.57 0.55 0.46 0.64 0.48 0.31 0.18 0.11 0.07 0.04 0.02 0.02 0.02 0.02 0.03 0.04 0.04 0.03 0.03 0.03 0.04 0.05 0.05 0.08 0.10 0.12 0.15 0.19 0.24 0.27 0.27 0.28 0.27 0.28 0.34 0.38 0.37 0.35
0.81 0.64 0.31 0.26 0.33 0.40 0.47 0.56 0.65 0.94 0.86 0.48 0.20 0.11 0.11 0.06 0.04 0.03 0.03 0.04 0.05 0.05 0.05 0.04 0.03 0.03 0.04 0.05 0.05 0.07 0.11 0.12 0.14 0.15 0.20 0.25 0.27 0.28 0.29 0.29 0.30 0.35 0.39 0.40
0.78 0.88 0.59 0.48 0.54 0.49 0.45 0.65 0.87 0.93 0.72 0.52 0.29 0.18 0.15 0.11 0.06 0.05 0.04 0.05 0.07 0.07 0.08 0.07 0.05 0.04 0.04 0.06 0.07 0.08 0.12 0.13 0.15 0.15 0.17 0.21 0.29 0.32 0.35 0.37 0.37 0.38 0.42 0.48
0.77 1.02 0.79 0.54 0.41 0.34 0.43 0.51 0.69 0.92 0.72 0.43 0.36 0.21 0.13 0.10 0.08 0.06 0.05 0.05 0.06 0.08 0.10 0.09 0.07 0.06 0.06 0.08 0.10 0.12 0.15 0.15 0.17 0.17 0.19 0.20 0.26 0.34 0.38 0.42 0.45 0.47 0.50 0.53
1.10 1.38 1.17 0.83 0.65 0.60 0.62 0.55 0.55 0.70 0.76 0.59 0.48 0.24 0.09 0.08 0.08 0.08 0.07 0.06 0.07 0.08 0.08 0.08 0.08 0.08 0.09 0.10 0.12 0.16 0.19 0.17 0.18 0.19 0.21 0.23 0.27 0.35 0.42 0.48 0.51 0.52 0.56 0.61
1.36 1.46 1.09 0.85 0.65 0.63 0.67 0.54 0.50 0.70 0.96 0.65 0.34 0.19 0.10 0.09 0.10 0.10 0.09 0.08 0.06 0.05 0.07 0.09 0.09 0.10 0.11 0.12 0.14 0.18 0.22 0.20 0.22 0.26 0.27 0.32 0.39 0.43 0.48 0.53 0.55 0.55 0.58 0.63
1.42 1.40 0.75 0.44 0.30 0.31 0.38 0.38 0.40 0.51 0.55 0.49 0.29 0.20 0.18 0.16 0.14 0.13 0.12 0.10 0.08 0.07 0.09 0.12 0.12 0.11 0.13 0.15 0.16 0.21 0.27 0.29 0.34 0.40 0.42 0.42 0.43 0.47 0.47 0.49 0.52 0.55 0.59 0.62
1.24 1.27 0.75 0.51 0.31 0.29 0.31 0.27 0.28 0.34 0.33 0.30 0.23 0.23 0.20 0.17 0.14 0.10 0.10 0.12 0.11 0.10 0.11 0.11 0.14 0.14 0.14 0.19 0.26 0.31 0.38 0.41 0.44 0.49 0.51 0.50 0.45 0.45 0.49 0.50 0.50 0.53 0.58 0.59
1.11 1.17 1.09 0.72 0.38 0.52 0.54 0.32 0.29 0.31 0.32 0.29 0.29 0.26 0.20 0.17 0.15 0.13 0.12 0.13 0.14 0.13 0.12 0.12 0.15 0.19 0.20 0.26 0.34 0.41 0.45 0.46 0.48 0.51 0.55 0.56 0.49 0.45 0.48 0.50 0.49 0.48 0.49 0.51
0.82 0.94 1.29 1.00 0.73 0.95 0.48 0.20 0.23 0.25 0.28 0.29 0.28 0.25 0.22 0.21 0.17 0.14 0.13 0.14 0.16 0.17 0.18 0.17 0.18 0.21 0.26 0.32 0.38 0.44 0.48 0.50 0.51 0.51 0.50 0.50 0.45 0.39 0.41 0.47 0.46 0.42 0.42 0.46
0.47 0.81 1.36 1.25 0.97 0.56 0.19 0.13 0.20 0.27 0.33 0.31 0.28 0.25 0.22 0.20 0.16 0.16 0.18 0.17 0.17 0.17 0.17 0.16 0.16 0.17 0.23 0.28 0.32 0.35 0.39 0.41 0.42 0.41 0.39 0.39 0.37 0.36 0.40 0.45 0.42 0.38 0.37 0.39
0.45 0.76 1.41 1.37 1.08 0.54 0.21 0.10 0.14 0.26 0.37 0.28 0.25 0.25 0.25 0.25 0.39 0.29 0.23 0.18 0.15 0.13 0.11 0.12 0.13 0.13 0.16 0.20 0.22 0.23 0.26 0.28 0.31 0.32 0.32 0.37 0.34 0.32 0.36 0.43 0.41 0.39 0.37 0.39
0.77 1.16 1.39 1.16 1.01 0.46 0.18 0.11 0.14 0.39 0.49 0.30 0.27 0.27 0.30 0.40 0.46 0.31 0.23 0.20 0.17 0.14 0.13 0.13 0.14 0.17 0.19 0.22 0.24 0.23 0.21 0.22 0.23 0.25 0.28 0.35 0.37 0.34 0.34 0.37 0.39 0.39 0.39 0.40
0.67 0.90 0.93 0.91 1.10 0.59 0.19 0.18 0.34 0.49 0.33 0.27 0.28 0.30 0.37 0.34 0.25 0.21 0.22 0.22 0.19 0.17 0.16 0.16 0.19 0.24 0.28 0.27 0.23 0.20 0.18 0.17 0.17 0.21 0.23 0.29 0.37 0.35 0.34 0.36 0.36 0.36 0.40 0.43
0.52 0.66 0.70 0.68 0.63 0.37 0.26 0.31 0.33 0.31 0.31 0.33 0.40 0.41 0.40 0.37 0.30 0.28 0.25 0.21 0.19 0.18 0.19 0.20 0.20 0.25 0.29 0.26 0.20 0.18 0.17 0.15 0.16 0.18 0.22 0.27 0.33 0.33 0.32 0.34 0.35 0.36 0.38 0.45
0.36 0.37 0.48 0.47 0.36 0.27 0.24 0.21 0.21 0.23 0.28 0.32 0.35 0.38 0.41 0.44 0.38 0.33 0.31 0.28 0.25 0.23 0.23 0.22 0.20 0.23 0.27 0.22 0.18 0.17 0.16 0.15 0.15 0.19 0.24 0.29 0.33 0.35 0.34 0.33 0.34 0.36 0.42 0.57
0.30 0.30 0.35 0.34 0.28 0.24 0.23 0.23 0.23 0.24 0.22 0.21 0.22 0.27 0.38 0.44 0.40 0.33 0.31 0.32 0.33 0.32 0.29 0.27 0.26 0.26 0.25 0.19 0.15 0.16 0.19 0.21 0.22 0.23 0.27 0.32 0.36 0.37 0.37 0.35 0.36 0.41 0.45 0.69
0.28 0.30 0.33 0.32 0.25 0.25 0.26 0.23 0.23 0.25 0.25 0.24 0.25 0.27 0.29 0.32 0.33 0.30 0.31 0.32 0.33 0.34 0.34 0.32 0.28 0.24 0.21 0.18 0.16 0.16 0.19 0.24 0.26 0.27 0.30 0.34 0.40 0.42 0.42 0.41 0.41 0.43 0.47 0.57

GEFSCGP_prec_meanprecacc_264.txt.gz
Total_Precipitation_Accumulation
0.77 0.89 0.76 0.51 0.41 0.36 0.29 0.26 0.21 0.16 0.13 0.16 0.13 0.08 0.04 0.04 0.06 0.05 0.04 0.04 0.04 0.04 0.04 0.07 0.07 0.07 0.08 0.12 0.15 0.19 0.21 0.34 0.41 0.42 0.44 0.43 0.34 0.33 0.35 0.33 0.30 0.32 0.34 0.35
0.81 0.64 0.36 0.29 0.31 0.38 0.37 0.33 0.24 0.17 0.12 0.17 0.15 0.09 0.04 0.04 0.05 0.05 0.04 0.04 0.03 0.03 0.04 0.07 0.10 0.09 0.07 0.10 0.12 0.16 0.18 0.24 0.33 0.34 0.38 0.41 0.37 0.38 0.38 0.36 0.35 0.35 0.35 0.34
0.67 0.37 0.23 0.32 0.42 0.49 0.45 0.35 0.26 0.25 0.20 0.18 0.18 0.14 0.06 0.04 0.04 0.04 0.03 0.03 0.03 0.03 0.03 0.06 0.08 0.10 0.10 0.10 0.12 0.15 0.17 0.21 0.27 0.33 0.40 0.47 0.52 0.48 0.46 0.41 0.37 0.36 0.36 0.35
0.53 0.28 0.30 0.39 0.42 0.43 0.42 0.26 0.24 0.29 0.41 0.39 0.27 0.26 0.09 0.05 0.05 0.04 0.03 0.02 0.02 0.03 0.03 0.04 0.06 0.09 0.11 0.12 0.13 0.16 0.21 0.20 0.22 0.27 0.38 0.41 0.43 0.41 0.35 0.33 0.35 0.36 0.37 0.36
0.63 0.30 0.33 0.40 0.30 0.31 0.31 0.23 0.29 0.35 0.50 0.49 0.30 0.30 0.12 0.05 0.07 0.04 0.02 0.02 0.02 0.02 0.03 0.03 0.04 0.06 0.10 0.12 0.13 0.15 0.22 0.25 0.23 0.23 0.29 0.38 0.41 0.39 0.38 0.37 0.37 0.37 0.38 0.37
0.49 0.33 0.35 0.32 0.24 0.30 0.37 0.43 0.54 0.59 0.78 0.79 0.26 0.21 0.14 0.08 0.07 0.04 0.02 0.01 0.02 0.03 0.04 0.05 0.06 0.07 0.08 0.11 0.13 0.16 0.20 0.24 0.25 0.26 0.27 0.33 0.39 0.41 0.43 0.45 0.42 0.38 0.38 0.37
0.60 0.44 0.40 0.36 0.43 0.49 0.67 0.98 1.38 1.45 1.29 0.66 0.13 0.14 0.16 0.10 0.06 0.04 0.02 0.02 0.02 0.04 0.05 0.05 0.06 0.08 0.09 0.09 0.11 0.15 0.19 0.23 0.25 0.27 0.28 0.29 0.33 0.38 0.40 0.44 0.44 0.42 0.39 0.40
0.68 0.56 0.39 0.37 0.48 0.61 0.65 0.81 1.05 1.02 0.65 0.26 0.11 0.13 0.13 0.09 0.05 0.02 0.02 0.02 0.03 0.05 0.06 0.05 0.04 0.05 0.07 0.09 0.10 0.13 0.16 0.20 0.25 0.27 0.29 0.30 0.31 0.34 0.35 0.39 0.44 0.45 0.41 0.39
0.72 0.51 0.27 0.25 0.28 0.42 0.63 0.61 0.50 0.67 0.51 0.36 0.22 0.13 0.09 0.05 0.03 0.02 0.03 0.03 0.04 0.06 0.07 0.06 0.05 0.05 0.05 0.06 0.08 0.11 0.14 0.16 0.19 0.24 0.30 0.32 0.31 0.32 0.32 0.32 0.37 0.42 0.40 0.37
0.87 0.70 0.35 0.30 0.38 0.43 0.51 0.60 0.69 0.98 0.90 0.53 0.24 0.13 0.13 0.08 0.06 0.05 0.05 0.06 0.07 0.07 0.07 0.07 0.06 0.04 0.05 0.07 0.07 0.10 0.14 0.15 0.17 0.19 0.24 0.30 0.32 0.33 0.33 0.32 0.33 0.38 0.42 0.42
0.84 0.94 0.64 0.53 0.59 0.53 0.49 0.70 0.92 0.97 0.76 0.56 0.33 0.21 0.19 0.14 0.09 0.08 0.07 0.07 0.09 0.10 0.11 0.10 0.07 0.05 0.05 0.08 0.09 0.10 0.15 0.15 0.17 0.18 0.20 0.24 0.33 0.36 0.39 0.41 0.41 0.41 0.45 0.50
0.81 1.06 0.84 0.58 0.45 0.36 0.45 0.54 0.74 0.98 0.76 0.47 0.39 0.24 0.16 0.13 0.11 0.10 0.09 0.09 0.09 0.11 0.12 0.11 0.08 0.07 0.08 0.09 0.12 0.14 0.17 0.17 0.18 0.18 0.21 0.22 0.29 0.37 0.42 0.46 0.49 0.50 0.52 0.55
1.15 1.43 1.22 0.88 0.69 0.62 0.64 0.56 0.58 0.74 0.80 0.62 0.51 0.26 0.11 0.11 0.11 0.10 0.09 0.10 0.09 0.09 0.09 0.09 0.10 0.10 0.11 0.11 0.13 0.18 0.22 0.20 0.20 0.20 0.22 0.24 0.29 0.37 0.45 0.51 0.54 0.55 0.58 0.63
1.42 1.52 1.15 0.90 0.68 0.66 0.69 0.56 0.52 0.73 1.01 0.68 0.37 0.21 0.12 0.12 0.12 0.12 0.11 0.10 0.09 0.07 0.08 0.10 0.11 0.11 0.13 0.14 0.15 0.19 0.23 0.22 0.25 0.27 0.27 0.32 0.40 0.44 0.49 0.55 0.57 0.58 0.60 0.65
1.46 1.44 0.77 0.47 0.32 0.33 0.41 0.39 0.41 0.54 0.58 0.52 0.32 0.23 0.21 0.20 0.19 0.17 0.16 0.13 0.11 0.09 0.10 0.13 0.14 0.13 0.16 0.17 0.18 0.22 0.28 0.30 0.36 0.42 0.43 0.43 0.44 0.48 0.48 0.50 0.54 0.57 0.61 0.64
1.27 1.31 0.77 0.53 0.33 0.31 0.33 0.28 0.30 0.35 0.35 0.32 0.25 0.25 0.23 0.20 0.17 0.14 0.13 0.16 0.15 0.13 0.13 0.14 0.17 0.18 0.18 0.22 0.29 0.34 0.40 0.43 0.45 0.50 0.53 0.50 0.46 0.45 0.50 0.51 0.51 0.54 0.59 0.60
1.14 1.20 1.12 0.75 0.41 0.55 0.58 0.35 0.31 0.33 0.34 0.31 0.32 0.29 0.23 0.20 0.17 0.16 0.15 0.16 0.18 0.17 0.15 0.15 0.18 0.23 0.24 0.28 0.37 0.44 0.47 0.48 0.50 0.52 0.55 0.57 0.50 0.45 0.48 0.50 0.49 0.48 0.49 0.51
0.84 0.96 1.32 1.03 0.76 0.99 0.52 0.23 0.25 0.27 0.30 0.31 0.30 0.28 0.25 0.23 0.20 0.17 0.15 0.17 0.19 0.20 0.21 0.20 0.20 0.23 0.28 0.34 0.40 0.46 0.50 0.53 0.54 0.53 0.51 0.51 0.46 0.40 0.42 0.47 0.46 0.42 0.42 0.46
0.48 0.83 1.38 1.27 0.99 0.59 0.22 0.15 0.23 0.30 0.35 0.33 0.31 0.28 0.25 0.22 0.18 0.18 0.20 0.19 0.20 0.20 0.19 0.19 0.18 0.19 0.24 0.30 0.35 0.37 0.42 0.45 0.47 0.47 0.42 0.41 0.38 0.37 0.41 0.46 0.43 0.39 0.38 0.40
0.47 0.78 1.44 1.39 1.11 0.56 0.22 0.12 0.16 0.28 0.40 0.30 0.27 0.28 0.27 0.27 0.41 0.31 0.25 0.21 0.18 0.15 0.14 0.14 0.14 0.15 0.17 0.22 0.25 0.26 0.29 0.32 0.35 0.37 0.38 0.42 0.37 0.34 0.38 0.44 0.42 0.40 0.38 0.40
0.79 1.19 1.42 1.19 1.04 0.47 0.19 0.11 0.15 0.42 0.52 0.32 0.29 0.29 0.33 0.42 0.49 0.34 0.25 0.22 0.20 0.17 0.15 0.15 0.16 0.19 0.21 0.25 0.26 0.26 0.24 0.25 0.27 0.28 0.31 0.39 0.41 0.38 0.37 0.39 0.41 0.41 0.41 0.42
0.70 0.93 0.96 0.94 1.13 0.61 0.21 0.19 0.36 0.52 0.35 0.29 0.30 0.32 0.39 0.37 0.27 0.23 0.24 0.24 0.21 0.19 0.19 0.19 0.22 0.27 0.30 0.30 0.26 0.23 0.20 0.19 0.20 0.24 0.26 0.31 0.39 0.38 0.38 0.39 0.39 0.39 0.42 0.45
0.55 0.70 0.73 0.71 0.67 0.40 0.28 0.32 0.35 0.33 0.33 0.35 0.42 0.43 0.42 0.39 0.33 0.30 0.27 0.24 0.22 0.21 0.21 0.23 0.24 0.29 0.32 0.28 0.22 0.21 0.20 0.18 0.18 0.21 0.25 0.30 0.35 0.35 0.35 0.37 0.38 0.38 0.40 0.46
0.38 0.39 0.51 0.49 0.38 0.29 0.25 0.22 0.22 0.24 0.30 0.34 0.37 0.40 0.43 0.46 0.40 0.35 0.33 0.31 0.28 0.26 0.26 0.25 0.24 0.27 0.30 0.25 0.21 0.20 0.18 0.18 0.18 0.22 0.28 0.32 0.36 0.37 0.36 0.35 0.36 0.38 0.44 0.58
0.33 0.33 0.37 0.37 0.30 0.25 0.24 0.23 0.23 0.25 0.24 0.23 0.24 0.29 0.40 0.47 0.43 0.35 0.34 0.35 0.36 0.35 0.32 0.30 0.29 0.30 0.28 0.23 0.18 0.19 0.22 0.23 0.25 0.27 0.32 0.36 0.39 0.40 0.40 0.37 0.38 0.42 0.46 0.70
0.29 0.32 0.35 0.34 0.27 0.27 0.27 0.24 0.23 0.26 0.26 0.26 0.27 0.29 0.31 0.34 0.35 0.32 0.33 0.35 0.35 0.37 0.38 0.35 0.31 0.27 0.24 0.21 0.19 0.19 0.22 0.27 0.29 0.30 0.33 0.38 0.44 0.45 0.44 0.42 0.42 0.44 0.48 0.58

GEFSCGP_prec_meanprecacc_270.txt.gz
Total_Precipitation_Accumulation
0.84 0.98 0.83 0.56 0.45 0.39 0.31 0.27 0.22 0.16 0.14 0.17 0.14 0.09 0.04 0.04 0.06 0.05 0.04 0.05 0.05 0.05 0.07 0.10 0.10 0.10 0.11 0.16 0.19 0.23 0.27 0.39 0.46 0.48 0.51 0.50 0.40 0.40 0.44 0.41 0.34 0.34 0.35 0.36
0.88 0.72 0.40 0.31 0.34 0.41 0.39 0.34 0.25 0.18 0.13 0.18 0.17 0.09 0.04 0.04 0.05 0.05 0.04 0.05 0.05 0.05 0.06 0.11 0.14 0.13 0.10 0.12 0.16 0.19 0.22 0.29 0.38 0.41 0.45 0.50 0.47 0.46 0.47 0.44 0.40 0.39 0.38 0.36
0.73 0.42 0.26 0.35 0.45 0.54 0.48 0.37 0.27 0.26 0.22 0.20 0.20 0.15 0.06 0.04 0.04 0.04 0.04 0.04 0.04 0.04 0.05 0.09 0.13 0.14 0.14 0.12 0.14 0.17 0.20 0.25 0.33 0.41 0.47 0.55 0.62 0.57 0.54 0.49 0.45 0.43 0.42 0.41
0.57 0.31 0.32 0.42 0.45 0.47 0.44 0.26 0.25 0.32 0.45 0.42 0.30 0.28 0.09 0.05 0.05 0.04 0.03 0.03 0.03 0.04 0.04 0.07 0.11 0.13 0.15 0.15 0.15 0.18 0.23 0.23 0.26 0.33 0.45 0.48 0.50 0.50 0.42 0.38 0.39 0.40 0.40 0.40
0.67 0.33 0.36 0.43 0.33 0.34 0.33 0.24 0.30 0.38 0.54 0.52 0.33 0.33 0.13 0.06 0.07 0.05 0.02 0.02 0.03 0.03 0.04 0.05 0.07 0.11 0.15 0.17 0.17 0.19 0.25 0.28 0.26 0.27 0.34 0.44 0.48 0.47 0.46 0.43 0.41 0.42 0.41 0.39
0.52 0.36 0.37 0.34 0.26 0.33 0.40 0.46 0.57 0.62 0.83 0.84 0.29 0.23 0.16 0.11 0.09 0.06 0.03 0.03 0.03 0.04 0.05 0.06 0.08 0.11 0.14 0.18 0.20 0.23 0.25 0.28 0.28 0.31 0.32 0.38 0.44 0.48 0.52 0.52 0.49 0.45 0.44 0.43
0.62 0.47 0.42 0.38 0.46 0.54 0.71 1.04 1.49 1.56 1.38 0.72 0.16 0.15 0.18 0.12 0.09 0.08 0.07 0.05 0.04 0.06 0.07 0.06 0.07 0.11 0.14 0.15 0.18 0.23 0.26 0.29 0.31 0.32 0.34 0.34 0.38 0.43 0.47 0.52 0.50 0.49 0.45 0.45
0.70 0.58 0.41 0.40 0.52 0.67 0.70 0.87 1.13 1.10 0.71 0.30 0.14 0.14 0.14 0.10 0.06 0.05 0.06 0.06 0.06 0.07 0.09 0.09 0.06 0.07 0.10 0.13 0.14 0.19 0.23 0.26 0.31 0.33 0.34 0.36 0.36 0.39 0.41 0.47 0.51 0.51 0.47 0.47
0.75 0.53 0.28 0.28 0.33 0.48 0.68 0.66 0.54 0.71 0.54 0.40 0.25 0.15 0.09 0.05 0.03 0.03 0.05 0.06 0.08 0.09 0.09 0.09 0.08 0.07 0.08 0.09 0.11 0.15 0.20 0.23 0.26 0.30 0.36 0.38 0.37 0.37 0.37 0.38 0.45 0.49 0.46 0.44
0.91 0.73 0.37 0.33 0.44 0.48 0.55 0.66 0.73 1.03 0.94 0.57 0.26 0.14 0.15 0.09 0.06 0.05 0.06 0.08 0.11 0.11 0.09 0.09 0.08 0.07 0.08 0.09 0.10 0.14 0.18 0.21 0.26 0.27 0.31 0.37 0.38 0.38 0.40 0.40 0.40 0.45 0.48 0.48
0.88 0.98 0.66 0.56 0.65 0.58 0.51 0.75 0.98 1.02 0.80 0.59 0.34 0.22 0.21 0.16 0.11 0.10 0.09 0.09 0.13 0.15 0.14 0.13 0.10 0.07 0.07 0.10 0.11 0.13 0.19 0.20 0.24 0.27 0.29 0.32 0.38 0.41 0.44 0.49 0.49 0.48 0.52 0.56
0.83 1.11 0.88 0.63 0.49 0.39 0.47 0.57 0.79 1.03 0.80 0.50 0.41 0.26 0.17 0.15 0.13 0.11 0.10 0.10 0.11 0.14 0.16 0.14 0.11 0.10 0.10 0.11 0.14 0.16 0.21 0.22 0.25 0.25 0.28 0.30 0.37 0.43 0.48 0.52 0.56 0.58 0.59 0.61
1.19 1.48 1.28 0.93 0.73 0.65 0.66 0.58 0.60 0.77 0.83 0.65 0.54 0.28 0.12 0.12 0.12 0.12 0.11 0.11 0.10 0.10 0.11 0.11 0.12 0.13 0.14 0.13 0.15 0.20 0.24 0.24 0.26 0.26 0.26 0.28 0.33 0.43 0.52 0.58 0.60 0.61 0.63 0.67
1.46 1.56 1.19 0.94 0.72 0.69 0.71 0.58 0.54 0.76 1.05 0.71 0.38 0.22 0.13 0.13 0.14 0.14 0.13 0.11 0.10 0.07 0.09 0.12 0.13 0.13 0.16 0.16 0.17 0.21 0.25 0.25 0.29 0.32 0.31 0.36 0.43 0.47 0.53 0.60 0.63 0.64 0.67 0.70
1.48 1.47 0.79 0.49 0.34 0.34 0.42 0.40 0.43 0.56 0.60 0.54 0.33 0.24 0.23 0.21 0.21 0.19 0.17 0.14 0.11 0.10 0.11 0.14 0.16 0.16 0.18 0.20 0.21 0.26 0.31 0.33 0.40 0.47 0.48 0.47 0.49 0.52 0.50 0.53 0.58 0.62 0.67 0.70
1.29 1.34 0.79 0.55 0.35 0.32 0.34 0.29 0.30 0.36 0.36 0.33 0.25 0.26 0.24 0.21 0.18 0.15 0.14 0.17 0.16 0.14 0.15 0.15 0.19 0.20 0.21 0.26 0.33 0.38 0.44 0.46 0.49 0.55 0.58 0.55 0.51 0.50 0.53 0.53 0.54 0.57 0.62 0.64
1.15 1.23 1.15 0.78 0.43 0.56 0.59 0.37 0.33 0.34 0.35 0.32 0.32 0.30 0.24 0.20 0.18 0.17 0.16 0.18 0.20 0.18 0.17 0.17 0.19 0.25 0.27 0.32 0.41 0.47 0.49 0.50 0.53 0.55 0.61 0.63 0.56 0.51 0.52 0.52 0.51 0.50 0.51 0.54
0.86 0.98 1.35 1.06 0.79 1.01 0.54 0.26 0.28 0.29 0.31 0.32 0.31 0.29 0.26 0.24 0.21 0.18 0.17 0.18 0.21 0.22 0.23 0.22 0.24 0.26 0.32 0.38 0.44 0.51 0.54 0.56 0.58 0.58 0.56 0.57 0.52 0.46 0.46 0.50 0.48 0.44 0.43 0.47
0.50 0.85 1.41 1.30 1.02 0.60 0.23 0.16 0.25 0.32 0.37 0.35 0.32 0.29 0.26 0.23 0.19 0.19 0.21 0.21 0.22 0.22 0.21 0.21 0.22 0.24 0.29 0.34 0.38 0.41 0.46 0.49 0.51 0.52 0.49 0.48 0.44 0.42 0.46 0.49 0.45 0.41 0.40 0.41
0.49 0.81 1.47 1.42 1.13 0.57 0.23 0.13 0.18 0.30 0.41 0.31 0.29 0.29 0.28 0.28 0.43 0.32 0.26 0.22 0.19 0.17 0.16 0.17 0.18 0.18 0.20 0.25 0.27 0.29 0.32 0.35 0.39 0.41 0.42 0.47 0.43 0.39 0.43 0.48 0.45 0.43 0.41 0.42
0.81 1.22 1.45 1.22 1.07 0.49 0.20 0.13 0.17 0.44 0.55 0.33 0.30 0.31 0.34 0.44 0.51 0.36 0.26 0.23 0.21 0.19 0.17 0.17 0.18 0.21 0.23 0.27 0.28 0.28 0.26 0.28 0.30 0.31 0.34 0.43 0.46 0.43 0.42 0.43 0.44 0.43 0.43 0.44
0.71 0.94 0.98 0.97 1.16 0.63 0.22 0.20 0.38 0.54 0.37 0.31 0.31 0.34 0.41 0.39 0.29 0.25 0.25 0.25 0.22 0.20 0.20 0.21 0.23 0.29 0.32 0.32 0.27 0.24 0.23 0.22 0.23 0.26 0.29 0.34 0.42 0.42 0.41 0.42 0.42 0.41 0.44 0.48
0.56 0.71 0.75 0.73 0.68 0.42 0.30 0.35 0.38 0.36 0.37 0.37 0.44 0.45 0.44 0.40 0.34 0.31 0.28 0.25 0.23 0.22 0.23 0.25 0.25 0.30 0.35 0.31 0.25 0.23 0.22 0.20 0.20 0.23 0.27 0.32 0.37 0.37 0.38 0.40 0.41 0.41 0.43 0.49
0.38 0.40 0.53 0.51 0.40 0.31 0.27 0.24 0.24 0.26 0.33 0.38 0.40 0.43 0.45 0.48 0.42 0.36 0.34 0.33 0.30 0.29 0.28 0.28 0.26 0.29 0.33 0.28 0.23 0.22 0.20 0.19 0.20 0.25 0.30 0.35 0.38 0.40 0.39 0.38 0.38 0.40 0.46 0.60
0.33 0.33 0.39 0.39 0.31 0.27 0.26 0.25 0.25 0.27 0.26 0.26 0.28 0.32 0.43 0.50 0.46 0.38 0.36 0.38 0.39 0.39 0.36 0.34 0.33 0.33 0.32 0.25 0.21 0.22 0.24 0.25 0.27 0.30 0.34 0.39 0.42 0.43 0.43 0.40 0.40 0.45 0.48 0.72
0.30 0.33 0.37 0.36 0.29 0.29 0.29 0.26 0.25 0.28 0.28 0.29 0.30 0.32 0.35 0.38 0.39 0.36 0.37 0.38 0.39 0.40 0.41 0.39 0.34 0.30 0.28 0.24 0.22 0.22 0.25 0.29 0.31 0.32 0.35 0.40 0.46 0.48 0.47 0.45 0.45 0.47 0.50 0.59